     2              OBSERVATION DATA    G (GPS)             RINEX VERSION / TYPE
ASRINEXO V2.9.7 UX USGS/MENLO_PARK 04-OCT-99 09:38          PGM / RUN BY / DATE
                                                            COMMENT
National Earthquake Hazard Reduction Program                COMMENT
Crustal Strain Project                                      COMMENT
345 Middlefield Road, MS/977                                COMMENT
U.S. Geological Survey, Menlo Park, California 94025        COMMENT
Contact: kwendt@isdmnl.wr.usgs.gov (Ph: 650-329-4866)       COMMENT
HI's are vertical to base of antenna                        COMMENT
BIT 2 OF LLI (+4) FLAGS DATA COLLECTED UNDER "AS" CONDITION COMMENT
pamt                                                        MARKER NAME
WRT                                                         OBSERVER / AGENCY
175 ASHTECH Z-XII3 CD00                                     REC # / TYPE / VERS
CR16364 ASH700936E_C NONE                                   ANT # / TYPE
 -2425745.0000 -4050960.0000  4275691.0000                  APPROX POSITION XYZ
        1.1721        0.0000        0.0000                  ANTENNA: DELTA H/E/N
     1     1                                                WAVELENGTH FACT L1/2
     5    C1    L1    L2    P1    P2                        # / TYPES OF OBSERV
    30                                                      INTERVAL
  1999     9    14    16     6   30.000000                  TIME OF FIRST OBS
                                                            END OF HEADER
 99  9 14 16  6 30.0000000  0  7 17 29 26 23 22 21 03
  20816291.859      148632.606 9    110386.47847  20816290.842    20816297.3884
  23770366.536     -429641.241 7   -315295.21445  23770367.467    23770375.6664
  23211938.964      344795.111 8    255613.78046  23211939.069    23211945.8994
  20712071.175       11276.09447                  20712070.662    20712076.7284
  24992391.372      344766.503 7    255429.54245  24992389.739    24992398.4234
  21892896.511                                    21892898.352    21892903.5014
  21931138.632     -220838.658 8   -163421.13847  21931138.859    21931144.7454
 99  9 14 16  7  0.0000000  0  8 17 29 26 23 22 21 06 03
  20740160.391     -251440.341 9   -201358.71447  20740159.536    20740166.0794
  23667288.665     -971319.834 7   -737382.23945  23667289.447    23667297.6804
  23144979.657       -7080.117 8    -18574.74846  23144979.644    23144986.2144
  20632303.439     -347526.93819   -315359.63647  20632302.884    20632309.0124
  24925267.701       -7970.100 7    -19430.30245  24925267.276    24925275.3124
  21799362.416                                    21799364.244    21799448.1794
  24359241.311                                    24359238.140    24359252.5764
  21837813.901     -711264.412 8   -545571.07647  21837813.966    21837819.8504
 99  9 14 16  7 30.0000000  0  8 17 29 26 23 22 21 06 03
  20746604.702     -217575.125 9   -174970.29647  20746603.925    20746610.4534
  23646746.033    -1079272.958 7   -821501.38045  23646746.429    23646754.8294
  23160610.973       75064.112 8     45433.71946  23160611.043    23160617.7394
  20635107.608     -332790.995 9   -303877.09447  20635107.142    20635113.2204
  24940675.027       72997.091 7     43660.88745  24940673.251    24940682.8874
  21788396.507                                    21788398.406    21788624.9854
  24381068.718        5960.871 7    -23145.42654  24381068.937    24381077.8094
  21827096.364     -767586.267 8   -589458.26047  21827096.236    21827102.1074
 99  9 14 16  8  0.0000000  0  8 17 29 26 23 22 21 06 03
  20753106.351     -183408.695 9   -148347.14447  20753105.614    20753112.1514
  23626225.405    -1187109.185 7   -905529.41445  23626225.665    23626234.1624
  23176319.074      157610.826 8    109755.77946  23176319.188    23176325.9694
  20637972.070     -317738.269 9   -292147.71447  20637971.609    20637977.6614
  24956099.061      154050.418 7    106819.17845  24956098.052    24956107.1024
  21777482.474     -377156.89356                  21777481.853    21777488.4624
  24402904.620      120712.416 7     66271.20145  24402906.329    24402916.1894
  21816469.977     -823428.424 8   -632971.63147  21816469.812    21816475.6474
 99  9 14 16  8 30.0000000  0  7 17 29 26 23 21 06 03
  20759666.086     -148937.112 9   -121486.18747  20759665.383    20759671.9074
  23605731.094    -1294806.191 7   -989448.99345  23605731.463    23605740.0294
  23192104.115      240561.162 8    174392.32646  23192104.141    23192110.9124
  20640901.107     -302346.487 9   -280154.15047  20640900.612    20640906.6374
  21766622.507     -888152.80618   -421626.32947  21766622.161    21766628.7194
  24424753.469      235526.943 7    155736.87445  24424754.974    24424763.8814
  21805934.794     -878791.412 8   -676111.61047  21805934.556    21805940.4144
 99  9 14 16  9  0.0000000  0  7 17 29 26 23 21 06 03
  20766291.174     -114122.249 9    -94357.76547  20766290.496    20766297.0554
  23585270.353    -1402326.816 7  -1073231.11245  23585270.847    23585279.3994
  23207972.286      323949.348 8    239370.07146  23207972.414    23207979.1834
  20643900.186     -286586.353 9   -267873.54748  20643899.685    20643905.7014
  21755825.089     -944894.015 9   -465840.25747  21755824.746    21755831.2354
  24446621.080      350439.355 7    245278.86645  24446622.016    24446630.8024
  21795496.813     -933642.929 8   -718853.05647  21795496.612    21795502.6184
 99  9 14 16  9 30.0000000  0  7 17 29 26 23 21 06 03
  20772976.643      -78989.880 9    -66981.93147  20772975.998    20772982.6064
  23564837.034    -1509704.528 8  -1156901.89945  23564837.352    23564845.9154
  23223918.413      407745.808 8    304665.97546  23223918.466    23223925.2524
  20646962.622     -270493.224 9   -255333.46248  20646962.125    20646968.1694
  21745080.612    -1001356.966 9   -509837.35347  21745080.194    21745086.7424
  24468501.509      465421.117 7    334874.88345  24468502.118    24468511.6854
  21785148.789     -988022.429 8   -761226.70147  21785148.536    21785154.6004
 99  9 14 16 10  0.0000000  0  7 17 29 26 23 21 06 03
  20779722.607      -43539.613 9    -39358.38447  20779722.008    20779728.6654
  23544427.213    -1616959.367 8  -1240476.95645  23544427.412    23544435.8924
  23239940.290      491941.375 8    370272.85846  23239940.275    23239947.2304
  20650090.326     -254057.210 9   -242526.19748  20650089.840    20650095.8914
  21734389.172    -1057540.836 9   -553616.98047  21734388.756    21734395.3254
  24490398.867      580490.884 7    424539.47745  24490399.159    24490409.1154
  21774892.580    -1041919.230 8   -803224.21647  21774892.316    21774898.4374
 99  9 14 16 10 30.0000000  0  7 17 29 26 23 21 06 03
  20786531.122       -7760.812 9    -11478.84247  20786530.554    20786537.2254
  23524037.656    -1724107.261 8  -1323968.68345  23524037.808    23524046.1924
  23256039.507      576543.486 8    436196.53646  23256039.529    23256046.5694
  20653281.060     -237289.739 9   -229460.65648  20653280.591    20653286.6784
  21723750.894    -1113445.413 9   -597178.98147  21723750.460    21723757.0584
  24512314.974      695659.664 7    514281.20445  24512315.018    24512325.4364
  21764732.093    -1095312.860 8   -844829.65047  21764731.860    21764738.0514
 99  9 14 16 11  0.0000000  0  6 17 29 26 23 21 03
  20793390.077       28282.925 9     16607.14647  20793389.526    20793396.1884
  23503654.256    -1831222.159 8  -1407434.68645  23503654.319    23503662.8984
  23272205.416      661495.489 8    502392.83846  23272205.437    23272212.5014
  20656521.927     -220259.239 9   -216190.15748  20656521.438    20656527.5284
  21713150.089    -1169153.067 9   -640587.54447  21713149.669    21713156.2764
  21754658.540    -1148250.420 8   -886079.70647  21754658.253    21754664.4454
 99  9 14 16 11 30.0000000  0  6 17 29 26 23 21 03
  20800311.146       64653.056 9     44947.46547  20800310.604    20800317.2574
  23483289.367    -1938240.604 8  -1490825.53145  23483289.327    23483298.0084
  23288448.068      746850.615 8    568903.27646  23288448.033    23288455.0544
  20659826.400     -202894.305 9   -202659.06248  20659825.890    20659832.0344
  21702597.260    -1224608.188 9   -683799.31847  21702596.825    21702603.5264
  21744686.438    -1200654.624 8   -926914.15247  21744686.077    21744692.3454
 99  9 14 16 12  0.0000000  0  6 17 29 26 23 21 03
  20807295.524      101355.566 9     73546.78347  20807294.929    20807301.5564
  23462944.861    -2045151.225 8  -1574132.39645  23462944.791    23462953.4734
  23304767.626      832610.532 8    635729.13045  23304767.615    23304774.7264
  20663195.962     -185187.063 9   -188861.22948  20663195.497    20663201.6384
  21692095.712    -1279794.365 8   -726801.53247  21692095.295    21692101.9724
  21734819.992    -1252502.984 8   -967315.48047  21734819.727    21734826.0154
 99  9 14 16 12 30.0000000  0  6 17 29 26 23 21 03
  20814342.571      138387.748 9    102402.98247  20814341.991    20814348.5834
  23442624.599    -2151935.624 7  -1657340.90845  23442624.379    23442632.8044
  23321162.037      918764.269 8    702861.85045  23321162.075    23321169.3034
  20666628.292     -167150.479 9   -174806.77448  20666627.831    20666633.9354
  21681644.456    -1334716.423 8   -769597.93647  21681644.020    21681650.6934
  21725056.462    -1303810.846 8  -1007295.64047  21725056.197    21725062.4734
 99  9 14 16 13  0.0000000  0  7 17 29 26 23 21 03 31
  20821448.462      175728.987 9    131500.00647  20821447.871    20821454.4664
  23422329.026    -2258589.749 8  -1740447.91245  23422328.819    23422337.0354
  23337624.739     1005275.593 8    770273.21845  23337624.719    23337632.0174
  20670121.262     -148794.916 9   -160503.75948  20670120.793    20670126.9494
  21671244.204    -1389370.018 9   -812185.15047  21671243.800    21671250.4664
  21715390.882    -1354604.004 8  -1046874.73347  21715390.578    21715396.8444
  24485378.485    -1269893.238 7   -964748.97645  24485378.306    24485384.5564
 99  9 14 16 13 30.0000000  0  7 17 29 26 23 21 03 31
  20828612.750      213377.009 9    160836.08847  20828612.122    20828618.6884
  23402058.198    -2365112.888 8  -1823452.85945  23402058.082    23402066.2664
  23354149.981     1092116.466 8    837941.37345  23354149.958    23354157.3174
  20673672.259     -130134.488 9   -145963.18548  20673671.795    20673677.9564
  21660896.674    -1443746.905 9   -854556.74047  21660896.254    21660902.8744
  21705818.509    -1404907.135 8  -1086071.97447  21705818.235    21705824.4944
  24466526.289    -1368961.427 7  -1041944.96445  24466526.186    24466532.6564
 99  9 14 16 14  0.0000000  0  7 17 29 26 23 21 03 31
  20835846.208      251388.981 9    190455.76047  20835845.614    20835852.2334
  23381823.945    -2471443.592 8  -1906307.82945  23381823.930    23381832.1834
  23370751.619     1179358.046 8    905921.77645  23370751.585    23370758.8434
  20677290.657     -111120.061 9   -131146.76448  20677290.190    20677296.3404
  21650613.048    -1497787.994 9   -896666.68147  21650612.613    21650619.1714
  21696348.002    -1454675.151 8  -1124852.25747  21696347.691    21696353.9524
  24447725.679    -1467759.151 7  -1118930.16245  24447725.481    24447732.0444
 99  9 14 16 14 30.0000000  0  7 17 29 26 23 21 03 31
  20843148.618      289763.365 9    220357.83947  20843148.059    20843154.6894
  23361624.661    -2577591.442 8  -1989020.36045  23361624.654    23361632.7414
  23387426.235     1266983.349 8    974201.16945  23387426.232    23387433.4404
  20680971.835      -91775.856 9   -116073.37948  20680971.341    20680977.4734
  21640388.993    -1551515.846 9   -938532.53247  21640388.531    21640395.1534
  21686975.117    -1503930.042 8  -1163232.69847  21686974.880    21686981.0864
  24428973.287    -1566304.223 7  -1195718.52445  24428973.074    24428979.7124
 99  9 14 16 15  0.0000000  0  7 17 29 26 23 21 03 31
  20850519.389      328496.662 9    250539.58647  20850518.836    20850525.4704
  23341457.560    -2683569.947 8  -2071600.90445  23341457.635    23341465.6724
  23404171.736     1354981.140 8   1042770.80645  23404171.669    23404178.9914
  20684714.006      -72110.632 9   -100749.84548  20684713.521    20684719.6604
  21630220.769    -1604950.606 9   -980170.00247  21630220.270    21630226.8864
  21677697.507    -1552684.481 8  -1201223.17947  21677697.262    21677703.4254
  24410267.446    -1664604.401 7  -1272316.04845  24410267.134    24410274.1094
 99  9 14 16 15 30.0000000  0  7 17 29 26 23 21 03 31
  20857957.034      367581.081 9    280994.93247  20857956.447    20857963.0514
  23321321.016    -2789388.280 7  -2154056.63945  23321320.916    23321328.9834
  23420989.769     1443360.802 8   1111638.02245  23420989.846    23420997.1664
  20688516.224      -52129.995 9    -85180.53748  20688515.748    20688521.8484
  21620104.033    -1658114.613 9  -1021596.49847  21620103.514    21620110.1324
  21668516.746    -1600930.130 8  -1238817.19147  21668516.448    21668522.5814
  24391607.957    -1762660.440 7  -1348723.34045  24391607.562    24391614.8134
 99  9 14 16 16  0.0000000  0  7 17 29 26 23 21 03 31
  20865458.143      406999.306 9    311710.39447  20865457.514    20865464.1084
  23301214.120    -2895050.581 8  -2236390.79745  23301213.965    23301222.0624
  23437880.327     1532121.096 8   1180801.84245  23437880.483    23437887.6404
  20692377.274      -31840.498 9    -69370.56148  20692376.766    20692382.8544
  21610036.435    -1711020.103 9  -1062821.55047  21610035.973    21610042.5604
  21659433.321    -1648664.202 8  -1276012.57647  21659433.036    21659439.1034
  24372994.938    -1860473.412 7  -1424941.21645  24372994.297    24373001.7794
 99  9 14 16 16 30.0000000  0  7 17 29 26 23 21 03 31
  20873022.588      446750.647 9    342685.42247  20873021.968    20873028.6224
  23281136.694    -3000559.775 8  -2318605.67945  23281136.434    23281144.2774
  23454838.949     1621237.665 8   1250243.24745  23454838.903    23454846.0034
  20696297.193      -11241.454 9    -53319.38048  20696296.652    20696302.7594
  21600016.458    -1763675.701 9  -1103851.87447  21600015.950    21600022.5444
  21650447.455    -1695885.390 8  -1312808.31247  21650447.147    21650453.2384
  24354430.105    -1958031.458 7  -1500960.45845  24354429.708    24354437.1224
 99  9 14 16 17  0.0000000  0  7 17 29 26 23 21 03 31
  20880649.636      486830.970 9    373916.80347  20880649.008    20880655.7194
  23261085.852    -3105927.787 8  -2400710.51445  23261085.516    23261093.3444
  23471866.285     1710717.641 8   1319967.86245  23471866.365    23471873.5404
  20700276.292        9668.978 9    -37025.55848  20700275.757    20700281.8824
  21590044.615    -1816077.918 9  -1144684.77047  21590044.173    21590050.7564
  21641561.229    -1742582.742 8  -1349195.86647  21641560.989    21641567.0574
  24335916.039    -2055323.008 7  -1576772.07045  24335915.716    24335922.9654
 99  9 14 16 17 30.0000000  0  7 17 29 26 23 21 03 31
  20888340.141      527245.201 9    405408.36847  20888339.514    20888346.3434
  23241061.253    -3211156.092 8  -2482706.52945  23241061.178    23241068.8544
  23488964.239     1800566.643 8   1389980.01145  23488964.198    23488971.3254
  20704312.484       30879.203 9    -20498.13348  20704311.963    20704318.0544
  21580121.563    -1868223.907 9  -1185318.00847  21580121.133    21580127.7314
  21632777.340    -1788742.748 8  -1385164.69847  21632777.040    21632783.1164
  24317452.068    -2152352.431 7  -1652379.41445  24317451.659    24317458.6454
 99  9 14 16 18  0.0000000  0  7 17 29 26 23 21 03 31
  20896096.890      568006.860 9    437170.65947  20896096.264    20896103.1044
  23221063.577    -3316244.661 8  -2564593.64045  23221063.422    23221071.1194
  23506129.055     1890768.347 8   1460267.01245  23506129.096    23506136.1974
  20708404.647       52383.295 9     -3741.71948  20708404.090    20708410.1704
  21570246.779    -1920116.459 9  -1225753.75547  21570246.309    21570252.8774
  21624093.216    -1834377.977 8  -1420724.62147  21624092.902    21624099.0044
  24299036.819    -2249125.895 7  -1727787.30045  24299036.377    24299043.0734
 99  9 14 16 18 30.0000000  0  7 17 29 26 23 21 03 31
  20903922.701      609131.583 9    469215.85647  20903922.086    20903928.9474
  23201092.107    -3421195.712 8  -2646373.60145  23201091.899    23201099.4364
  23523360.110     1981317.307 8   1530824.58645  23523360.026    23523367.2074
  20712552.918       74182.133 9     13244.36448  20712552.338    20712558.4254
  21560420.167    -1971756.092 9  -1265992.42447  21560419.662    21560426.2094
  21615511.856    -1879472.867 8  -1455863.50247  21615511.623    21615517.7594
  24280669.794    -2345645.214 7  -1802997.14745  24280669.283    24280676.0054
 99  9 14 16 19  0.0000000  0  7 17 29 26 23 21 03 31
  20911816.344      650612.809 9    501538.85347  20911815.761    20911822.6524
  23181148.017    -3526002.553 8  -2728041.19545  23181147.814    23181155.1974
  23540657.950     2072218.537 8   1601656.66745  23540658.011    23540665.2684
  20716756.756       96273.564 9     30458.44848  20716756.208    20716762.3494
  21550644.154    -2023129.199 9  -1306023.40747  21550643.660    21550650.2354
  21607034.087    -1924023.950 8  -1490578.63347  21607033.832    21607039.9244
  24262350.911    -2441911.504 7  -1878009.83345  24262350.454    24262357.0804
 99  9 14 16 19 30.0000000  0  7 17 29 26 23 21 03 31
  20919777.074      692446.415 9    534136.43347  20919776.470    20919783.3474
  23161235.288    -3630644.220 8  -2809580.09345  23161235.200    23161242.4424
  23558020.177     2163458.007 8   1672752.28745  23558020.292    23558027.6004
  20721017.628      118664.313 9     47905.76248  20721017.088    20721023.2604
  21540920.764    -2074225.873 9  -1345838.99547  21540920.281    21540926.8524
  21598657.985    -1968041.301 8  -1524877.87747  21598657.661    21598663.7134
  24244081.797    -2537917.532 7  -1952819.75945  24244081.271    24244087.8944
 99  9 14 16 20  0.0000000  0  7 17 29 26 23 21 03 31
  20927802.658      734620.958 9    566999.67547  20927802.044    20927808.9154
  23141356.449    -3735108.064 8  -2890980.42946  23141356.313    23141363.5314
  23575445.599     2255029.124 8   1744106.35645  23575445.728    23575453.0194
  20725339.537      141375.866 9     65603.05348  20725339.006    20725345.1744
  21531249.565    -2125048.173 9  -1385440.78547  21531249.137    21531255.6814
  21590382.063    -2011531.763 8  -1558766.55747  21590381.760    21590387.8644
  24225865.547    -2633645.658 7  -2027413.09245  24225864.843    24225871.3074
 99  9 14 16 20 30.0000000  0  7 17 29 26 23 21 03 31
  20935891.238      777126.490 9    600120.83347  20935890.624    20935897.4614
  23121513.631    -3839382.495 8  -2972233.16446  23121513.480    23121520.7634
  23592936.516     2346944.186 8   1815728.42545  23592936.680    23592943.8914
  20729722.629      164409.319 9     83551.18148  20729722.102    20729728.3394
  21521632.821    -2175584.625 9  -1424819.83647  21521632.404    21521638.8884
  21582206.279    -2054496.029 8  -1592245.21447  21582206.019    21582212.0614
  24207704.621    -2729082.146 7  -2101779.19245  24207703.886    24207710.3524
 99  9 14 16 21  0.0000000  0  7 17 29 26 23 21 03 31
  20944040.033      819948.248 9    633488.39047  20944039.413    20944046.2754
  23101709.093    -3943455.953 8  -3053329.30146  23101709.049    23101716.2484
  23610493.680     2439206.976 8   1887621.43945  23610493.865    23610501.0364
  20734166.670      187762.752 9    101748.63548  20734166.145    20734172.3904
  21512071.651    -2225829.199 9  -1463971.45047  21512071.173    21512077.6864
  21574126.659    -2096955.121 8  -1625330.23547  21574126.393    21574132.2914
  24189599.951    -2824223.450 7  -2175915.25245  24189599.189    24189605.6594
 99  9 14 16 21 30.0000000  0  7 17 29 26 23 21 03 31
  20952250.166      863092.645 9    667107.36147  20952249.599    20952256.4014
  23081942.220    -4047331.530 8  -3134271.23746  23081942.094    23081949.4014
  23628115.455     2531809.208 8   1959778.96045  23628115.566    23628122.6784
  20738672.052      211438.146 9    120196.97348  20738671.516    20738677.6724
  21502563.367    -2275795.215 9  -1502906.00847  21502562.965    21502569.4864
  21566143.471    -2138907.290 8  -1658020.24547  21566143.180    21566149.0514
  24171549.869    -2919077.934 7  -2249827.82545  24171548.895    24171555.5334
 99  9 14 16 22  0.0000000  0  7 17 29 26 23 21 03 31
  20960521.532      906558.184 9    700976.57647  20960520.893    20960527.6774
  23062213.032    -4151009.265 8  -3215059.02446  23062212.922    23062220.1814
  23645801.328     2624749.638 8   2032200.03145  23645801.532    23645808.6704
  20743238.313      235433.863 9    138894.91648  20743237.785    20743243.9414
  21493107.930    -2325484.311 9  -1541624.78847  21493107.491    21493113.9514
  21558259.816    -2180336.274 8  -1690302.57947  21558259.548    21558265.4244
  24153552.880    -3013651.252 7  -2323521.31945  24153552.104    24153559.0974
 99  9 14 16 22 30.0000000  0  7 17 29 26 23 21 03 31
  20968855.027      950350.838 9    735100.67747  20968854.424    20968861.2104
  23042519.197    -4254500.419 8  -3295701.43446  23042519.146    23042526.3624
  23663550.566     2718021.403 8   2104879.26145  23663550.655    23663557.7634
  20747862.124      259732.103 9    157828.59348  20747861.564    20747867.7494
  21483708.872    -2374877.116 9  -1580112.68547  21483708.398    21483714.8614
  21550480.082    -2221218.953 8  -1722159.21747  21550479.833    21550485.7104
  24135609.677    -3107942.959 7  -2396995.37445  24135609.036    24135616.0234
 99  9 14 16 23  0.0000000  0  7 17 29 26 23 21 03 31
  20977252.525      994479.585 9    769486.67447  20977251.901    20977258.7174
  23022859.334    -4357813.353 8  -3376204.94446  23022859.137    23022866.5124
  23681360.413     2811612.022 8   2177806.95945  23681360.465    23681367.6354
  20752543.323      284331.682 9    176997.07648  20752542.764    20752548.9294
  21474365.804    -2423975.660 9  -1618371.29347  21474365.326    21474371.7114
  21542807.836    -2261537.478 8  -1753576.25847  21542807.545    21542813.4424
  24117722.015    -3201943.272 7  -2470242.35645  24117721.309    24117728.4324
 99  9 14 16 23 30.0000000  0  7 17 29 26 23 21 03 31
  20985716.760     1038959.524 9    804146.32447  20985716.161    20985723.0294
  23003233.434    -4460947.154 8  -3456568.88546  23003233.313    23003240.7624
  23699230.185     2905517.944 7   2250980.34345  23699230.264    23699237.3744
  20757282.232      309234.749 9    196402.04348  20757281.693    20757287.8394
  21465078.552    -2472780.303 9  -1656400.88747  21465078.106    21465084.5294
  21535246.400    -2301273.180 8  -1784539.14647  21535246.059    21535252.0304
  24099891.780    -3295641.556 7  -2543253.97245  24099891.062    24099898.2114
 99  9 14 16 24  0.0000000  0  7 17 29 26 23 21 03 31
  20994247.500     1083788.802 9    839078.19147  20994246.905    20994253.7614
  22983643.875    -4563891.390 8  -3536785.12846  22983643.615    22983651.0184
  23717160.113     2999740.288 8   2324400.29545  23717160.181    23717167.3124
  20762076.816      334430.541 9    216035.11148  20762076.284    20762082.4424
  21455846.261    -2521296.226 9  -1694205.50147  21455845.817    21455852.2794
  21527796.360    -2340422.897 8  -1815045.43347  21527796.097    21527802.1044
  24082120.894    -3389027.064 7  -2616021.87645  24082120.375    24082127.4044
 99  9 14 16 24 30.0000000  0  7 17 29 26 23 21 03 31
  21002846.007     1128974.058 9    874287.43247  21002845.403    21002852.2474
  22964089.746    -4666648.829 8  -3616855.82346  22964089.512    22964096.8814
  23735149.737     3094276.166 8   2398064.55345  23735149.887    23735156.9304
  20766925.141      359908.441 9    235887.99348  20766924.617    20766930.7774
  21446667.938    -2569529.002 9  -1731789.48247  21446667.431    21446673.9374
  21520454.640    -2379004.319 8  -1845108.88447  21520454.349    21520460.3764
  24064409.983    -3482098.933 7  -2688545.39945  24064409.396    24064416.3224
 99  9 14 16 25  0.0000000  0  7 17 29 26 23 21 03 31
  21011511.739     1174512.438 9    909771.84347  21011511.094    21011517.9434
  22944573.347    -4769207.653 8  -3696771.72546  22944573.123    22944580.6414
  23753198.417     3189121.899 7   2471970.25845  23753198.363    23753205.5194
  20771825.693      385660.957 9    255954.87248  20771825.175    20771831.3214
  21437539.504    -2617499.044 9  -1769168.74147  21437539.031    21437545.5084
  21513218.555    -2417030.295 8  -1874739.52147  21513218.269    21513224.3014
  24046755.066    -3574876.332 7  -2760839.44445  24046754.418    24046761.4464
 99  9 14 16 25 30.0000000  0  7 17 29 26 23 21 03 31
  21020241.348     1220386.840 9    945518.07947  21020240.770    21020247.6024
  22925096.452    -4871558.662 8  -3776525.69546  22925096.287    22925103.8534
  23771306.336     3284280.740 8   2546119.93945  23771306.498    23771313.8334
  20776779.031      411691.132 9    276238.11048  20776778.536    20776784.7494
  21428459.497    -2665214.666 9  -1806349.74247  21428459.037    21428465.5374
  21506086.279    -2454510.694 8  -1903945.03147  21506085.986    21506092.0764
  24029154.181    -3667370.876 7  -2832913.10345  24029153.473    24029160.3434
 99  9 14 16 26  0.0000000  0  7 17 29 26 23 21 03 31
  21029032.513     1266584.093 9    981515.90047  21029031.864    21029038.7364
  22905658.841    -4973703.787 8  -3856119.25546  22905658.633    22905666.2564
  23789473.836     3379751.202 8   2620512.45345  23789474.049    23789481.5514
  20781784.335      437994.188 9    296733.97648  20781783.850    20781790.0704
  21419427.620    -2712677.337 9  -1843333.64147  21419427.159    21419433.7004
  21499056.492    -2491452.478 8  -1932730.84647  21499056.223    21499062.3054
  24011606.830    -3759582.140 7  -2904766.01045  24011606.201    24011613.1564
 99  9 14 16 26 30.0000000  0  7 17 29 26 23 21 03 31
  21037885.536     1313107.044 9   1017767.50047  21037884.965    21037891.8634
  22886258.436    -5075652.786 8  -3935559.97046  22886258.374    22886266.0634
  23807701.447     3475537.121 8   2695150.76845  23807701.591    23807709.0074
  20786840.730      464565.210 9    317438.64648  20786840.220    20786846.4274
  21410446.380    -2759874.356 9  -1880110.54347  21410445.887    21410452.4184
  21492128.001    -2527862.092 8  -1961101.98547  21492127.750    21492133.8004
  23994112.491    -3851515.561 7  -2976402.42645  23994111.922    23994118.9604
 99  9 14 16 27  0.0000000  0  7 17 29 26 23 21 03 31
  21046798.523     1359944.684 9   1054264.31947  21046797.915    21046804.8164
  22866895.603    -5177404.654 8  -4014847.07046  22866895.548    22866903.2824
  23825989.699     3571642.427 8   2770037.96045  23825989.871    23825997.2324
  20791950.033      491414.416 9    338360.09048  20791949.503    20791955.7334
  21401514.300    -2806812.618 9  -1916685.80647  21401513.820    21401520.3604
  21485301.662    -2563735.150 8  -1989055.01447  21485301.375    21485307.3994
  23976673.564    -3943159.643 7  -3047813.39645  23976672.704    23976679.5334
 99  9 14 16 27 30.0000000  0  7 17 29 26 23 21 03 31
  21055771.262     1407096.755 9   1091006.14547  21055770.693    21055777.6054
  22847571.572    -5278952.856 8  -4093975.46546  22847571.525    22847579.2074
  23844339.236     3668069.188 8   2845175.63045  23844339.347    23844346.6764
  20797115.174      518557.482 9    359510.51348  20797114.667    20797120.9084
  21392631.774    -2853490.578 9  -1953058.24247  21392631.309    21392637.8374
  21478573.263    -2599093.109 8  -2016606.68647  21478572.983    21478579.0084
  23959292.893    -4034495.359 8  -3118984.04145  23959292.028    23959298.9354
 99  9 14 16 28  0.0000000  0  7 17 29 26 23 21 03 31
  21064806.718     1454578.099 9   1128004.54747  21064806.108    21064813.0244
  22828286.168    -5380298.275 8  -4172945.85946  22828286.086    22828293.6714
  23862746.594     3764799.805 8   2920550.10145  23862746.644    23862753.9534
  20802333.724      545980.607 9    380879.16548  20802333.184    20802339.4004
  21383799.788    -2899902.655 9  -1989223.49147  21383799.384    21383805.9474
  21471944.306    -2633928.186 8  -2043750.91247  21471944.092    21471950.1194
  23941972.182    -4125515.147 7  -3189908.55845  23941971.558    23941978.4564
 99  9 14 16 28 30.0000000  0  7 17 29 26 23 21 03 31
  21073905.236     1502390.778 9   1165261.13547  21073904.609    21073911.5144
  22809039.431    -5481440.226 8  -4251757.68846  22809039.401    22809046.9624
  23881211.663     3861832.962 8   2996160.29445  23881211.671    23881218.9254
  20807607.014      573691.731 9    402472.23048  20807606.454    20807612.6734
  21375018.587    -2946048.513 9  -2025181.30047  21375018.163    21375024.7544
  21465415.754    -2668236.069 8  -2070484.33347  21465415.532    21465421.5684
  23924712.748    -4216213.993 7  -3260582.96245  23924712.157    23924718.9484
 99  9 14 16 29  0.0000000  0  7 17 29 26 23 21 03 31
  21083066.766     1550534.424 9   1202775.61447  21083066.097    21083072.9964
  22789833.730    -5582366.552 8  -4330401.47746  22789833.707    22789841.3034
  23899731.645     3959156.069 8   3071996.42845  23899731.750    23899739.0324
  20812936.956      601700.743 9    424297.41648  20812936.374    20812942.6084
  21366285.844    -2991939.360 9  -2060940.39947  21366285.389    21366292.0164
  21458990.221    -2702002.721 8  -2096796.02247  21458989.940    21458996.0074
  23907516.232    -4306581.758 7  -3330999.38045  23907515.741    23907522.5644
 99  9 14 16 29 30.0000000  0  7 17 29 26 23 21 03 31
  21092292.638     1599016.370 9   1240553.70847  21092291.970    21092298.8764
  22770669.159    -5683076.660 8  -4408876.80646  22770669.184    22770676.7254
  23918304.457     4056757.450 8   3148049.40345  23918304.653    23918312.1064
  20818320.899      629993.533 9    446343.72548  20818320.327    20818326.5694
  21357604.074    -3037562.267 9  -2096490.71447  21357603.669    21357610.2904
  21452671.851    -2735205.763 8  -2122668.52747  21452671.614    21452677.6884
  23890380.899    -4396629.318 7  -3401166.28945  23890380.384    23890386.9774
 99  9 14 16 30  0.0000000  0  7 17 29 26 23 21 03 31
  21101584.815     1647846.987 9   1278603.49547  21101584.187    21101591.0814
  22751543.082    -5783585.441 8  -4487195.26546  22751543.025    22751550.4754
  23936929.435     4154631.746 8   3224315.01745  23936929.518    23936937.0494
  20823757.582      658563.553 9    468606.06048  20823757.023    20823763.2564
  21348975.949    -3082903.549 9  -2131821.58047  21348975.512    21348982.1144
  21446468.571    -2767804.389 8  -2148070.06447  21446468.319    21446474.3844
  23873305.570    -4486360.482 7  -3471086.66245  23873305.025    23873311.7264
 99  9 14 16 30 30.0000000  0  7 17 29 26 23 21 03 31
  21110943.697     1697027.947 9   1316926.27347  21110943.048    21110949.9684
  22732458.388    -5883875.823 8  -4565343.51846  22732458.377    22732465.8694
  23955609.384     4252794.452 7   3300805.37045  23955609.316    23955616.8084
  20829250.398      687428.451 9    491098.17048  20829249.870    20829256.1194
  21340403.084    -3127954.397 9  -2166926.13947  21340402.646    21340409.2234
  21440381.099    -2799794.391 8  -2172997.34047  21440380.823    21440386.9614
  23856289.462    -4575779.507 7  -3540763.81145  23856289.045    23856295.8344
 99  9 14 16 31  0.0000000  0  7 17 29 26 23 21 03 31
  21120371.685     1746572.454 9   1355532.33347  21120371.051    21120378.0324
  22713418.915    -5983928.940 8  -4643306.89546  22713418.838    22713426.2324
  23974342.239     4351236.867 7   3377513.70045  23974342.249    23974349.8304
  20834799.532      716588.865 9    513820.54848  20834798.969    20834805.2204
  21331888.605    -3172698.428 9  -2201791.61247  21331888.151    21331894.7464
  21434411.024    -2831167.337 8  -2197443.80447  21434410.746    21434416.8504
  23839333.351    -4664883.988 7  -3610195.85945  23839333.023    23839339.6024
 99  9 14 16 31 30.0000000  0  8 17 29 26 23 21 09 03 31
  21129872.708     1796500.342 8   1394437.13347  21129872.064    21129879.0234
  22694429.604    -6083718.340 8  -4721064.79646  22694429.544    22694436.8914
  23993132.394     4449979.095 7   3454455.62545  23993132.370    23993139.8814
  20840408.330      746063.583 9    536787.84348  20840407.766    20840414.1144
  21323439.178    -3217100.442 9  -2236390.59147  21323438.731    21323445.3034
  24445712.999    -4135286.658 8  -3207258.86345  24445712.624    24445723.1014
  21428561.636    -2861906.304 8  -2221396.25547  21428561.356    21428567.4334
  23822442.038    -4753647.635 7  -3679362.33345  23822441.767    23822448.3984
 99  9 14 16 32  0.0000000  0  8 17 29 26 23 21 09 03 31
  21139438.870     1846770.690 9   1433608.78447  21139438.231    21139445.1494
  22675486.000    -6183266.954 8  -4798635.05546  22675485.967    22675493.2154
  24011971.766     4548980.357 7   3531599.37045  24011971.667    24011979.2394
  20846070.529      775818.873 9    559973.76048  20846070.026    20846076.3994
  21315046.833    -3261202.657 9  -2270755.95047  21315046.400    21315052.9554
  24434069.309    -4196474.321 7  -3254937.49245  24434068.867    24434079.3294
  21422823.047    -2892063.050 8  -2244895.03047  21422822.738    21422828.8454
  23805614.099    -4842080.207 7  -3748270.78845  23805613.676    23805620.3784
 99  9 14 16 32 30.0000000  0  8 17 29 26 23 21 09 03 31
  21149069.653     1897380.258 9   1473044.75947  21149069.004    21149075.9454
  22656592.445    -6282553.247 8  -4876000.93046  22656592.368    22656599.5344
  24030860.830     4648242.154 7   3608946.15345  24030860.562    24030868.0874
  20851785.067      805848.781 9    583373.66948  20851784.560    20851790.8874
  21306708.058    -3305023.161 9  -2304901.79547  21306707.623    21306714.1954
  24422486.443    -4257342.363 7  -3302367.13845  24422486.084    24422496.3554
  21417191.717    -2921656.038 8  -2267954.51247  21417191.447    21417197.4464
  23788852.851    -4930161.041 7  -3816905.19745  23788852.380    23788859.1464
 99  9 14 16 33  0.0000000  0  8 17 29 26 23 21 09 03 31
  21158763.181     1948319.756 9   1512737.84047  21158762.523    21158769.4034
  22637746.861    -6381587.035 8  -4953170.02246  22637746.794    22637754.0304
  24049796.888     4747750.979 7   3686485.44245  24049796.612    24049804.0964
  20857549.163      836139.301 9    606976.65148  20857548.669    20857555.0064
  21298420.643    -3348573.844 9  -2338837.38947  21298420.181    21298426.7894
  24410963.457    -4317896.031 8  -3349551.83845  24410963.093    24410973.1824
  21411667.011    -2950688.988 8  -2290577.59847  21411666.692    21411672.6824
  23772161.757    -5017873.309 7  -3885252.41645  23772161.225    23772168.1094
 99  9 14 16 33 30.0000000  0  8 17 29 26 23 21 09 03 31
  21168518.039     1999581.781 8   1552682.21547  21168517.390    21168524.3484
  22618947.121    -6480380.513 8  -5030151.87346  22618946.999    22618954.2724
  24068781.619     4847516.294 7   3764224.60645  24068781.489    24068788.8314
  20863361.988      866685.735 9    630779.04948  20863361.495    20863367.8344
  21290181.237    -3391872.572 9  -2372576.66147  21290180.765    21290187.3344
  24399499.085    -4378141.767 8  -3396496.53845  24399498.599    24399508.3114
  21406248.118    -2979165.548 8  -2312767.13047  21406247.803    21406253.7684
  23755541.476    -5105213.672 7  -3953309.81645  23755541.031    23755547.8944
 99  9 14 16 34  0.0000000  0  8 17 29 26 23 21 09 03 31
  21178334.589     2051168.316 8   1592879.47147  21178333.945    21178340.9404
  22600191.674    -6578940.453 8  -5106951.75246  22600191.523    22600198.8904
  24087815.698     4947541.770 7   3842166.44145  24087815.712    24087823.1404
  20869223.046      897485.324 9    654778.71348  20869222.508    20869228.7894
  21281986.103    -3434937.996 9  -2406134.13047  21281985.658    21281992.2334
  24388093.199    -4438079.008 7  -3443200.89345  24388092.845    24388102.8454
  21400934.025    -3007091.396 8  -2334527.54447  21400933.692    21400939.7264
  23738991.147    -5192186.067 8  -4021080.52145  23738990.778    23738997.5914
 99  9 14 16 34 30.0000000  0  8 17 29 26 23 21 09 03 31
  21188212.262     2103075.839 8   1633326.83547  21188211.696    21188218.7164
  22581479.331    -6677274.025 8  -5183575.23946  22581479.157    22581486.5864
  24106900.825     5047834.030 7   3920316.20445  24106900.790    24106908.1134
  20875133.086      928542.702 9    678979.24848  20875132.567    20875138.8344
  21273835.683    -3477769.240 9  -2439509.12447  21273835.200    21273841.7594
  24376748.458    -4497696.011 8  -3489655.66645  24376748.078    24376758.1244
  21395723.548    -3034472.624 8  -2355863.57347  21395723.209    21395729.2764
  23722506.573    -5278814.174 8  -4088582.92845  23722506.001    23722512.7644
 99  9 14 16 35  0.0000000  0  8 17 29 26 23 21 09 03 31
  21198151.634     2155307.481 8   1674026.76347  21198151.065    21198158.1494
  22562809.013    -6775387.340 8  -5260027.11246  22562808.833    22562816.2844
  24126037.252     5148396.299 7   3998676.41045  24126037.272    24126044.3214
  20881094.702      959871.525 9    703391.29647  20881094.199    20881100.5094
  21265734.938    -3520338.916 9  -2472680.30347  21265734.448    21265740.9894
  24365468.389    -4556972.666 7  -3535845.20045  24365468.197    24365478.3254
  21390617.752    -3061303.744 8  -2376770.94947  21390617.444    21390623.5044
  23706085.449    -5365106.634 7  -4155823.77145  23706084.909    23706091.8134
 99  9 14 16 35 30.0000000  0  8 17 29 26 23 21 09 03 31
  21208155.234     2207876.527 8   1714989.60547  21208154.650    21208161.7724
  22544182.615    -6873268.904 8  -5336298.41146  22544182.597    22544189.8424
  24145226.801     5249236.940 7   4077253.45345  24145226.528    24145233.6894
  20887107.632      991469.380 9    728012.98747  20887107.117    20887113.4264
  21257685.499    -3562639.044 9  -2505641.44147  21257685.061    21257691.5654
  24354257.279    -4615887.626 7  -3581752.99245  24354257.098    24354267.2584
  21385618.251    -3087576.195 9  -2397242.99947  21385617.975    21385624.0294
  23689727.995    -5451066.832 8  -4222805.74045  23689727.353    23689734.1474
 99  9 14 16 36  0.0000000  0  8 17 29 26 23 21 09 03 31
  21218222.211     2260778.285 8   1756211.70547  21218221.601    21218228.7714
  22525603.724    -6970901.999 8  -5412376.10546  22525603.639    22525610.8084
  24164467.741     5350348.868 7   4156041.90745  24164467.648    24164474.8074
  20893171.395     1023334.345 9    752842.81747  20893170.839    20893177.1374
  21249689.625    -3604658.126 9  -2538383.58447  21249689.126    21249695.5914
  24343115.326    -4674439.299 7  -3627377.63645  24343115.023    24343125.2264
  21380727.072    -3113279.762 9  -2417271.75347  21380726.761    21380732.7944
  23673433.005    -5536697.394 8  -4289530.83345  23673432.384    23673439.1684
 99  9 14 16 36 30.0000000  0  8 17 29 26 23 21 09 03 31
  21228352.479     2314013.135 8   1797693.35347  21228351.888    21228359.0914
  22507073.344    -7068279.663 8  -5488254.75646  22507073.307    22507080.4654
  24183759.082     5451725.058 7   4235036.29345  24183758.982    24183766.1254
  20899285.313     1055463.361 9    777878.39547  20899284.756    20899291.1034
  21241749.695    -3646382.468 9  -2570896.05947  21241749.243    21241755.7304
  24332039.920    -4732640.622 7  -3672729.27845  24332039.609    24332049.8864
  21375946.642    -3138401.402 9  -2436847.06447  21375946.310    21375952.2524
  23657200.474    -5622000.588 7  -4356000.83445  23657199.672    23657206.4564
 99  9 14 16 37  0.0000000  0  8 17 29 26 23 21 09 03 31
  21238548.161     2367591.489 8   1839442.66547  21238547.560    21238554.7604
  22488594.242    -7165387.787 8  -5563923.38346  22488594.181    22488601.3594
  24203099.161     5553357.593 7   4314230.46145  24203099.073    24203106.0614
  20905447.115     1087843.912 9    803109.97147  20905446.600    20905452.9634
  21233863.971    -3687822.229 9  -2603186.78247  21233863.512    21233870.0074
  24321030.586    -4790494.771 7  -3717810.42845  24321030.341    24321040.6854
  21371281.154    -3162918.815 8  -2455951.54747  21371280.830    21371286.7474
  23641032.573    -5706962.461 7  -4422204.87245  23641031.914    23641038.7344
 99  9 14 16 37 30.0000000  0  8 17 29 26 23 21 09 03 31
  21248806.415     2421498.595 8   1881448.15547  21248805.778    21248812.9374
  22470168.606    -7262214.259 8  -5639372.53346  22470168.586    22470175.8694
  24222484.942     5655229.309 7   4393610.95345  24222484.722    24222491.6884
  20911654.602     1120464.133 9    828528.30447  20911654.093    20911660.3924
  21226027.368    -3729003.562 9  -2635276.13747  21226026.957    21226033.4784
  24310083.695    -4848020.406 7  -3762635.56645  24310083.391    24310093.7404
  21366730.195    -3186833.934 9  -2474586.71547  21366729.951    21366735.9164
  23624931.806    -5791573.777 7  -4488135.73445  23624931.031    23624937.7314
 99  9 14 16 38  0.0000000  0  8 17 29 26 23 21 09 03 31
  21259125.678     2475726.663 8   1923703.73147  21259125.084    21259132.3124
  22451795.758    -7358763.829 8  -5714605.92146  22451795.795    22451803.0804
  24241914.048     5757330.149 7   4473169.92545  24241913.783    24241920.8964
  20917910.422     1153338.228 9    854144.46347  20917909.902    20917916.1744
  21218240.228    -3769925.438 9  -2667163.32047  21218239.818    21218246.2924
  24299196.294    -4905233.952 7  -3807217.53545  24299196.016    24299206.4464
  21362291.983    -3210157.458 9  -2492760.89947  21362291.683    21362297.6474
  23608899.212    -5875824.410 7  -4553785.57145  23608898.610    23608905.3314
 99  9 14 16 38 30.0000000  0  8 17 29 26 23 21 09 03 31
  21269508.548     2530288.569 8   1966219.45947  21269507.936    21269515.2054
  22433474.244    -7455044.033 8  -5789629.43046  22433474.239    22433481.4684
  24261385.174     5859651.861 7   4552901.05145  24261384.882    24261392.1904
  20924214.422     1186466.002 9    879958.29747  20924213.888    20924220.1544
  21210502.503    -3810587.512 9  -2698848.05247  21210502.075    21210508.5514
  24288371.083    -4962121.463 7  -3851545.42845  24288370.781    24288381.1884
  21357964.386    -3232899.087 8  -2510481.65847  21357964.079    21357970.0394
  23592940.366    -5959689.141 8  -4619134.70645  23592939.668    23592946.4344
 99  9 14 16 39  0.0000000  0  8 17 29 26 23 21 09 03 31
  21279953.186     2585175.319 8   2008988.30147  21279952.595    21279959.9234
  22415202.658    -7551061.730 8  -5864448.37146  22415202.638    22415209.8314
  24280896.688     5962186.509 7   4632798.10745  24280896.565    24280904.0424
  20930567.733     1219852.762 9    905973.93947  20930567.210    20930573.4904
  21202813.724    -3850992.360 9  -2730332.34947  21202813.298    21202819.7764
  24277613.412    -5018652.101 7  -3895595.24045  24277613.239    24277623.4384
  21353745.871    -3255067.226 9  -2527755.54147  21353745.639    21353751.6294
  23577057.358    -6043153.686 7  -4684172.00145  23577056.913    23577063.6704
 99  9 14 16 39 30.0000000  0  8 17 29 26 23 21 09 03 31
  21290458.417     2640380.314 8   2052005.12947  21290457.793    21290465.1044
  22396977.920    -7646833.667 8  -5939075.82346  22396977.834    22396984.9434
  24300447.497     6064927.288 7   4712855.76245  24300447.420    24300455.1284
  20936972.741     1253511.133 9    932201.22147  20936972.216    20936978.5314
  21195176.044    -3891129.018 9  -2761607.67247  21195175.595    21195182.0674
  24266926.975    -5074809.658 7  -3939354.33645  24266926.816    24266937.0684
  21349635.195    -3276669.391 9  -2544588.40447  21349634.895    21349640.8994
  23561252.308    -6126209.356 7  -4748890.69245  23561251.945    23561258.6094
 99  9 14 16 40  0.0000000  0  8 17 29 26 23 21 09 03 31
  21301028.594     2695926.785 8   2095288.03647  21301028.005    21301035.2734
  22378797.257    -7742374.039 8  -6013522.83346  22378797.111    22378804.1694
  24320041.443     6167893.964 7   4793089.44645  24320041.465    24320049.1084
  20943430.651     1287447.453 9    958645.09347  20943430.115    20943436.4394
  21187591.200    -3930987.580 9  -2792666.28647  21187590.736    21187597.2394
  24256315.317    -5130574.621 7  -3982807.52945  24256315.053    24256325.5904
  21345634.267    -3297694.399 9  -2560971.53847  21345633.985    21345640.0224
  23545525.232    -6208856.317 7  -4813290.91345  23545524.673    23545531.3774
 99  9 14 16 40 30.0000000  0  8 17 29 26 23 21 09 03 31
  21311665.371     2751822.640 8   2138843.19247  21311664.701    21311671.9054
  22360661.599    -7837677.371 8  -6087785.14546  22360661.416    22360668.3974
  24339680.102     6271094.587 7   4873505.41845  24339679.980    24339687.6024
  20949938.338     1321645.388 9    985292.81447  20949937.800    20949944.1254
  21180058.928    -3970569.711 9  -2823509.51347  21180058.491    21180064.9964
  24245780.786    -5185933.751 7  -4025944.39945  24245780.444    24245790.9434
  21341744.804    -3318133.630 8  -2576898.21547  21341744.508    21341750.5704
  23529875.495    -6291095.504 7  -4877373.38845  23529875.046    23529881.6974
 99  9 14 16 41  0.0000000  0  8 17 29 26 23 21 09 03 31
  21322366.708     2808057.782 8   2182662.73447  21322365.963    21322373.1054
  22342573.370    -7932730.854 8  -6161852.76046  22342573.279    22342580.2664
  24359364.361     6374535.730 7   4954108.81345  24359364.303    24359371.8624
  20956496.562     1356108.937 9   1012147.50747  20956496.010    20956502.3524
  21172579.373    -4009875.087 9  -2854137.08247  21172578.928    21172585.3894
  24235321.189    -5240901.018 7  -4068776.03945  24235320.696    24235331.2364
  21337967.872    -3337981.592 9  -2592364.17747  21337967.563    21337973.6134
  23514300.675    -6372941.820 7  -4941149.70745  23514300.199    23514306.8404
 99  9 14 16 41 30.0000000  0  8 17 29 26 23 21 09 03 31
  21333134.320     2864641.835 8   2226754.14947  21333133.599    21333140.7684
  22324535.362    -8027521.208 8  -6235715.33646  22324535.236    22324542.3064
  24379096.294     6478226.447 7   5034906.68945  24379096.133    24379103.6584
  20963104.043     1390831.319 9   1039203.89447  20963103.475    20963109.8254
  21165153.315    -4048899.441 9  -2884545.67247  21165152.870    21165159.3374
  24224931.870    -5295496.176 7  -4111317.60745  24224931.399    24224942.1084
  21334303.665    -3357237.050 9  -2607368.43947  21334303.359    21334309.4384
  23498799.059    -6454402.090 7  -5004625.23045  23498798.810    23498805.4434
 99  9 14 16 42  0.0000000  0  8 17 29 26 23 21 09 03 31
  21343968.832     2921577.746 8   2271119.73347  21343968.158    21343975.3764
  22306551.832    -8122025.277 8  -6309354.82946  22306551.665    22306558.7664
  24398875.577     6582166.853 7   5115899.09045  24398875.489    24398882.9284
  20969759.133     1425804.023 9   1066455.32747  20969758.578    20969764.9344
  21157781.067    -4087640.952 9  -2914733.86447  21157780.603    21157787.0774
  24214610.891    -5349732.745 7  -4153579.79045  24214610.624    24214621.1444
  21330752.039    -3375900.774 9  -2621911.61547  21330751.748    21330757.8384
  23483369.211    -6535486.343 8  -5067807.74645  23483369.012    23483375.8184
 99  9 14 16 42 30.0000000  0  8 17 29 26 23 21 09 03 31
  21354866.578     2978845.721 8   2315744.07347  21354865.934    21354873.1484
  22288626.712    -8216222.049 8  -6382754.87146  22288626.655    22288633.6664
  24418696.925     6686328.809 7   5197064.19045  24418697.018    24418704.3554
  20976461.618     1461025.674 9   1093900.75047  20976461.058    20976467.4374
  21150463.564    -4126094.729 9  -2944697.85047  21150463.129    21150469.5934
  24204358.653    -5403609.399 7  -4195561.56545  24204358.361    24204368.8894
  21327313.809    -3393969.053 9  -2635990.79847  21327313.498    21327319.5754
  23468010.612    -6616197.133 8  -5130699.25545  23468010.354    23468017.1254
 99  9 14 16 43  0.0000000  0  8 17 29 26 23 21 09 03 31
  21365827.690     3036446.361 8   2360627.63247  21365827.046    21365834.2104
  22270761.439    -8310104.775 8  -6455910.20346  22270761.363    22270768.3824
  24438559.003     6790704.956 7   5278396.17345  24438559.147    24438566.6144
  20983214.022     1496509.793 9   1121550.69347  20983213.473    20983219.8394
  21143200.554    -4164262.286 9  -2974438.80747  21143200.087    21143206.5354
  24194176.084    -5457119.730 8  -4237257.85945  24194175.631    24194186.1274
  21323990.283    -3411434.316 9  -2649600.11247  21323990.009    21323996.0714
  23452722.031    -6696539.697 8  -5193303.83245  23452721.659    23452728.4394
 99  9 14 16 43 30.0000000  0  8 17 29 26 23 21 09 03 31
  21376854.472     3094392.067 8   2405780.07047  21376853.812    21376861.0144
  22252955.537    -8403675.317 8  -6528822.28146  22252955.430    22252962.4664
  24458461.650     6895293.560 7   5359893.71645  24458461.619    24458469.0234
  20990015.878     1532253.621 9   1149403.00547  20990015.305    20990021.6624
  21135991.704    -4202145.414 9  -3003958.12847  21135991.218    21135997.6704
  24184068.911    -5510233.531 8  -4278645.16745  24184068.517    24184078.8844
  21320783.930    -3428283.974 9  -2662729.72147  21320783.659    21320789.6954
  23437505.706    -6776502.079 8  -5255612.17345  23437505.333    23437512.1644
 99  9 14 16 44  0.0000000  0  8 17 29 26 23 21 09 03 31
  21387943.526     3152665.101 8   2451187.57647  21387942.865    21387950.0334
  22235208.924    -8496933.852 8  -6601491.22746  22235208.925    22235215.9664
  24478401.859     7000080.986 7   5441546.20545  24478401.935    24478409.5894
  20996865.592     1568248.877 9   1177451.23547  20996864.993    20996871.3614
  21128834.509    -4239756.558 9  -3033265.51747  21128834.062    21128840.5474
  24174039.787    -5562936.683 8  -4319712.49345  24174039.292    24174049.9364
  21317694.938    -3444516.641 9  -2675378.56447  21317694.687    21317700.7704
  23422363.325    -6856076.118 8  -5317617.90445  23422362.905    23422369.8084
 99  9 14 16 44 30.0000000  0  8 17 29 26 23 21 09 03 31
  21399094.109     3211261.618 8   2496847.13247  21399093.456    21399100.6784
  22217519.237    -8589894.189 8  -6673927.81446  22217519.132    22217526.1854
  24498379.952     7105065.818 8   5523352.47445  24498380.034    24498387.7144
  21003760.388     1604481.435 9   1205684.37147  21003759.840    21003766.2054
  21121729.042    -4277096.180 9  -3062361.32847  21121728.552    21121735.0944
  24164090.307    -5615220.948 8  -4360453.40645  24164089.868    24164100.6014
  21314721.401    -3460142.811 9  -2687554.81147  21314721.135    21314727.2094
  23407295.045    -6935260.674 8  -5379320.14245  23407294.567    23407301.5364
 99  9 14 16 45  0.0000000  0  8 17 29 26 23 21 09 03 31
  21410308.112     3270191.348 8   2542766.34947  21410307.442    21410314.6484
  22199883.359    -8682571.385 8  -6746143.76946  22199883.280    22199890.3244
  24518397.986     7210258.259 8   5605320.54245  24518397.786    24518405.3684
  21010697.705     1640937.026 9   1234091.30547  21010697.147    21010703.5204
  21114674.357    -4314168.520 9  -3091248.86747  21114673.885    21114680.4664
  24154219.710    -5667091.467 8  -4400871.90745  24154219.362    24154229.6314
  21311859.431    -3475182.352 9  -2699273.93647  21311859.177    21311865.2664
  23392301.581    -7014051.973 8  -5440715.93745  23392301.157    23392307.9964
 99  9 14 16 45 30.0000000  0  8 17 29 26 23 21 09 03 31
  21421583.215     3329442.459 8   2588935.98847  21421582.567    21421589.7894
  22182301.051    -8774966.863 8  -6818140.19446  22182300.993    22182308.0824
  24538451.494     7315639.458 8   5687435.66645  24538451.354    24538458.9304
  21017673.947     1677597.629 9   1262657.98447  21017673.437    21017679.8194
  21107671.071    -4350970.845 9  -3119926.00747  21107670.614    21107677.1824
  24144426.186    -5718556.986 8  -4440974.84845  24144425.782    24144436.1834
  21309107.714    -3489642.902 9  -2710541.91147  21309107.432    21309113.5554
  23377384.582    -7092441.438 8  -5501798.63045  23377384.093    23377390.8434
 99  9 14 16 46  0.0000000  0  8 17 29 26 23 21 09 03 31
  21432919.841     3389016.428 8   2635357.19647  21432919.179    21432926.4334
  22164772.933    -8867077.965 8  -6889915.03546  22164772.837    22164779.8594
  24558539.260     7421201.725 8   5769691.90745  24558539.237    24558546.6394
  21024689.365     1714463.774 9   1291384.82747  21024688.851    21024695.2464
  21100719.467    -4387501.787 9  -3148391.67847  21100719.016    21100725.5704
  24134705.340    -5769639.991 8  -4480779.71945  24134704.952    24134715.2444
  21306464.653    -3503532.468 9  -2721364.95647  21306464.352    21306470.5014
  23362542.831    -7170436.208 8  -5562573.74645  23362542.238    23362548.8214
 99  9 14 16 46 30.0000000  0  7 17 29 23 21 09 03 31
  21444321.920     3448934.550 8   2682046.58447  21444321.305    21444328.5074
  22147297.974    -8958909.632 8  -6961472.14446  22147297.805    22147304.7554
  21031745.022     1751541.289 9   1320276.36847  21031744.486    21031750.8694
  21093820.120    -4423757.993 9  -3176643.26947  21093819.702    21093826.2684
  24125056.310    -5820345.413 8  -4520290.37345  24125055.982    24125066.0204
  21303929.229    -3516855.989 9  -2731746.93847  21303928.947    21303935.0894
  23347775.834    -7248036.584 8  -5623041.56445  23347775.391    23347781.9484
 99  9 14 16 47  0.0000000  0  7 17 29 23 21 09 03 31
  21455791.716     3509208.512 8   2729013.24047  21455791.095    21455798.3044
  22129879.610    -9050443.473 8  -7032797.17246  22129879.503    22129886.4094
  21038845.221     1788852.809 9   1349350.25647  21038844.671    21038851.0694
  21086972.752    -4459741.362 9  -3204682.25947  21086972.333    21086978.8984
  24115482.849    -5870653.477 8  -4559491.40645  24115482.549    24115492.8214
  21301506.383    -3529588.402 9  -2741668.30847  21301506.074    21301512.2184
  23333087.718    -7325223.139 8  -5683186.91845  23333087.190    23333093.8144
 99  9 14 16 47 30.0000000  0  7 17 29 23 21 09 03 31
  21467328.005     3569831.771 8   2776252.08447  21467327.358    21467334.5894
  22112518.935    -9141673.922 8  -7103885.78246  22112518.902    22112525.8384
  21045991.447     1826406.613 9   1378612.93847  21045990.914    21045997.3274
  21080176.526    -4495455.849 9  -3232511.73247  21080176.118    21080182.6404
  24105985.657    -5920561.613 8  -4598380.80545  24105985.244    24105995.4494
  21299198.687    -3541715.508 9  -2751118.01447  21299198.382    21299204.5184
  23318478.395    -7401996.510 8  -5743010.31445  23318477.803    23318484.1854
 99  9 14 16 48  0.0000000  0  7 17 29 23 21 09 03 31
  21478932.334     3630812.719 8   2823769.64447  21478931.705    21478938.9844
  22095217.300    -9232594.755 8  -7174733.14746  22095217.240    22095224.1384
  21053185.094     1864209.492 9   1408069.70147  21053184.593    21053190.9844
  21073429.985    -4530909.186 9  -3260137.70447  21073429.548    21073436.0644
  24096567.151    -5970056.272 8  -4636947.98645  24096566.694    24096576.9474
  21297003.912    -3553249.491 9  -2760105.54647  21297003.571    21297009.7084
  23303948.761    -7478350.415 8  -5802506.86045  23303948.113    23303954.4524
 99  9 14 16 48 30.0000000  0  7 17 29 23 21 09 03 31
  21490601.236     3692132.907 8   2871551.54647  21490600.577    21490607.8194
  22077973.884    -9323208.747 8  -7245341.40446  22077973.827    22077980.8954
  21060425.108     1902255.833 9   1437716.17547  21060424.611    21060430.9594
  21066732.474    -4566104.996 9  -3287563.01847  21066732.015    21066738.4984
  24087229.333    -6019126.495 8  -4675184.48345  24087228.968    24087239.0624
  21294921.611    -3564191.782 9  -2768632.02447  21294921.323    21294927.4604
  23289499.393    -7554282.190 8  -5861674.46845  23289498.636    23289505.1424
 99  9 14 16 49  0.0000000  0  7 17 29 23 21 09 03 31
  21502330.954     3753773.212 8   2919582.88347  21502330.366    21502337.6194
  22060790.538    -9413507.779 8  -7315704.24146  22060790.433    22060797.4824
  21067711.271     1940544.711 9   1467551.64347  21067710.777    21067717.1494
  21060083.079    -4601047.840 9  -3314791.20847  21060082.628    21060089.0944
  24077971.802    -6067775.019 8  -4713092.35445  24077971.437    24077981.4404
  21292952.862    -3574537.781 9  -2776693.85347  21292952.586    21292958.6534
  23275128.391    -7629801.461 8  -5920520.64645  23275127.784    23275134.3604
 99  9 14 16 49 30.0000000  0  7 17 29 23 21 09 03 31
  21514120.437     3815726.950 8   2967858.45947  21514119.835    21514127.1514
  22043669.486    -9503479.287 8  -7385811.87046  22043669.365    22043676.4124
  21075043.914     1979077.836 9   1497577.42847  21075043.391    21075049.7964
  21053483.843    -4635727.204 9  -3341814.09247  21053483.397    21053489.8284
  24068793.565    -6116006.963 8  -4750675.59845  24068793.221    24068803.0054
  21291096.995    -3584290.627 9  -2784293.48347  21291096.641    21291102.7604
  23260837.822    -7704898.567 8  -5979037.86645  23260837.258    23260843.8674
 99  9 14 16 50  0.0000000  0  7 17 29 23 21 09 03 31
  21525967.537     3877983.513 8   3016370.01347  21525966.913    21525974.2254
  22026611.680    -9593118.475 8  -7455660.53746  22026611.545    22026618.5644
  21082421.446     2017846.888 9   1527787.04847  21082420.914    21082427.3284
  21046933.366    -4670150.384 9  -3368637.35147  21046932.921    21046939.3244
  24059695.260    -6163817.894 8  -4787930.80845  24059694.830    24059704.7334
  21289353.455    -3593452.979 9  -2791432.99047  21289353.118    21289359.2704
  23246628.932    -7779566.836 8  -6037220.92545  23246628.284    23246635.0004
 99  9 14 16 50 30.0000000  0  7 17 29 23 21 09 03 31
  21537869.971     3940531.077 8   3065108.29647  21537869.333    21537876.7424
  22009616.112    -9682430.950 8  -7525254.64546  22009615.990    22009622.9474
  21089843.831     2056851.245 9   1558180.02547  21089843.265    21089849.6684
  21040432.913    -4704310.844 9  -3395255.89947  21040432.422    21040438.8424
  24050676.606    -6211210.837 8  -4824860.29445  24050676.383    24050686.0384
  21287725.741    -3602006.466 9  -2798098.06347  21287725.454    21287731.6244
  23232499.673    -7853816.701 8  -6095077.94745  23232499.095    23232505.7124
 99  9 14 16 51  0.0000000  0  7 17 29 23 21 09 03 31
  21549829.775     4003379.945 8   3114081.37347  21549829.143    21549836.5854
  21992684.160    -9771408.084 8  -7594587.42946  21992684.122    21992691.1224
  21097310.690     2096089.558 9   1588755.31347  21097310.086    21097316.4964
  21033983.820    -4738200.856 9  -3421663.70047  21033983.336    21033989.7864
  24041739.099    -6258177.874 8  -4861457.91945  24041738.840    24041748.2964
  21286213.968    -3609951.237 9  -2804288.80647  21286213.671    21286219.8094
  23218451.955    -7927638.186 8  -6152601.15645  23218451.331    23218457.9654
 99  9 14 16 51 30.0000000  0  7 17 29 23 21 09 03 31
  21561847.703     4066534.217 8   3163292.43347  21561847.044    21561854.5014
  21975813.979    -9860061.422 8  -7663667.90146  21975813.931    21975820.9464
  21104819.928     2135550.873 9   1619504.36647  21104819.338    21104825.7914
  21027586.049    -4771821.346 9  -3447861.48647  21027585.546    21027592.0104
  24032883.916    -6304712.114 8  -4897718.24645  24032883.572    24032893.2914
  21284816.249    -3617296.545 9  -2810012.43347  21284815.879    21284822.0534
  23204488.936    -8001014.697 8  -6209777.65545  23204488.357    23204494.8554
 99  9 14 16 52  0.0000000  0  7 17 29 23 21 09 03 31
  21573926.322     4130007.582 8   3212752.12547  21573925.682    21573933.2364
  21959002.104    -9948408.607 8  -7732509.83146  21959002.039    21959008.9274
  21112370.049     2175227.283 9   1650421.02147  21112369.521    21112375.9894
  21021238.591    -4805177.626 9  -3473853.40247  21021238.080    21021244.5054
  24024110.998    -6350813.842 8  -4933641.61345  24024110.665    24024120.3884
  21283530.443    -3624053.567 9  -2815277.66547  21283530.119    21283536.2854
  23190608.170    -8073958.497 8  -6266616.97346  23190607.706    23190614.1934
 99  9 14 16 52 30.0000000  0  7 17 29 23 21 09 03 31
  21586068.800     4193816.553 8   3262473.32947  21586068.146    21586075.7894
  21942249.083   -10036446.712 8  -7801110.91047  21942248.987    21942255.7614
  21119964.336     2215135.305 9   1681518.15347  21119963.783    21119970.2674
  21014944.047    -4838255.874 9  -3499628.66247  21014943.507    21014949.9504
  24015418.669    -6396491.316 8  -4969234.36745  24015418.352    24015428.0744
  21282358.110    -3630214.188 9  -2820078.15847  21282357.761    21282363.9514
  23176811.144    -8146462.338 8  -6323113.46746  23176810.758    23176817.2294
 99  9 14 16 53  0.0000000  0  7 17 29 23 21 09 03 31
  21598277.899     4257975.572 8   3312467.29847  21598277.224    21598284.8384
  21925555.000   -10124175.249 8  -7869470.77047  21925554.854    21925561.5374
  21127602.884     2255276.250 9   1712796.79247  21127602.385    21127608.8954
  21008702.548    -4871055.001 9  -3525186.43047  21008702.038    21008708.4974
  24006806.912    -6441746.344 7  -5004497.95345  24006806.624    24006816.0124
  21281298.816    -3635780.691 9  -2824415.70847  21281298.533    21281304.6594
  23163102.812    -8218500.940 8  -6379247.42546  23163102.278    23163108.7404
 99  9 14 16 53 30.0000000  0  7 17 29 23 21 09 03 31
  21610554.105     4322487.355 8   3362736.15147  21610553.475    21610561.1274
  21908919.899   -10211592.821 8  -7937588.31547  21908919.801    21908926.5264
  21135287.578     2295659.532 9   1744264.25747  21135287.065    21135293.6024
  21002514.467    -4903573.712 9  -3550525.69347  21002513.962    21002520.4274
  23998273.959    -6486586.173 8  -5039438.00445  23998273.641    23998283.3794
  21280354.267    -3640744.863 9  -2828283.91147  21280353.927    21280360.0914
  23149482.683    -8290074.855 8  -6435019.32045  23149482.197    23149488.5524
 99  9 14 16 54  0.0000000  0  7 17 29 23 21 09 03 31
  21622898.632     4387357.834 8   3413284.50647  21622897.989    21622905.6764
  21892346.554   -10298686.317 8  -8005453.33047  21892346.414    21892353.2064
  21143020.640     2336296.646 9   1775929.51747  21143020.082    21143026.6344
  20996382.121    -4935799.433 9  -3575636.64847  20996381.597    20996388.0464
  23989822.197    -6531000.036 7  -5074046.10745  23989821.872    23989831.5344
  21279529.248    -3645080.543 9  -2831662.37647  21279528.918    21279535.0404
  23135950.239    -8361187.944 8  -6490432.11145  23135949.715    23135956.2134
 99  9 14 16 54 30.0000000  0  7 17 29 23 21 09 03 31
  21635310.386     4452581.823 8   3464108.32347  21635309.746    21635317.4534
  21875838.023   -10385438.410 8  -8073052.32147  21875837.953    21875844.8224
  21150803.784     2377197.135 9   1807800.00147  21150803.214    21150809.7384
  20990308.217    -4967718.021 9  -3600508.27647  20990307.712    20990314.1344
  23981455.432    -6574966.822 7  -5108305.86545  23981455.135    23981464.8214
  21278825.063    -3648781.237 9  -2834546.04647  21278824.726    21278830.8234
  23122508.367    -8431824.799 8  -6545473.81045  23122508.001    23122514.4284
 99  9 14 16 55  0.0000000  0  7 17 29 23 21 09 03 31
  21647789.862     4518161.573 8   3515209.35947  21647789.247    21647796.8444
  21859396.909   -10471836.644 8  -8140375.56947  21859396.854    21859403.7144
  21158634.298     2418346.712 9   1839864.58647  21158633.733    21158640.2854
  20984290.877    -4999339.439 9  -3625148.34547  20984290.348    20984296.7794
  23973178.063    -6618463.106 8  -5142198.99945  23973177.924    23973187.8104
  21278239.736    -3651857.159 9  -2836942.87947  21278239.451    21278245.5354
  23109155.771    -8501993.003 8  -6600150.34845  23109155.495    23109161.9144
 99  9 14 16 55 30.0000000  0  7 17 29 23 21 09 03 31
  21660334.815     4584084.984 8   3566578.17647  21660334.162    21660341.6504
  21843025.944   -10557867.331 8  -8207412.43147  21843025.808    21843032.5344
  21166510.530     2459736.571 9   1872116.40147  21166509.980    21166516.5274
  20978326.943    -5030680.201 9  -3649569.72547  20978326.427    20978332.8464
  23964992.386    -6661480.308 7  -5175718.82145  23964992.212    23965001.9744
  21277772.058    -3654315.434 9  -2838858.43047  21277771.685    21277777.7654
  23095888.740    -8571712.032 8  -6654476.86045  23095888.279    23095894.8234
 99  9 14 16 56  0.0000000  0  7 17 29 23 21 09 03 31
  21672943.284     4650341.963 8   3618206.92047  21672942.544    21672950.0824
  21826725.261   -10643527.360 8  -8274160.46547  21826725.223    21826731.9324
  21174429.945     2501352.971 9   1904544.74047  21174429.378    21174435.8854
  20972413.457    -5061755.995 9  -3673784.63347  20972412.931    20972419.3684
  23956898.707    -6704011.599 7  -5208860.02545  23956898.525    23956908.5234
  21277417.565    -3656178.317 9  -2840310.04947  21277417.210    21277423.3174
  23082706.414    -8640985.470 8  -6708456.13545  23082705.915    23082712.4754
 99  9 14 16 56 30.0000000  0  7 17 29 23 21 09 03 31
  21685613.073     4716921.996 8   3670087.39447  21685612.373    21685619.8684
  21810496.801   -10728808.656 8  -8340613.37247  21810496.678    21810503.4694
  21182389.818     2543182.163 9   1937138.88947  21182389.237    21182395.7284
  20966547.909    -5092579.991 9  -3697803.34547  20966547.371    20966553.8004
  23948895.474    -6746069.109 7  -5241632.06645  23948895.315    23948905.2664
  21277172.090    -3657468.129 9  -2841315.11047  21277171.770    21277177.8544
  23069608.336    -8709815.852 8  -6762090.19445  23069607.853    23069614.5224
 99  9 14 16 57  0.0000000  0  7 17 29 23 21 09 03 31
  21698342.738     4783816.083 8   3722212.58447  21698341.990    21698349.4384
  21794339.274   -10813716.913 8  -8406775.61647  21794339.183    21794345.9614
  21190384.476     2585194.278 9   1969875.58247  21190383.912    21190390.4234
  20960726.047    -5123174.246 9  -3721643.03047  20960725.522    20960731.9254
  23940979.234    -6787668.893 7  -5274047.39745  23940979.025    23940988.8634
  21277034.997    -3658188.667 9  -2841876.58447  21277034.705    21277040.7814
  23056592.942    -8778212.420 8  -6815386.21246  23056592.473    23056599.0264
 99  9 14 16 57 30.0000000  0  7 17 29 23 21 09 03 31
  21711128.722     4851006.742 8   3774568.86547  21711127.939    21711135.5084
  21778249.136   -10898271.093 8  -8472661.95947  21778249.062    21778255.7744
  21198411.059     2627374.010 9   2002742.88447  21198410.476    21198416.9674
  20954949.992    -5153527.245 9  -3745294.72047  20954949.480    20954955.8924
  23933147.743    -6828822.790 7  -5306115.30045  23933147.607    23933157.4304
  21277005.173    -3658345.336 9  -2841998.67847  21277004.836    21277010.9814
  23043659.123    -8846181.100 8  -6868348.80646  23043658.547    23043665.0284
 99  9 14 16 58  0.0000000  0  7 17 29 23 21 09 03 31
  21723972.088     4918499.441 8   3827160.51647  21723971.368    21723978.9754
  21762224.071   -10982482.978 8  -8538281.57147  21762223.966    21762230.8184
  21206469.440     2669720.970 9   2035740.48747  21206468.867    21206475.3394
  20949223.498    -5183620.042 9  -3768743.66047  20949222.995    20949229.4264
  23925401.602    -6869528.829 7  -5337834.23945  23925401.420    23925411.2284
  21277083.337    -3657934.220 9  -2841678.34847  21277083.042    21277089.2294
  23030807.788    -8913716.052 8  -6920973.44046  23030807.124    23030813.5254
 99  9 14 16 58 30.0000000  0  7 17 29 23 21 09 03 31
  21736874.584     4986302.550 8   3879994.03547  21736873.905    21736881.6624
  21746262.465   -11066361.625 8  -8603641.52147  21746262.356    21746269.2154
  21214560.444     2712239.428 9   2068871.72747  21214559.866    21214566.3754
  20943547.426    -5213447.974 9  -3791986.20647  20943546.904    20943553.3404
  23917741.824    -6909780.610 8  -5369199.19745  23917741.722    23917751.5514
  21277275.423    -3656924.745 9  -2840891.75947  21277275.179    21277281.3544
  23018041.540    -8980802.742 8  -6973248.78146  23018040.962    23018047.3734
 99  9 14 16 59  0.0000000  0  8 17 08 29 23 21 09 03 31
  21749833.687     5054402.651 8   3933058.98747  21749832.984    21749840.7204
  24691325.568    -2552175.575 7  -1744276.93845  24691324.682    24691337.0754
  21730358.777   -11149935.414 8  -8668763.92347  21730358.706    21730365.5694
  21222682.296     2754920.339 9   2102129.55647  21222681.743    21222688.2894
  20937920.321    -5243018.645 9  -3815028.29347  20937919.830    20937926.2654
  23910166.522    -6949589.422 8  -5400218.97545  23910166.376    23910176.2484
  21277578.914    -3655329.918 9  -2839649.05347  21277578.669    21277584.8174
  23005358.222    -9047453.955 8  -7025184.77046  23005357.583    23005364.1464
 99  9 14 16 59 30.0000000  0  8 17 08 29 23 21 09 03 31
  21762854.530     5122828.345 8   3986377.62047  21762853.900    21762861.7984
  24674583.244    -2640155.587 7  -1812832.57945  24674582.552    24674594.5964
  21714518.163   -11233178.326 8  -8733628.50647  21714518.112    21714524.9244
  21230846.034     2797820.913 9   2135558.54947  21230845.482    21230852.0314
  20932349.191    -5272295.156 9  -3837841.16447  20932348.667    20932355.1494
  23902680.890    -6988926.615 7  -5430871.24745  23902680.709    23902690.7284
  21278002.142    -3653106.204 9  -2837916.30247  21278001.836    21278007.9814
  22992764.540    -9113633.765 8  -7076753.46346  22992764.031    22992770.6104
 99  9 14 17  0  0.0000000  0  8 17 08 29 23 21 09 03 31
  21775940.939     5191597.190 8   4039963.66347  21775940.350    21775948.1944
  24657859.963    -2728036.345 7  -1881310.93644  24657859.289    24657870.9294
  21698744.972   -11316066.718 8  -8798216.82747  21698744.902    21698751.8224
  21239057.455     2840972.104 9   2169182.83347  21239056.897    21239063.4604
  20926832.621    -5301284.798 9  -3860430.50447  20926832.106    20926838.6244
  23895287.646    -7027777.677 8  -5461144.73045  23895287.536    23895297.5534
  21278549.021    -3650232.508 9  -2835677.07547  21278548.747    21278554.8574
  22980265.668    -9179315.131 8  -7127933.73746  22980265.213    22980271.8364
 99  9 14 17  0 30.0000000  0  8 17 08 29 23 21 09 03 31
  21789090.484     5260698.705 8   4093808.93146  21789089.867    21789097.7984
  24641156.284    -2815814.706 7  -1949709.55244  24641155.464    24641166.9924
  21683040.930   -11398591.329 8  -8862521.69347  21683040.934    21683047.8454
  21247316.998     2884376.123 9   2203004.12047  21247316.429    21247323.0034
  20921367.446    -5330004.349 9  -3882809.38247  20921366.999    20921373.5104
  23887983.871    -7066159.078 8  -5491052.21545  23887983.783    23887993.6594
  21279217.480    -3646719.616 9  -2832939.77247  21279217.234    21279223.3704
  22967861.807    -9244498.045 8  -7178725.60746  22967861.320    22967867.9634
 99  9 14 17  1  0.0000000  0  8 17 08 29 23 21 09 03 31
  21802303.416     5330132.938 8   4147913.45446  21802302.840    21802310.7604
  24624474.781    -2903475.816 7  -2018016.76245  24624474.102    24624485.2904
  21667408.506   -11480739.385 8  -8926533.12247  21667408.535    21667415.5714
  21255625.361     2928037.087 9   2237025.62647  21255624.807    21255631.4224
  20915955.470    -5358444.620 9  -3904970.63047  20915954.976    20915961.4874
  23880768.521    -7104076.456 7  -5520598.12145  23880768.338    23880778.1744
  21280003.242    -3642590.587 9  -2829722.36547  21280002.960    21280009.1294
  22955552.005    -9309186.863 8  -7229132.46946  22955551.472    22955558.0204
 99  9 14 17  1 30.0000000  0  8 17 08 29 23 21 09 03 31
  21815580.632     5399904.125 8   4202280.53846  21815579.998    21815587.8574
  24607815.411    -2991019.735 8  -2086232.61745  24607814.775    24607826.1814
  21651848.966   -11562505.389 8  -8990246.87147  21651848.997    21651855.9324
  21263982.318     2971953.245 9   2271245.98547  21263981.792    21263988.4114
  20910594.712    -5386615.707 9  -3926922.12747  20910594.227    20910600.7724
  23873642.664    -7141523.232 8  -5549777.37045  23873642.381    23873652.3914
  21280906.989    -3637841.678 9  -2826021.93347  21280906.675    21280912.8454
  22943339.541    -9373363.815 8  -7279140.47246  22943339.037    22943345.4894
 99  9 14 17  2  0.0000000  0  8 17 08 29 23 21 09 03 31
  21828922.005     5470013.198 8   4256910.90546  21828921.382    21828929.2594
  24591178.168    -3078449.066 7  -2154359.24445  24591177.562    24591188.7764
  21636361.058   -11643895.062 8  -9053667.36047  21636361.019    21636367.8834
  21272384.291     3016105.632 9   2305650.41947  21272383.755    21272390.3754
  20905284.370    -5414521.998 9  -3948667.29747  20905283.833    20905290.3884
  23866605.072    -7178505.850 8  -5578594.88345  23866604.764    23866614.6604
  21281925.369    -3632489.965 9  -2821851.78547  21281925.070    21281931.2524
  22931224.289    -9437029.649 8  -7328750.21346  22931223.904    22931230.2244
 99  9 14 17  2 30.0000000  0  8 17 08 29 23 21 09 03 31
  21842327.065     5540456.856 8   4311801.99546  21842326.442    21842334.3654
  24574564.132    -3165756.249 7  -2222390.63845  24574563.395    24574574.6894
  21620944.026   -11724912.375 8  -9116797.70947  21620943.972    21620950.7824
  21280828.869     3060481.760 9   2340229.18947  21280828.309    21280834.9414
  20900026.151    -5442153.577 9  -3970198.40047  20900025.663    20900032.2714
  23859654.733    -7215030.005 8  -5607055.18645  23859654.375    23859664.2404
  21283057.204    -3626542.225 9  -2817217.19847  21283056.916    21283063.0744
  22919206.082    -9500186.206 8  -7377963.10746  22919205.535    22919211.8864
 99  9 14 17  3  0.0000000  0  8 17 08 29 23 21 09 03 31
  21855795.084     5611231.492 8   4366950.97846  21855794.428    21855802.4084
  24557974.514    -3252934.042 7  -2290321.27745  24557973.769    24557985.3584
  21605595.354   -11805570.336 8  -9179648.04147  21605595.258    21605601.9814
  21289311.839     3105060.084 9   2374965.51847  21289311.296    21289317.9494
  20894819.177    -5469516.402 9  -3991520.08547  20894818.718    20894825.3394
  23852795.282    -7251076.853 8  -5635143.56245  23852794.964    23852804.7624
  21284302.757    -3619996.968 9  -2812117.01947  21284302.444    21284308.6094
  22907284.473    -9562834.343 8  -7426779.84146  22907283.898    22907290.3444
 99  9 14 17  3 30.0000000  0  8 17 08 29 23 21 09 03 31
  21869322.626     5682319.010 8   4422343.78146  21869321.983    21869329.9284
  24541406.470    -3339999.007 7  -2358163.99545  24541405.709    24541417.1674
  21590312.585   -11885881.724 8  -9242228.31047  21590312.508    21590319.2334
  21297828.843     3149817.074 9   2409841.07147  21297828.320    21297834.9214
  20889659.829    -5496629.266 9  -4012646.99247  20889659.350    20889665.9084
  23846026.572    -7286646.819 8  -5662860.34245  23846026.189    23846035.9114
  21285660.758    -3612860.591 9  -2806556.22147  21285660.454    21285666.6444
  22895457.813    -9624983.962 8  -7475208.11746  22895457.245    22895463.6954
 99  9 14 17  4  0.0000000  0  8 17 08 29 23 21 09 03 31
  21882906.833     5753704.543 8   4477968.78546  21882906.249    21882914.2964
  24524860.266    -3426949.648 7  -2425917.62445  24524859.503    24524871.1344
  21575098.171   -11965834.096 8  -9304528.82347  21575098.090    21575104.8054
  21306378.261     3194744.345 9   2444849.30447  21306377.742    21306384.3294
  20884548.993    -5523486.743 9  -4033574.89947  20884548.558    20884555.0474
  23839349.399    -7321734.696 8  -5690201.48045  23839349.083    23839358.6684
  21287128.927    -3605145.254 9  -2800544.29347  21287128.637    21287134.8304
  22883721.726    -9686657.770 8  -7523265.63446  22883721.229    22883727.5854
 99  9 14 17  4 30.0000000  0  8 17 08 29 23 21 09 03 31
  21896547.608     5825386.284 8   4533824.61146  21896546.946    21896554.9864
  24508335.522    -3513785.584 7  -2493581.85345  24508334.884    24508346.6334
  21559954.768   -12045413.695 8  -9366538.88047  21559954.684    21559961.2734
  21314960.293     3239843.013 9   2479991.10147  21314959.740    21314966.3194
  20879485.211    -5550097.333 9  -4054310.42647  20879484.744    20879491.2394
  23832769.000    -7356315.066 8  -5717147.14445  23832768.658    23832778.2034
  21288707.158    -3596851.798 9  -2794081.87647  21288706.845    21288713.0314
  22872074.641    -9747863.886 8  -7570958.69646  22872074.142    22872080.4824
 99  9 14 17  5  0.0000000  0  8 17 08 29 23 21 09 03 31
  21910245.420     5897368.969 8   4589914.93546  21910244.793    21910252.7964
  24491831.727    -3600514.962 7  -2561163.11545  24491830.888    24491842.4954
  21544882.379   -12124619.930 8  -9428257.98247  21544882.238    21544888.8914
  21323574.205     3285109.064 9   2515263.32547  21323573.607    21323580.1844
  20874466.700    -5576469.724 9  -4074860.34447  20874466.248    20874472.7514
  23826287.476    -7390375.495 8  -5743687.67345  23826287.235    23826296.7114
  21290394.843    -3587982.844 9  -2787171.02247  21290394.547    21290400.7034
  22860514.544    -9808613.004 8  -7618295.66646  22860513.985    22860520.2694
 99  9 14 17  5 30.0000000  0  8 17 08 29 23 21 09 03 31
  21923999.555     5969646.957 8   4646235.37046  21923998.911    21924006.9004
  24475347.574    -3687137.540 7  -2628661.09845  24475347.051    24475358.5064
  21529883.883   -12203437.089 8  -9489673.92247  21529883.792    21529890.4354
  21332223.792     3330563.081 9   2550682.01547  21332223.229    21332229.7954
  20869496.703    -5602587.645 9  -4095211.97747  20869496.208    20869502.6984
  23819902.489    -7423928.060 8  -5769832.46445  23819902.155    23819911.7424
  21292192.381    -3578536.348 9  -2779810.14047  21292192.152    21292198.3604
  22849041.602    -9868903.397 8  -7665275.17746  22849041.098    22849047.4414
 99  9 14 17  6  0.0000000  0  8 17 08 29 23 21 09 03 31
  21937812.872     6042235.605 8   4702797.87546  21937812.158    21937820.1604
  24458889.726    -3773624.350 7  -2696053.31745  24458889.114    24458900.5674
  21514964.279   -12281839.782 8  -9550766.88747  21514964.181    21514970.8684
  21340911.263     3376215.991 9   2586255.68447  21340910.725    21340917.2844
  20864576.418    -5628443.911 9  -4115359.71747  20864575.915    20864582.4344
  23813615.862    -7456965.041 8  -5795575.47145  23813615.587    23813624.9574
  21294103.506    -3568493.245 9  -2771984.36847  21294103.299    21294109.5344
  22837657.192    -9928728.221 8  -7711891.90746  22837656.699    22837663.1914
 99  9 14 17  6 30.0000000  0  8 17 08 29 23 21 09 03 31
  21951686.995     6115143.885 8   4759609.44146  21951686.284    21951694.1984
  24442459.271    -3859966.129 7  -2763332.55945  24442458.708    24442470.2204
  21500121.406   -12359839.572 8  -9611545.91547  21500121.355    21500127.9424
  21349637.107     3422070.373 9   2621986.34047  21349636.574    21349643.1124
  20859705.029    -5654043.426 9  -4135307.39647  20859704.527    20859711.0344
  23807425.852    -7489494.349 8  -5820922.92645  23807425.434    23807434.7214
  21296129.120    -3557849.550 9  -2763690.60247  21296128.777    21296135.0164
  22826364.686    -9988069.801 8  -7758132.09446  22826364.357    22826370.9104
 99  9 14 17  7  0.0000000  0  8 17 08 29 23 21 09 03 31
  21965621.038     6188367.578 8   4816666.78046  21965620.377    21965628.2954
  24426058.147    -3946153.771 7  -2830491.67845  24426057.592    24426069.0144
  21485353.880   -12437443.899 8  -9672016.78247  21485353.739    21485360.3124
  21358402.035     3468130.271 9   2657877.14747  21358401.496    21358408.0314
  20854885.952    -5679368.201 9  -4155040.98747  20854885.413    20854891.8944
  23801327.795    -7521538.378 8  -5845892.24745  23801327.483    23801336.9654
  21298268.716    -3546605.760 9  -2754929.22947  21298268.406    21298274.6814
  22815166.758   -10046915.940 8  -7803986.19446  22815166.279    22815172.8494
 99  9 14 17  7 30.0000000  0  8 17 08 29 23 21 09 03 31
  21979615.550     6261908.427 8   4873971.25146  21979614.850    21979622.8474
  24409689.537    -4032171.473 7  -2897518.41945  24409689.013    24409700.1884
  21470662.486   -12514647.262 8  -9732175.20447  21470662.360    21470669.0514
  21367206.901     3514399.922 9   2693931.39347  21367206.351    21367212.8874
  20850120.566    -5704410.271 9  -4174554.29247  20850120.012    20850126.5514
  23795321.163    -7553104.229 8  -5870488.93545  23795320.782    23795330.0794
  21300524.210    -3534753.175 9  -2745693.47147  21300523.914    21300530.1764
  22804067.222   -10105243.732 8  -7849436.41046  22804066.823    22804073.3614
 99  9 14 17  8  0.0000000  0  8 17 08 29 23 21 09 03 31
  21993672.810     6335779.890 8   4931533.34446  21993672.137    21993680.1714
  24393351.740    -4118027.533 7  -2964419.16145  24393351.315    24393362.3314
  21456044.076   -12591467.073 8  -9792034.75547  21456043.950    21456050.6704
  21376047.831     3560859.444 9   2730133.58647  21376047.310    21376053.8444
  20845407.192    -5729178.808 9  -4193854.45847  20845406.715    20845413.2474
  23789407.503    -7584180.697 8  -5894704.29745  23789406.997    23789416.2994
  21302894.269    -3522298.027 9  -2735988.18347  21302894.053    21302900.3324
  22793067.287   -10163049.511 8  -7894479.85846  22793066.788    22793073.2414
 99  9 14 17  8 30.0000000  0  8 17 08 29 23 21 09 03 31
  22007792.996     6409981.473 8   4989352.68446  22007792.302    22007800.3134
  24377040.847    -4203740.306 7  -3031208.24245  24377040.276    24377051.7644
  21441493.748   -12667928.859 8  -9851615.32847  21441493.683    21441500.4014
  21384926.203     3607515.556 9   2766488.96547  21384925.704    21384932.2994
  20840747.934    -5753663.346 9  -4212933.32647  20840747.461    20840753.9874
  23783586.058    -7614771.866 8  -5918541.50345  23783585.676    23783595.0234
  21305377.432    -3509249.327 9  -2725820.38547  21305377.154    21305383.4114
  22782167.621   -10220326.520 8  -7939111.28646  22782167.274    22782173.6894
 99  9 14 17  9  0.0000000  0  8 17 08 29 23 21 09 03 31
  22021976.990     6484518.512 8   5047433.40446  22021976.303    22021984.3964
  24360757.511    -4289310.533 7  -3097886.29045  24360756.969    24360768.2224
  21427013.588   -12744022.833 8  -9910909.29847  21427013.497    21427020.1404
  21393840.975     3654362.890 9   2802993.35147  21393840.482    21393847.0964
  20836144.300    -5777855.502 9  -4231784.35947  20836143.838    20836150.3684
  23777859.225    -7644866.388 8  -5941991.67945  23777858.821    23777868.1964
  21307976.844    -3495589.384 9  -2715176.29747  21307976.575    21307982.8484
  22771368.449   -10277076.894 8  -7983332.34846  22771368.070    22771374.4544
 99  9 14 17  9 30.0000000  0  8 17 08 29 23 21 09 03 31
  22036223.807     6559385.763 8   5105771.44646  22036223.110    22036231.2614
  24344500.794    -4374739.544 8  -3164454.29845  24344500.213    24344511.5414
  21412606.007   -12819735.124 8  -9969905.85547  21412605.891    21412612.5044
  21402789.597     3701387.992 9   2839636.25847  21402789.077    21402795.7374
  20831593.409    -5801770.522 9  -4250419.44447  20831592.938    20831599.4774
  23772230.084    -7674447.517 8  -5965041.83145  23772229.688    23772238.9204
  21310693.066    -3481315.852 9  -2704054.08447  21310692.794    21310699.0454
  22760668.117   -10333307.629 8  -8027148.52046  22760667.738    22760674.0304
 99  9 14 17 10  0.0000000  0  8 17 08 29 23 21 09 03 31
  22050530.607     6634568.126 8   5164355.01846  22050529.875    22050538.0924
  24328270.316    -4460032.281 8  -3230916.11845  24328269.679    24328280.7664
  21398273.016   -12895055.195 8 -10028596.77747  21398272.874    21398279.5444
  21411772.645     3748594.280 9   2876420.34847  21411772.129    21411778.8034
  20827095.824    -5825405.785 9  -4268836.53847  20827095.332    20827101.8514
  23766700.156    -7703506.532 8  -5987685.12145  23766699.746    23766709.0184
  21313524.903    -3466434.376 9  -2692458.15447  21313524.634    21313530.8804
  22750064.482   -10389030.420 8  -8070568.87546  22750064.048    22750070.2134
 99  9 14 17 10 30.0000000  0  8 17 08 29 23 21 09 03 31
  22064896.727     6710062.162 8   5223181.44446  22064895.980    22064904.2124
  24312069.214    -4545170.429 8  -3297257.48145  24312068.495    24312079.6024
  21384017.618   -12969967.207 8 -10086969.73647  21384017.553    21384024.2494
  21420792.363     3795993.254 9   2913354.58047  21420791.874    21420798.5684
  20822651.513    -5848760.826 9  -4287035.27647  20822650.989    20822657.5104
  23761269.255    -7732046.838 8  -6009924.24045  23761268.786    23761277.9274
  21316473.489    -3450939.806 9  -2680384.48447  21316473.213    21316479.4304
  22739557.533   -10444244.563 8  -8113592.89346  22739557.172    22739563.2194
 99  9 14 17 11  0.0000000  0  8 17 08 29 23 21 09 03 31
  22079321.679     6785866.227 8   5282249.46246  22079321.014    22079329.3104
  24295898.693    -4630146.303 8  -3363472.38745  24295898.010    24295909.1984
  21369845.167   -13044443.734 8 -10145003.35747  21369845.134    21369851.7914
  21429847.879     3843579.943 9   2950435.08447  21429847.365    21429854.0374
  20818258.056    -5871848.399 9  -4305025.59247  20818257.560    20818264.0954
  23755937.769    -7760062.645 8  -6031754.65145  23755937.357    23755946.5184
  21319538.266    -3434834.731 9  -2667835.09647  21319537.891    21319544.1744
  22729148.206   -10498946.035 8  -8156217.42146  22729147.809    22729153.9184
 99  9 14 17 11 30.0000000  0  8 17 08 29 23 21 09 03 31
  22093804.101     6861971.065 8   5341551.84946  22093803.398    22093811.6314
  24279760.655    -4714952.272 8  -3429554.91945  24279759.962    24279771.0894
  21355756.060   -13118482.852 8 -10202696.13947  21355755.978    21355762.5794
  21438940.935     3891363.606 9   2987669.07947  21438940.370    21438947.0024
  20813915.039    -5894671.280 9  -4322809.65747  20813914.527    20813921.0714
  23750706.946    -7787550.505 8  -6053173.66945  23750706.498    23750715.5884
  21322715.428    -3418138.325 9  -2654824.93547  21322715.122    21322721.4664
  22718838.459   -10553124.018 8  -8198434.02646  22718838.056    22718844.1744
 99  9 14 17 12  0.0000000  0  8 17 08 29 23 21 09 03 31
  22108345.054     6938384.003 8   5401094.30946  22108344.381    22108352.6054
  24263655.765    -4799583.790 8  -3495501.51545  24263655.011    24263666.1454
  21341747.040   -13192100.618 9 -10260060.59847  21341746.946    21341753.5674
  21448072.365     3939349.720 9   3025060.82647  21448071.809    21448078.4884
  20809621.402    -5917234.515 9  -4340391.40147  20809620.889    20809627.4314
  23745575.541    -7814515.870 8  -6074185.56045  23745575.171    23745584.2674
  21326003.210    -3400860.930 9  -2641362.05047  21326002.906    21326009.2294
  22708630.043   -10606770.657 8  -8240236.60046  22708629.563    22708635.6524
 99  9 14 17 12 30.0000000  0  8 17 08 29 23 21 09 03 31
  22122946.633     7015115.745 8   5460885.19846  22122945.983    22122954.1284
  24247585.178    -4884034.288 7  -3561307.00145  24247584.488    24247595.7854
  21327816.975   -13265303.379 9 -10317101.67547  21327816.929    21327823.4924
  21457240.089     3987526.274 9   3062600.96747  21457239.542    21457246.2184
  20805373.173    -5939559.271 9  -4357787.32047  20805372.670    20805379.1984
  23740542.726    -7840963.005 8  -6094793.59945  23740542.334    23740551.4394
  21329400.947    -3383005.913 9  -2627449.06847  21329400.643    21329406.9844
  22698523.287   -10659882.872 8  -8281622.72446  22698522.670    22698528.7724
 99  9 14 17 13  0.0000000  0  8 17 08 29 23 21 09 03 31
  22137603.415     7092137.474 8   5520902.04846  22137602.817    22137610.9514
  24231546.762    -4968315.847 8  -3626980.90145  24231546.109    24231557.4444
  21313963.649   -13338103.211 9 -10373828.78347  21313963.610    21313970.1584
  21466441.707     4035880.277 9   3100279.38447  21466441.092    21466447.7254
  20801166.352    -5961666.209 9  -4375013.51447  20801165.863    20801172.4124
  23735607.469    -7866897.544 8  -6115002.25845  23735606.982    23735616.2114
  21332905.956    -3364587.522 9  -2613097.10247  21332905.587    21332911.9294
  22688518.536   -10712458.133 8  -8322590.43846  22688517.877    22688524.1214
 99  9 14 17 13 30.0000000  0  8 17 08 29 23 21 09 03 31
  22152312.072     7169431.556 8   5581131.09546  22152311.434    22152319.6944
  24215542.496    -5052419.788 8  -3692516.41045  24215541.739    24215552.9234
  21300182.266   -13410524.953 9 -10430261.27547  21300182.221    21300188.7234
  21475675.076     4084402.141 9   3138088.59847  21475674.510    21475681.1264
  20797000.215    -5983559.453 9  -4392073.18247  20796999.737    20797006.2864
  23730768.946    -7892323.099 8  -6134814.29145  23730768.511    23730777.7784
  21336517.236    -3345610.438 9  -2598309.78547  21336516.857    21336523.1644
  22678612.877   -10764512.560 8  -8363152.31946  22678612.193    22678618.4834
 99  9 14 17 14  0.0000000  0  8 17 08 29 23 21 09 03 31
  22167072.900     7246999.949 8   5641573.91646  22167072.285    22167080.5094
  24199569.945    -5136355.910 8  -3757921.14145  24199569.336    24199580.3634
  21286472.153   -13482572.117 9 -10486401.89047  21286472.072    21286478.5374
  21484938.169     4133079.961 9   3176019.33847  21484937.627    21484944.2784
  20792873.333    -6005246.607 9  -4408972.27147  20792872.864    20792879.3954
  23726026.291    -7917246.137 8  -6154234.76345  23726025.814    23726034.9584
  21340235.502    -3326070.547 9  -2583083.92047  21340235.153    21340241.4974
  22668803.863   -10816059.079 8  -8403318.42146  22668803.244    22668809.5984
 99  9 14 17 14 30.0000000  0  8 17 08 29 23 21 09 03 31
  22181883.579     7324830.120 8   5702220.72046  22181882.872    22181891.1434
  24183627.511    -5220133.947 7  -3823202.70445  24183626.843    24183637.8774
  21272833.649   -13554242.989 9 -10542249.28947  21272833.534    21272840.0094
  21494229.616     4181906.675 9   3214066.10547  21494229.035    21494235.6814
  20788787.782    -6026716.439 9  -4425702.00947  20788787.312    20788793.8114
  23721379.472    -7941664.640 8  -6173262.08145  23721379.091    23721388.2894
  21344062.724    -3305958.044 9  -2567411.86147  21344062.413    21344068.7654
  22659090.466   -10867103.440 8  -8443093.24146  22659089.829    22659096.2134
 99  9 14 17 15  0.0000000  0  8 17 08 29 23 21 09 03 31
  22196744.488     7402924.457 8   5763073.34446  22196743.814    22196752.0934
  24167715.920    -5303750.841 7  -3888358.65045  24167715.179    24167725.9484
  21259267.157   -13625534.830 9 -10597801.34647  21259267.095    21259273.5584
  21503551.415     4230893.322 9   3252237.48247  21503550.872    21503557.5674
  20784749.424    -6047938.310 9  -4442238.53647  20784748.928    20784755.4074
  23716829.264    -7965575.937 8  -6191894.16945  23716828.981    23716837.9324
  21348000.976    -3285262.523 9  -2551285.51247  21348000.667    21348007.0324
  22649471.911   -10917649.189 8  -8482479.53846  22649471.347    22649477.7534
 99  9 14 17 15 30.0000000  0  8 17 08 29 23 21 09 03 31
  22211663.741     7481324.738 8   5824164.37846  22211663.016    22211671.3114
  24151837.635    -5387190.329 7  -3953376.40945  24151837.081    24151847.9614
  21245778.241   -13696419.976 9 -10653036.49347  21245778.154    21245784.5364
  21512906.532     4280054.850 9   3290545.13747  21512906.025    21512912.7064
  20780766.428    -6068869.104 9  -4458548.24847  20780765.945    20780772.4114
  23712377.874    -7988967.965 8  -6210121.65645  23712377.493    23712386.5034
  21352055.299    -3263957.072 9  -2534683.87947  21352054.990    21352061.3164
  22639949.558   -10967689.511 8  -8521471.99346  22639949.049    22639955.3654
 99  9 14 17 16  0.0000000  0  8 17 08 29 23 21 09 03 31
  22226646.555     7560060.175 8   5885516.57246  22226645.883    22226654.1844
  24135993.346    -5470451.732 8  -4018255.39545  24135992.860    24136003.9574
  21232371.631   -13766871.932 9 -10707934.09147  21232371.565    21232377.9834
  21522297.965     4329407.238 9   3329001.51247  21522297.464    21522304.2214
  20776842.882    -6089487.572 9  -4474614.59547  20776842.401    20776848.8544
  23708026.107    -8011837.315 8  -6227941.84645  23708025.596    23708034.5534
  21356227.485    -3242031.902 9  -2517599.35747  21356227.181    21356233.5614
  22630529.246   -11017193.605 8  -8560046.61046  22630528.691    22630535.0154
 99  9 14 17 16 30.0000000  0  8 17 08 29 23 21 09 03 31
  22241696.915     7639149.917 8   5947144.85746  22241696.254    22241704.5534
  24120188.518    -5553507.186 8  -4082973.94245  24120187.981    24120198.7644
  21219051.311   -13836870.728 9 -10762478.57047  21219051.217    21219057.5904
  21531728.793     4378966.311 9   3367618.94647  21531728.265    21531735.0254
  20772981.168    -6109781.016 9  -4490427.66847  20772980.685    20772987.1744
  23703775.792    -8034172.742 8  -6245345.96945  23703775.228    23703784.2294
  21360518.946    -3219480.538 9  -2500026.88847  21360518.660    21360525.0194
  22621214.302   -11066143.941 8  -8598189.72846  22621213.780    22621220.0154
 99  9 14 17 17  0.0000000  0  8 17 08 29 23 21 09 03 31
  22256817.639     7718609.428 8   6009061.25346  22256816.976    22256825.3104
  24104425.313    -5636342.933 7  -4147521.26745  24104424.635    24104435.6464
  21205819.548   -13906403.708 9 -10816660.08347  21205819.487    21205825.8834
  21541199.972     4428737.440 9   3406401.61147  21541199.458    21541206.1734
  20769180.452    -6129753.895 9  -4505990.95647  20769179.946    20769186.4454
  23699627.676    -8055970.843 8  -6262331.44145  23699627.129    23699636.0154
  21364925.860    -3196322.191 8  -2481981.45247  21364925.530    21364931.9344
  22612008.544   -11114520.954 8  -8635886.10546  22612007.943    22612014.1164
 99  9 14 17 17 30.0000000  0  8 17 08 29 23 21 09 03 31
  22272007.956     7798435.010 8   6071262.91046  22272007.310    22272015.6644
  24088705.026    -5718953.178 7  -4211892.87145  24088704.467    24088715.1854
  21192675.994   -13975473.508 9 -10870480.66847  21192675.896    21192682.3354
  21550711.763     4478721.792 9   3445350.43247  21550711.193    21550717.9094
  20765437.159    -6149425.130 9  -4521319.19147  20765436.647    20765443.1284
  23695584.197    -8077219.098 8  -6278888.41845  23695583.679    23695592.5514
  21369444.330    -3172577.559 9  -2463479.16447  21369444.022    21369450.4534
  22602914.623   -11162310.599 8  -8673124.78746  22602913.948    22602920.0184
 99  9 14 17 18  0.0000000  0  8 17 08 29 23 21 09 03 31
  22287264.551     7878607.815 8   6133735.13446  22287263.898    22287272.2454
  24073028.234    -5801335.196 7  -4276086.61845  24073027.600    24073038.2344
  21179618.125   -14044092.543 9 -10923950.01947  21179618.066    21179624.4914
  21560261.927     4528908.217 9   3484456.70447  21560261.352    21560268.1024
  20761746.045    -6168821.919 9  -4536433.58247  20761745.563    20761752.0054
  23691648.370    -8097901.906 8  -6295004.84545  23691647.953    23691656.6694
  21374070.679    -3148266.083 9  -2444535.18647  21374070.379    21374076.7974
  22593930.562   -11209521.548 8  -8709912.53946  22593929.918    22593936.0104
 99  9 14 17 18 30.0000000  0  8 17 08 29 23 21 09 03 31
  22302580.719     7959094.026 8   6196451.55946  22302579.995    22302588.4104
  24057395.269    -5883487.402 7  -4340101.33545  24057394.642    24057404.9994
  21166643.125   -14112276.465 9 -10977080.31947  21166643.088    21166649.4884
  21569846.519     4579275.626 9   3523704.00747  21569845.936    21569852.7154
  20758103.986    -6187961.200 9  -4551347.31147  20758103.454    20758109.9184
  23687820.848    -8118015.051 8  -6310677.33245  23687820.433    23687829.1424
  21378801.799    -3123403.825 9  -2425162.02947  21378801.524    21378807.9714
  22585053.005   -11256173.216 8  -8746264.49946  22585052.384    22585058.4274
 99  9 14 17 19  0.0000000  0  8 17 08 29 23 21 09 03 31
  22317950.780     8039864.116 8   6259389.19046  22317950.064    22317958.4834
  24041805.131    -5965413.681 7  -4403939.95945  24041804.446    24041814.8674
  21153749.173   -14180034.373 9 -11029878.65047  21153749.154    21153755.5224
  21579463.994     4629815.567 9   3563085.75447  21579463.448    21579470.2124
  20754509.562    -6206849.666 9  -4566065.59947  20754509.062    20754515.5404
  23684100.829    -8137562.920 8  -6325909.35245  23684100.369    23684109.1724
  21383637.357    -3097993.236 9  -2405361.58947  21383637.046    21383643.5084
  22576279.936   -11302275.857 8  -8782188.62646  22576279.227    22576285.3554
 99  9 14 17 19 30.0000000  0  8 17 08 29 23 21 09 03 31
  22333371.721     8120900.823 8   6322534.58146  22333371.029    22333379.4674
  24026258.917    -6047109.719 7  -4467599.19045  24026258.218    24026268.4984
  21140935.990   -14247368.109 9 -11082346.46347  21140935.965    21140942.2824
  21589112.406     4680518.107 9   3602594.19847  21589111.799    21589118.5944
  20750961.286    -6225496.104 9  -4580595.29047  20750960.789    20750967.2684
  23680488.571    -8156545.156 8  -6340700.61445  23680488.109    23680496.7674
  21388581.673    -3072010.565 9  -2385115.38147  21388581.383    21388587.8414
  22567606.821   -11347853.548 8  -8817703.70246  22567606.062    22567612.1704
 99  9 14 17 20  0.0000000  0  8 17 08 29 23 21 09 03 31
  22348840.793     8202191.389 8   6385877.78346  22348840.150    22348848.6624
  24010756.005    -6128577.068 7  -4531080.22945  24010755.421    24010765.8534
  21128204.940   -14314270.297 9 -11134478.00947  21128204.878    21128211.2024
  21598789.180     4731370.400 9   3642219.32647  21598788.660    21598795.5094
  20747458.445    -6243903.512 9  -4594938.73747  20747457.974    20747464.4474
  23676980.728    -8174978.974 8  -6355064.55245  23676980.139    23676988.8514
  21393638.169    -3045438.954 9  -2364410.25647  21393637.863    21393644.2974
  22559032.684   -11392911.084 8  -8852813.46646  22559031.868    22559038.0904
 99  9 14 17 20 30.0000000  0  8 17 08 29 23 21 09 03 31
  22364357.119     8283729.651 8   6449413.97846  22364356.418    22364364.9544
  23995297.504    -6209811.717 7  -4594379.94745  23995296.921    23995307.5054
  21115557.289   -14380734.124 9 -11186267.97547  21115557.194    21115563.4764
  21608495.447     4782377.308 9   3681964.93447  21608494.950    21608501.8284
  20744000.557    -6262075.097 9  -4609098.42147  20744000.057    20744006.5024
  23673571.485    -8192893.593 8  -6369023.92545  23673571.007    23673579.7954
  21398807.193    -3018275.803 9  -2343244.19547  21398806.864    21398813.2454
  22550559.766   -11437436.102 8  -8887508.28046  22550559.013    22550565.2854
 99  9 14 17 21  0.0000000  0  8 17 08 29 23 21 09 03 31
  22379922.220     8365524.582 8   6513150.20646  22379921.552    22379930.1754
  23979882.106    -6290820.601 7  -4657503.66245  23979881.404    23979892.1894
  21102992.154   -14446763.985 9 -11237719.77847  21102992.122    21102998.3734
  21618232.378     4833544.344 9   3721835.32847  21618231.809    21618238.5684
  20740587.015    -6280013.145 9  -4623076.12147  20740586.551    20740592.9834
  23670259.658    -8210297.609 8  -6382585.41045  23670259.101    23670267.8054
  21404089.725    -2990516.075 9  -2321613.25247  21404089.377    21404095.7454
  22542188.997   -11481424.573 8  -8921784.99346  22542188.288    22542194.6214
 99  9 14 17 21 30.0000000  0  8 17 08 29 23 21 09 03 31
  22395538.085     8447585.857 8   6577093.96446  22395537.372    22395546.0944
  23964507.375    -6371615.230 8  -4720460.48445  23964506.837    23964517.5934
  21090509.331   -14512361.833 9 -11288834.95147  21090509.245    21090515.5244
  21627998.979     4884868.008 9   3761827.76647  21627998.418    21628005.1584
  20737218.979    -6297712.788 9  -4636868.05447  20737218.462    20737224.8584
  23667045.978    -8227184.697 8  -6395744.09445  23667045.635    23667054.4184
  21409484.684    -2962165.311 9  -2299521.77247  21409484.382    21409490.7024
  22533922.922   -11524862.589 8  -8955632.79646  22533922.310    22533928.7164
 99  9 14 17 22  0.0000000  0  8 17 08 29 23 21 09 03 31
  22411205.029     8529915.442 8   6641246.77346  22411204.246    22411213.0844
  23949174.288    -6452192.538 8  -4783247.94845  23949173.612    23949184.3934
  21078106.722   -14577537.648 9 -11339621.25747  21078106.631    21078112.9704
  21637796.468     4936353.798 9   3801946.54447  21637795.866    21637802.6234
  20733897.014    -6315170.079 9  -4650471.13947  20733896.492    20733902.8854
  23663930.771    -8243554.716 8  -6408499.88445  23663930.442    23663939.0044
  21414988.218    -2933244.356 9  -2276985.98747  21414987.922    21414994.2124
  22525764.707   -11567734.568 8  -8989039.52746  22525764.068    22525770.5464
 99  9 14 17 22 30.0000000  0  8 17 08 29 23 21 09 03 31
  22426924.865     8612524.045 8   6705617.00646  22426924.163    22426933.1324
  23933883.196    -6532547.381 8  -4845862.04345  23933882.557    23933893.2774
  21065782.718   -14642300.377 9 -11390085.69547  21065782.672    21065789.0774
  21647625.505     4988005.737 9   3842194.77347  21647624.921    21647631.7334
  20730623.322    -6332373.531 9  -4663876.43647  20730622.798    20730629.1874
  23660917.555    -8259388.558 8  -6420837.86745  23660917.337    23660926.0414
  21420596.855    -2903770.911 9  -2254019.69647  21420596.529    21420602.8664
  22517713.923   -11610041.740 8  -9022006.15646  22517713.292    22517719.8024
 99  9 14 17 23  0.0000000  0  8 17 08 29 23 21 09 03 31
  22442700.965     8695427.331 8   6770216.86746  22442700.242    22442709.1534
  23918634.706    -6612678.784 8  -4908302.00345  23918634.034    23918644.8684
  21053536.305   -14706655.797 9 -11440232.74147  21053536.220    21053542.6074
  21657488.264     5039834.634 9   3882580.89947  21657487.663    21657494.4414
  20727400.183    -6349311.219 9  -4677074.63547  20727399.650    20727406.0654
  23658010.733    -8274663.378 8  -6432740.24645  23658010.501    23658019.4034
  21426311.106    -2873742.637 9  -2230621.06947  21426310.754    21426317.0824
  22509768.648   -11651794.025 8  -9054540.39446  22509768.052    22509774.6274
 99  9 14 17 23 30.0000000  0  8 17 08 29 23 21 09 03 31
  22458535.168     8778636.355 8   6835054.97046  22458534.421    22458543.2924
  23903433.920    -6692559.664 8  -4970546.75845  23903433.258    23903443.9724
  21041369.206   -14770594.487 9 -11490055.07447  21041369.133    21041375.4644
  21667385.556     5091845.039 8   3923108.45447  21667384.962    21667391.7464
  20724228.994    -6365975.856 9  -4690060.07547  20724228.495    20724234.9044
  23655212.832    -8289366.137 8  -6444196.88245  23655212.707    23655221.4894
  21432132.647    -2843150.422 9  -2206783.01547  21432132.273    21432138.6284
  22501928.901   -11692991.915 8  -9086642.64546  22501928.329    22501934.8694
 99  9 14 17 24  0.0000000  0  8 17 08 29 23 21 09 03 31
  22474429.307     8862160.804 8   6900138.84546  22474428.657    22474437.6374
  23888283.544    -6772175.236 8  -5032584.78045  23888282.896    23888293.5414
  21029283.044   -14834107.588 9 -11539545.76947  21029282.980    21029289.3354
  21677318.007     5144040.753 9   3963780.41147  21677317.485    21677324.2974
  20721109.371    -6382369.295 9  -4702834.18347  20721108.915    20721115.3234
  23652521.557    -8303508.821 8  -6455217.10645  23652521.301    23652530.4134
  21438060.977    -2811996.390 8  -2182507.17847  21438060.679    21438067.0634
  22494193.490   -11733641.915 8  -9118317.97046  22494192.964    22494199.3964
 99  9 14 17 24 30.0000000  0  8 17 08 29 23 21 09 03 31
  22490385.141     8946009.349 8   6965475.25846  22490384.491    22490393.6254
  23873183.094    -6851527.804 8  -5094417.84345  23873182.401    23873193.1684
  21017281.860   -14897174.138 9 -11588688.50547  21017281.779    21017288.1074
  21687284.273     5196413.408 9   4004590.24047  21687283.726    21687290.5294
  20718044.146    -6398477.028 9  -4715385.66347  20718043.667    20718050.1034
  23649937.403    -8317087.438 8  -6465797.76845  23649937.309    23649946.1984
  21444097.900    -2780272.484 9  -2157787.28447  21444097.560    21444103.9624
  22486562.917   -11773741.320 8  -9149564.23946  22486562.337    22486568.6704
 99  9 14 17 25  0.0000000  0  8 17 08 29 23 21 09 03 31
  22506403.704     9030186.704 8   7031067.89146  22506403.071    22506412.1404
  23858132.542    -6930618.129 8  -5156046.56745  23858131.859    23858142.6924
  21005368.320   -14959780.172 9 -11637472.40047  21005368.236    21005374.5714
  21697284.067     5248962.094 9   4045537.23947  21697283.473    21697290.2654
  20715033.545    -6414298.202 9  -4727713.85347  20715033.041    20715039.4474
  23647461.262    -8330099.238 8  -6475936.76345  23647461.223    23647469.9534
  21450245.207    -2747968.225 9  -2132615.15947  21450244.875    21450251.2854
  22479039.765   -11813275.830 8  -9180370.35546  22479039.225    22479045.4564
 99  9 14 17 25 30.0000000  0  8 17 08 29 23 21 09 03 31
  22522481.869     9114677.351 8   7096904.64346  22522481.240    22522490.3484
  23843131.691    -7009447.585 8  -5217471.99145  23843130.964    23843141.8504
  20993544.788   -15021913.087 9 -11685887.62947  20993544.691    20993551.0364
  21707312.607     5301662.464 9   4086602.43447  21707312.011    21707318.8424
  20712075.262    -6429844.389 9  -4739827.76747  20712074.719    20712081.0834
  23645093.855    -8342539.772 8  -6485630.65045  23645093.882    23645102.4744
  21456500.738    -2715095.104 9  -2106999.77247  21456500.444    21456506.8524
  22471626.794   -11852230.558 8  -9210724.68446  22471626.377    22471632.6334
 99  9 14 17 26  0.0000000  0  8 17 08 29 23 21 09 03 31
  22538617.498     9199469.767 8   7162976.55446  22538616.820    22538625.8704
  23828176.601    -7088036.024 8  -5278709.64345  23828176.047    23828186.8254
  20981812.302   -15083567.980 9 -11733930.37547  20981812.184    20981818.4754
  21717366.747     5354497.519 8   4127772.57847  21717366.220    21717373.1024
  20709168.457    -6445119.387 9  -4751730.36147  20709167.961    20709174.3624
  23642835.551    -8354406.721 8  -6494877.57345  23642835.556    23642844.1884
  21462861.842    -2681667.430 9  -2080952.26547  21462861.500    21462867.9594
  22464324.728   -11890602.620 8  -9240625.00346  22464324.382    22464330.6354
 99  9 14 17 26 30.0000000  0  8 17 08 29 23 21 09 03 31
  22554808.110     9284551.169 8   7229273.62346  22554807.391    22554816.3974
  23813267.893    -7166382.291 7  -5339758.53745  23813267.100    23813277.8854
  20970170.076   -15144747.928 9 -11781603.03847  20970170.013    20970176.2904
  21727446.860     5407468.827 8   4169048.89047  21727446.332    21727453.2174
  20706310.879    -6460136.135 9  -4763431.73147  20706310.400    20706316.8094
  23640688.747    -8365687.975 8  -6503668.08945  23640688.742    23640697.3354
  21469327.860    -2647688.343 9  -2054475.09347  21469327.544    21469334.0134
  22457132.825   -11928396.837 8  -9270075.03046  22457132.351    22457138.6564
 99  9 14 17 27  0.0000000  0  8 17 08 29 23 21 09 03 31
  22571053.339     9369920.259 8   7295794.87346  22571052.665    22571061.7814
  23798407.578    -7244472.591 8  -5400608.00445  23798406.985    23798417.8274
  20958616.126   -15205464.409 9 -11828914.55847  20958616.032    20958622.3084
  21737554.080     5460582.399 8   4210436.05547  21737553.535    21737560.4444
  20703497.325    -6474921.492 9  -4774952.79647  20703496.807    20703503.2434
  23638651.005    -8376396.660 8  -6512012.44845  23638650.942    23638659.3794
  21475898.191    -2613161.464 9  -2027571.05947  21475897.825    21475904.3214
  22450049.265   -11965621.414 8  -9299081.19946  22450048.745    22450055.0494
 99  9 14 17 27 30.0000000  0  8 17 08 29 23 21 09 03 31
  22587350.697     9455563.107 8   7362529.44646  22587350.072    22587359.0854
  23783597.930    -7322297.635 8  -5461250.74645  23783597.279    23783608.0744
  20947148.707   -15265726.206 9 -11875871.77347  20947148.601    20947154.8644
  21747687.028     5513831.289 9   4251928.67147  21747686.490    21747693.4164
  20700724.182    -6489494.248 9  -4786308.18647  20700723.697    20700730.1684
  23636716.524    -8386562.736 8  -6519934.03345  23636716.402    23636724.6814
  21482572.466    -2578088.166 9  -2000241.23947  21482572.105    21482578.5264
  22443071.067   -12002292.510 8  -9327656.05746  22443070.486    22443076.7774
 99  9 14 17 28  0.0000000  0  8 17 08 29 23 21 09 03 31
  22603700.291     9541479.832 8   7429477.43146  22603699.644    22603708.4644
  23768839.632    -7399852.720 8  -5521683.15445  23768838.976    23768849.7554
  20935766.139   -15325541.394 9 -11922480.98947  20935766.111    20935772.3854
  21757846.692     5567220.391 8   4293530.52547  21757846.106    21757853.0324
  20697991.553    -6503854.294 9  -4797497.84147  20697991.069    20697997.5464
  23634881.482    -8396206.183 8  -6527448.33545  23634881.292    23634889.6734
  21489349.963    -2542471.755 9  -1972488.23547  21489349.722    21489356.1604
  22436198.153   -12038410.476 8  -9355799.93146  22436197.514    22436203.7824
 99  9 14 17 28 30.0000000  0  8 17 08 29 23 21 09 03 31
  22620102.522     9627673.676 8   7496641.34946  22620101.869    22620110.7174
  23754134.198    -7477129.756 8  -5581898.89845  23754133.556    23754144.2724
  20924467.559   -15384915.781 9 -11968746.71047  20924467.493    20924473.7904
  21768035.391     5620762.237 9   4335251.42847  21768034.823    21768041.6984
  20695297.563    -6518011.768 9  -4808529.63547  20695297.034    20695303.4874
  23633143.716    -8405338.852 8  -6534564.62845  23633143.385    23633151.6564
  21496230.372    -2506315.959 9  -1944314.91647  21496230.020    21496236.4644
  22429430.448   -12073975.058 8  -9383512.57146  22429429.799    22429436.1004
 99  9 14 17 29  0.0000000  0  8 17 08 29 23 21 09 03 31
  22636555.902     9714135.724 8   7564014.24646  22636555.239    22636564.0124
  23739480.180    -7554136.736 8  -5641904.19445  23739479.541    23739490.2634
  20913252.388   -15443851.820 9 -12014670.87247  20913252.337    20913258.5814
  21778249.524     5674437.671 8   4377076.40847  21778248.952    21778255.7884
  20692644.719    -6531952.697 9  -4819392.69747  20692644.181    20692650.6294
  23631502.974    -8413961.440 8  -6541283.47645  23631502.601    23631510.8284
  21503214.555    -2469613.720 9  -1915715.80647  21503214.254    21503220.6784
  22422767.689   -12108987.701 8  -9410795.15546  22422767.071    22422773.4244
 99  9 14 17 29 30.0000000  0  8 17 08 29 23 21 09 03 31
  22653056.272     9800845.255 8   7631579.99746  22653055.625    22653064.3904
  23724876.932    -7630877.097 8  -5701701.75545  23724876.340    23724886.8674
  20902122.271   -15502340.777 9 -12060246.65047  20902122.192    20902128.4434
  21788489.822     5728250.638 8   4419008.56047  21788489.233    21788496.0944
  20690038.951    -6545645.975 9  -4830062.78247  20690038.454    20690044.8774
  23629964.498    -8422045.544 8  -6547582.70845  23629964.177    23629972.4474
  21510303.141    -2432363.018 9  -1886689.31047  21510302.867    21510309.2524
  22416211.566   -12143440.591 8  -9437641.55446  22416210.940    22416217.3274
 99  9 14 17 30  0.0000000  0  8 17 08 29 23 21 09 03 31
  22669606.570     9887816.581 8   7699349.74146  22669605.829    22669614.5554
  23710326.150    -7707340.850 7  -5761283.73945  23710325.484    23710336.2064
  20891079.246   -15560372.139 9 -12105465.86547  20891079.167    20891085.4014
  21798759.485     5782218.186 8   4461061.16447  21798758.923    21798765.8584
  20687485.114    -6559066.660 9  -4840520.45947  20687484.592    20687491.0084
  23628536.750    -8429549.128 8  -6553429.60245  23628536.305    23628544.6064
  21517494.737    -2394570.691 9  -1857240.78847  21517494.508    21517500.9454
  22409764.118   -12177321.582 8  -9464042.32146  22409763.554    22409769.9534
 99  9 14 17 30 30.0000000  0  8 17 08 29 23 21 09 03 31
  22686208.464     9975060.482 8   7767331.87946  22686207.815    22686216.5424
  23695831.412    -7783510.599 8  -5820636.65245  23695830.798    23695841.2414
  20880124.648   -15617939.151 9 -12150323.24947  20880124.551    20880130.7414
  21809061.690     5836356.843 8   4503247.10147  21809061.151    21809068.1594
  20684987.471    -6572191.943 9  -4850747.95447  20684986.942    20684993.3614
  23627223.783    -8436448.686 8  -6558805.79445  23627223.353    23627231.6904
  21524793.059    -2356218.117 8  -1827355.69247  21524792.806    21524799.2234
  22403424.687   -12210635.471 8  -9490001.18446  22403424.122    22403430.4404
 99  9 14 17 31  0.0000000  0  8 17 08 29 23 21 09 03 31
  22702862.670    10062577.749 8   7835527.03546  22702861.945    22702870.6584
  23681397.047    -7859363.674 8  -5879742.80845  23681396.441    23681406.7134
  20869260.515   -15675030.397 9 -12194809.90847  20869260.441    20869266.6164
  21819398.193     5890675.147 8   4545573.02947  21819397.605    21819404.6004
  20682549.461    -6585003.270 9  -4860730.80547  20682548.969    20682555.4494
  23626028.597    -8442728.852 8  -6563699.35045  23626028.162    23626036.4354
  21532200.343    -2317292.684 9  -1797024.22647  21532200.068    21532206.5494
  22397195.453   -12243370.204 8  -9515508.76546  22397194.954    22397201.1794
 99  9 14 17 31 30.0000000  0  8 17 08 29 23 21 09 03 31
  22719573.661    10150394.573 8   7903955.60146  22719573.096    22719581.8474
  23667025.355    -7934887.519 7  -5938592.38745  23667024.551    23667034.8364
  20858486.685   -15731647.524 9 -12238927.11647  20858486.570    20858492.7424
  21829772.946     5945194.833 9   4588055.86947  21829772.373    21829779.3924
  20680170.125    -6597506.714 9  -4870473.74747  20680169.637    20680176.0894
  23624951.137    -8448389.714 8  -6568110.33045  23624950.797    23624959.1514
  21539714.438    -2277805.954 9  -1766255.38047  21539714.146    21539720.6744
  22391078.808   -12275513.957 8  -9540555.83846  22391078.279    22391084.4804
 99  9 14 17 32  0.0000000  0  8 17 08 29 23 21 09 03 31
  22736346.258    10238534.838 8   7972636.20846  22736345.595    22736354.4254
  23652715.180    -8010087.257 8  -5997189.42345  23652714.506    23652724.8114
  20847802.032   -15787795.544 9 -12282678.80647  20847801.937    20847808.0464
  21840184.446     5999907.226 8   4630688.86747  21840183.865    21840190.7944
  20677846.587    -6609717.444 9  -4879988.60947  20677846.055    20677852.4534
  23623986.536    -8453458.352 8  -6572059.86645  23623986.156    23623994.5834
  21547335.015    -2237760.029 8  -1735050.80347  21547334.701    21547341.1984
  22385076.102   -12307058.705 8  -9565136.16746  22385075.515    22385081.6824
 99  9 14 17 32 30.0000000  0  8 17 08 29 23 21 09 03 31
  22753176.868    10326980.667 8   8041554.90246  22753176.263    22753185.2314
  23638463.617    -8084980.685 8  -6055547.80545  23638462.793    23638472.9364
  20837204.219   -15843487.182 9 -12326074.85247  20837204.134    20837210.2974
  21850630.731     6054802.616 8   4673464.46647  21850630.173    21850637.0924
  20675575.326    -6621652.832 9  -4889288.90647  20675574.808    20675581.2324
  23623129.057    -8457963.233 8  -6575570.09345  23623128.738    23623137.3234
  21555063.620    -2197145.657 9  -1703403.27947  21555063.320    21555069.8794
  22379186.868   -12338006.913 8  -9589251.65046  22379186.292    22379192.4804
 99  9 14 17 33  0.0000000  0  8 17 08 29 23 21 09 03 31
  22770063.504    10415719.954 8   8110702.27946  22770062.914    22770071.8964
  23624266.271    -8159587.138 8  -6113682.55445  23624265.482    23624275.4334
  20826692.641   -15898725.621 9 -12369117.75747  20826692.551    20826698.7734
  21861109.978     6109871.367 8   4716375.15047  21861109.359    21861116.3204
  20673352.750    -6633332.724 9  -4898390.12647  20673352.226    20673358.5974
  23622376.258    -8461918.889 8  -6578652.34545  23622375.940    23622384.4784
  21562898.527    -2155973.260 8  -1671320.92847  21562898.176    21562904.7364
  22373412.482   -12368351.022 8  -9612896.42346  22373411.949    22373418.1124
 99  9 14 17 33 30.0000000  0  8 17 08 29 23 21 09 03 31
  22787004.115    10504743.296 8   8180070.97946  22787003.525    22787012.5794
  23610119.612    -8233926.133 7  -6171608.86645  23610118.776    23610129.1004
  20816267.413   -15953510.929 9 -12411807.59047  20816267.338    20816273.4734
  21871617.975     6165091.139 8   4759403.51447  21871617.374    21871624.3274
  20671176.609    -6644768.782 9  -4907301.34847  20671176.053    20671182.3734
  23621726.156    -8465334.751 8  -6581313.98745  23621725.790    23621734.4524
  21570836.359    -2114259.724 8  -1638816.92047  21570836.041    21570842.6144
  22367753.459   -12398089.223 8  -9636069.04546  22367752.987    22367759.0874
 99  9 14 17 34  0.0000000  0  8 17 08 29 23 21 09 03 31
  22803992.041    10594014.742 8   8249633.02746  22803991.355    22804000.4984
  23596025.604    -8307989.573 8  -6229320.48145  23596024.892    23596035.0814
  20805928.959   -16007839.748 9 -12454141.69347  20805928.855    20805935.0144
  21882151.072     6220442.566 8   4802534.46947  21882150.452    21882157.4054
  20669044.084    -6655974.770 9  -4916033.27847  20669043.589    20669049.9464
  23621179.248    -8468208.172 8  -6583552.92845  23621178.908    23621187.4454
  21578876.910    -2072006.644 8  -1605892.47947  21578876.604    21578883.1854
  22362208.593   -12427227.588 8  -9658774.26346  22362208.095    22362214.3004
 99  9 14 17 34 30.0000000  0  8 17 08 29 23 21 09 03 31
  22821023.963    10683518.287 8   8319375.92346  22821023.344    22821032.5234
  23581987.436    -8381759.757 8  -6286803.62245  23581986.840    23581996.8894
  20795678.744   -16061704.602 9 -12496114.28047  20795678.651    20795684.7934
  21892707.697     6275917.808 8   4845761.90647  21892707.064    21892714.0464
  20666955.223    -6666951.765 9  -4924586.77947  20666954.715    20666961.0874
  23620738.318    -8470524.852 8  -6585358.07145  23620738.023    23620746.5624
  21587017.296    -2029228.619 8  -1572558.99247  21587016.969    21587023.5494
  22356773.755   -12455787.870 8  -9681029.02946  22356773.208    22356779.4634
 99  9 14 17 35  0.0000000  0  8 17 08 29 23 21 09 03 31
  22838102.802    10773268.860 8   8389311.30046  22838102.350    22838111.6674
  23568009.639    -8455213.653 8  -6344040.28645  23568008.987    23568018.9674
  20785522.425   -16115076.211 9 -12537702.52347  20785522.352    20785528.4924
  21903286.167     6331507.713 8   4889078.68547  21903285.541    21903292.4884
  20664912.257    -6677687.532 9  -4932952.31847  20664911.759    20664918.1414
  23620406.504    -8472268.913 8  -6586717.01245  23620406.183    23620414.6764
  21595254.550    -1985942.013 8  -1538829.21547  21595254.167    21595260.7504
  22351449.211   -12483768.012 8  -9702831.74946  22351448.675    22351455.0044
 99  9 14 17 35 30.0000000  0  8 17 08 29 23 21 09 03 31
  22855231.037    10863277.437 8   8459447.71246  22855230.492    22855239.8764
  23554098.008    -8528319.175 8  -6401005.48045  23554097.318    23554107.5274
  20775463.697   -16167934.891 9 -12578891.07247  20775463.646    20775469.7924
  21913887.075     6387215.662 8   4932487.45647  21913886.392    21913893.3134
  20662916.414    -6688175.869 9  -4941125.04847  20662915.901    20662922.3064
  23620187.542    -8473418.911 8  -6587613.03845  23620187.404    23620195.8434
  21603589.836    -1942139.913 8  -1504697.75247  21603589.486    21603596.0474
  22346232.935   -12511179.609 8  -9724191.42646  22346232.435    22346238.7694
 99  9 14 17 36  0.0000000  0  8 17 08 29 23 21 09 03 31
  22872411.598    10953560.946 8   8529798.37746  22872410.900    22872420.4744
  23540255.111    -8601063.938 8  -6457689.55845  23540254.371    23540264.6274
  20765503.377   -16220276.687 9 -12619676.84847  20765503.281    20765509.4284
  21924513.216     6443056.844 8   4976000.04147  21924512.646    21924519.5894
  20660969.559    -6698406.813 9  -4949097.21147  20660969.039    20660975.4634
  23620082.307    -8473971.961 8  -6588043.94845  23620082.127    23620090.5184
  21612024.931    -1897813.072 8  -1470157.39047  21612024.627    21612031.2244
  22341122.802   -12538033.947 8  -9745116.87746  22341122.253    22341128.5814
 99  9 14 17 36 30.0000000  0  8 17 08 29 23 21 09 03 31
  22889649.686    11044147.584 8   8600385.21746  22889648.996    22889658.6644
  23526479.873    -8673452.555 8  -6514096.14645  23526479.128    23526489.2874
  20755644.802   -16272083.644 9 -12660045.87947  20755644.746    20755650.8154
  21935169.532     6499056.188 8   5019635.86647  21935168.978    21935175.9524
  20659075.889    -6708358.448 9  -4956851.73447  20659075.330    20659081.7604
  23620091.243    -8473925.228 8  -6588007.46945  23620091.101    23620099.3574
  21620561.900    -1852951.333 8  -1435200.23247  21620561.527    21620568.1424
  22336121.573   -12564315.835 8  -9765596.27146  22336120.985    22336127.3244
 99  9 14 17 37  0.0000000  0  8 17 08 29 23 21 09 03 31
  22906946.778    11135043.683 8   8671213.23546  22906946.091    22906955.6984
  23512771.738    -8745488.873 8  -6570228.21245  23512771.048    23512781.0854
  20745886.192   -16323366.183 9 -12700006.26947  20745886.102    20745892.0304
  21945858.764     6555228.531 8   5063406.49947  21945858.258    21945865.2354
  20657232.538    -6718044.957 9  -4964399.66247  20657232.016    20657238.4684
  23620215.444    -8473272.128 8  -6587498.49145  23620215.225    23620223.5764
  21629203.208    -1807540.769 8  -1399815.41647  21629202.864    21629209.5064
  22331234.487   -12589998.059 8  -9785608.38846  22331233.859    22331240.1584
 99  9 14 17 37 30.0000000  0  8 17 08 29 23 21 09 03 31
  22924301.155    11226240.087 8   8742275.23046  22924300.436    22924310.0264
  23499128.182    -8817185.424 8  -6626095.52145  23499127.473    23499137.5334
  20736217.995   -16374172.614 9 -12739595.66647  20736217.905    20736223.8524
  21956580.308     6611570.115 8   5107309.00247  21956579.736    21956586.6974
  20655436.140    -6727484.908 9  -4971755.47547  20655435.649    20655442.0964
  23620452.352    -8472028.611 8  -6586529.48745  23620451.952    23620460.2284
  21637947.541    -1761589.186 8  -1364009.03347  21637947.211    21637953.8614
  22326461.036   -12615082.435 8  -9805154.65746  22326460.473    22326466.6904
 99  9 14 17 38  0.0000000  0  8 17 08 29 23 21 09 03 31
  22941708.367    11317715.036 8   8813554.29246  22941707.626    22941717.2144
  23485543.544    -8888573.194 8  -6681722.23145  23485542.787    23485552.8004
  20726634.322   -16424535.075 9 -12778839.11247  20726634.230    20726640.1724
  21967331.537     6668067.891 8   5151333.20847  21967330.943    21967337.8694
  20653684.859    -6736688.116 9  -4978926.81147  20653684.362    20653690.8164
  23620795.237    -8470225.856 8  -6585124.65745  23620794.775    23620803.1864
  21646789.866    -1715122.677 8  -1327801.41147  21646789.519    21646796.1784
  22321803.152   -12639559.917 8  -9824228.02146  22321802.578    22321808.7944
 99  9 14 17 38 30.0000000  0  8 17 08 29 23 21 09 03 31
  22959164.424    11409447.128 8   8885033.70745  22959163.712    22959173.3744
  23472016.247    -8959659.291 8  -6737113.86646  23472015.562    23472025.4784
  20717130.534   -16474477.766 9 -12817755.46047  20717130.449    20717136.3924
  21978110.161     6724709.909 8   5195469.82247  21978109.561    21978116.5124
  20651976.841    -6745663.763 9  -4985920.82047  20651976.335    20651982.7814
  23621245.592    -8467859.214 8  -6583280.49845  23621245.072    23621253.5184
  21655728.398    -1668150.704 8  -1291199.90547  21655728.032    21655734.7394
  22317259.542   -12663436.697 8  -9842833.30646  22317259.023    22317265.2714
 99  9 14 17 39  0.0000000  0  8 17 08 29 23 21 09 03 31
  22976666.682    11501422.069 8   8956702.36445  22976666.084    22976675.7614
  23458547.782    -9030436.447 8  -6792264.78046  23458547.076    23458556.9864
  20707702.711   -16524020.818 9 -12856360.40447  20707702.626    20707708.6104
  21988911.552     6781471.371 8   5239699.50347  21988910.914    21988917.9044
  20650311.091    -6754417.418 9  -4992741.85747  20650310.607    20650317.0174
  23621800.459    -8464942.503 8  -6581007.70045  23621800.078    23621808.5654
  21664760.528    -1620686.733 8  -1254215.03847  21664760.198    21664766.8444
  22312826.649   -12686732.372 8  -9860985.78046  22312826.072    22312832.2284
 99  9 14 17 39 30.0000000  0  8 17 08 29 23 21 09 03 31
  22994213.856    11593632.147 8   9028554.25345  22994213.217    22994222.7804
  23445138.041    -9100903.988 8  -6847174.41646  23445137.350    23445147.3624
  20698354.984   -16573143.221 9 -12894637.56547  20698354.887    20698360.9614
  21999734.877     6838348.212 8   5284019.09447  21999734.251    21999741.2334
  20648692.134    -6762925.238 9  -4999371.33447  20648691.648    20648698.0534
  23622457.604    -8461489.404 8  -6578316.94445  23622457.113    23622465.5624
  21673886.747    -1572728.482 9  -1216845.01647  21673886.401    21673893.0434
  22308500.769   -12709464.724 8  -9878699.29846  22308500.247    22308506.4074
 99  9 14 17 40  0.0000000  0  8 17 08 29 23 21 09 03 31
  23011805.668    11686077.011 8   9100589.09345  23011805.048    23011814.6504
  23431791.476    -9171039.983 8  -6901825.70046  23431790.799    23431800.7394
  20689096.921   -16621794.391 9 -12932547.53747  20689096.836    20689102.9224
  22010583.655     6895359.264 8   5328443.25747  22010583.051    22010590.0284
  20647123.551    -6771168.145 9  -5005794.38347  20647123.054    20647129.4554
  23623221.931    -8457471.689 8  -6575186.20345  23623221.554    23623230.0854
  21683111.747    -1524251.163 8  -1179070.52247  21683111.374    21683118.0484
  22304282.788   -12731630.126 8  -9895971.03846  22304282.317    22304288.4564
 99  9 14 17 40 30.0000000  0  8 17 08 29 23 21 09 03 31
  23029445.972    11778776.510 8   9172822.34145  23029445.367    23029454.9204
  23418514.102    -9240812.761 8  -6956193.97246  23418513.461    23418523.2414
  20679933.823   -16669946.898 9 -12970068.94547  20679933.710    20679939.8164
  22021459.430     6952512.183 8   5372977.95647  22021458.891    22021465.8644
  20645606.921    -6779137.899 9  -5012004.58847  20645606.434    20645612.8804
  23624098.398    -8452866.276 7  -6571597.55345  23624097.957    23624106.5094
  21692438.648    -1475237.856 8  -1140878.38747  21692438.327    21692445.0414
  22300174.716   -12753218.572 8  -9912793.20146  22300174.141    22300180.3164
 99  9 14 17 41  0.0000000  0  8 17 08 29 23 21 09 03 31
  23047135.924    11871737.389 8   9245259.27145  23047135.280    23047144.8024
  23405308.186    -9310209.878 8  -7010269.51246  23405307.563    23405317.4144
  20670869.806   -16717578.841 9 -13007184.71347  20670869.665    20670875.7524
  22032362.701     7009809.173 8   5417624.93747  22032362.183    22032369.1574
  20644141.700    -6786837.968 9  -5018004.64347  20644141.188    20644147.6404
  23625084.059    -8447685.702 8  -6567560.68745  23625083.705    23625092.3264
  21701867.722    -1425688.482 8  -1102268.52647  21701867.340    21701874.0364
  22296178.882   -12774216.102 8  -9929154.91646  22296178.397    22296184.5694
 99  9 14 17 41 30.0000000  0  8 17 08 29 23 21 09 03 31
  23064875.618    11964960.334 8   9317900.38045  23064875.169    23064884.7514
  23392173.840    -9379230.839 8  -7064051.94546  23392173.246    23392182.9944
  20661907.266   -16764677.042 9 -13043884.58247  20661907.129    20661913.2164
  22043294.670     7067256.695 8   5462389.20147  22043294.095    22043301.1114
  20642728.210    -6794265.622 9  -5023792.43047  20642727.747    20642734.2054
  23626183.666    -8441907.813 7  -6563058.42945  23626183.264    23626191.9364
  21711398.535    -1375603.785 8  -1063241.53247  21711398.162    21711404.8344
  22292297.273   -12794613.977 8  -9945049.36746  22292296.804    22292303.0094
 99  9 14 17 42  0.0000000  0  8 17 08 29 23 21 09 03 31
  23082667.530    12058456.623 8   9390754.48245  23082666.932    23082676.6384
  23379113.001    -9447866.045 8  -7117533.78346  23379112.367    23379121.9684
  20653044.001   -16811253.728 9 -13080178.07447  20653043.905    20653049.9014
  22054254.851     7124852.331 8   5507268.88847  22054254.287    22054261.2454
  20641366.964    -6801419.052 9  -5029366.53147  20641366.529    20641372.9874
  23627399.313    -8435518.740 7  -6558079.89645  23627398.922    23627407.7024
  21721027.580    -1325002.827 8  -1023812.25847  21721027.246    21721033.8964
  22288531.686   -12814402.461 8  -9960468.95746  22288531.231    22288537.3064
 99  9 14 17 42 30.0000000  0  8 17 08 29 23 21 09 03 31
  23100511.436    12152226.037 8   9463821.43545  23100510.879    23100520.4504
  23366125.381    -9516115.647 8  -7170715.13346  23366124.749    23366134.3804
  20644278.791   -16857315.212 9 -13116070.11547  20644278.673    20644284.6374
  22065242.721     7182593.839 8   5552262.23547  22065242.160    22065249.1174
  20640059.082    -6808292.038 9  -5034722.10547  20640058.635    20640065.1214
  23628728.404    -8428534.330 7  -6552637.48845  23628727.942    23628736.7454
  21730752.108    -1273900.215 8   -983992.08647  21730751.764    21730758.4744
  22284883.989   -12833571.612 8  -9975405.95746  22284883.496    22284889.5954
 99  9 14 17 43  0.0000000  0  8 17 08 29 23 21 09 03 31
  23118406.106    12246261.966 8   9537096.04545  23118405.491    23118415.1154
  23353212.001    -9583975.223 8  -7223592.57146  23353211.338    23353220.9734
  20635609.998   -16902869.709 9 -13151567.09847  20635609.895    20635615.8434
  22076261.150     7240495.776 8   5597380.59947  22076260.543    22076267.5494
  20638805.162    -6814881.796 9  -5039856.98147  20638804.663    20638811.1034
  23630171.432    -8420950.367 8  -6546727.87245  23630171.063    23630179.8444
  21740571.315    -1222300.149 8   -943784.29147  21740570.986    21740577.6624
  22281353.363   -12852124.727 8  -9989862.93946  22281352.910    22281359.0494
 99  9 14 17 43 30.0000000  0  8 17 08 29 23 21 09 03 31
  23136350.873    12340561.683 8   9610576.18545  23136350.198    23136359.9674
  23340372.998    -9651443.423 8  -7276165.04645  23340372.336    23340382.0264
  20627036.459   -16947923.828 9 -13186674.17547  20627036.370    20627042.3134
  22087310.998     7298563.502 8   5642628.14547  22087310.423    22087317.4824
  20637606.082    -6821182.961 9  -5044766.98147  20637605.593    20637612.0004
  23631730.975    -8412755.028 8  -6540341.85845  23631730.534    23631739.1874
  21750485.574    -1170200.387 9   -903187.10147  21750485.282    21750491.9094
  22277939.669   -12870063.544 8 -10003841.22746  22277939.254    22277945.3434
 99  9 14 17 44  0.0000000  0  8 17 08 29 23 21 09 03 31
  23154344.056    12435116.108 7   9684254.80645  23154343.352    23154353.1994
  23327609.881    -9718513.071 8  -7328426.96245  23327609.223    23327618.8424
  20618556.430   -16992486.865 9 -13221398.59647  20618556.301    20618562.1794
  22098391.085     7356789.751 8   5687999.20647  22098390.523    22098397.6494
  20636458.582    -6827213.134 9  -5049465.82147  20636458.087    20636464.4934
  23633402.451    -8403970.311 7  -6533496.60745  23633402.096    23633410.6984
  21760496.111    -1117595.049 8   -862195.97847  21760495.792    21760502.4614
  22274644.690   -12887379.005 8 -10017333.79246  22274644.255    22274650.3724
 99  9 14 17 44 30.0000000  0  8 17 08 29 23 21 09 03 31
  23172381.985    12529906.209 8   9758117.05045  23172381.404    23172391.2444
  23314921.030    -9785192.111 8  -7380384.51445  23314920.377    23314930.2204
  20610165.929   -17036578.943 9 -13255756.03947  20610165.809    20610171.6944
  22109500.452     7415168.776 8   5733489.31947  22109499.771    22109506.8354
  20635354.270    -6833016.471 9  -5053987.90847  20635353.782    20635360.1714
  23635183.499    -8394610.976 7  -6526203.61145  23635183.313    23635191.7944
  21770602.544    -1064485.305 8   -820811.81347  21770602.265    21770608.9644
  22271467.359   -12904076.475 8 -10030344.80846  22271466.844    22271472.9624
 99  9 14 17 45  0.0000000  0  8 17 08 29 23 21 09 03 31
  23190463.717    12624925.647 8   9832158.02145  23190463.026    23190472.9914
  23302302.195    -9851503.489 7  -7432055.56545  23302301.583    23302311.3794
  20601858.491   -17080234.798 9 -13289773.56047  20601858.390    20601864.2934
  22120632.493     7473667.934 8   5779073.04747  22120631.865    22120638.9244
  20634285.032    -6838635.916 9  -5058366.69747  20634284.462    20634290.8544
  23637070.817    -8384692.486 7  -6518474.88445  23637070.557    23637079.2934
  21780800.651    -1010894.221 8   -779052.57647  21780800.346    21780807.0944
  22268401.522   -12920187.316 8 -10042898.70746  22268401.017    22268407.2164
 99  9 14 17 45 30.0000000  0  8 17 08 29 23 21 09 03 31
  23208587.917    12720167.940 8   9906372.64445  23208587.249    23208597.0854
  23289748.445    -9917473.033 8  -7483460.27545  23289747.903    23289757.6694
  20593634.757   -17123450.988 9 -13323448.48947  20593634.643    20593640.4974
  22131781.143     7532254.541 8   5824724.92247  22131780.517    22131787.5864
  20633247.107    -6844090.105 9  -5062616.72047  20633246.561    20633252.9514
  23639060.123    -8374238.652 7  -6510329.02645  23639059.800    23639068.4364
  21791086.664     -956841.218 8   -736933.39247  21791086.365    21791093.0594
  22265444.700   -12935724.670 8 -10055005.73546  22265444.264    22265450.5344
 99  9 14 17 46  0.0000000  0  8 17 08 29 23 21 09 03 31
  23226753.725    12815629.332 8   9980757.99545  23226753.064    23226763.0604
  23277258.751    -9983106.652 8  -7534603.22645  23277258.160    23277267.8284
  20585495.401   -17166224.073 9 -13356778.14147  20585495.228    20585501.0784
  22142945.424     7590922.877 8   5870440.47247  22142944.748    22142951.8084
  20632237.900    -6849393.241 9  -5066749.03747  20632237.389    20632243.7914
  23641150.299    -8363254.373 8  -6501769.82045  23641150.042    23641158.8114
  21801456.903     -902345.429 8   -694469.18647  21801456.556    21801463.2664
  22262595.645   -12950697.052 8 -10066672.53246  22262595.146    22262601.3914
 99  9 14 17 46 30.0000000  0  8 17 08 29 23 21 09 03 31
  23244960.144    12911304.745 8  10055310.11445  23244959.499    23244969.6384
  23264829.696   -10048421.656 8  -7585497.90845  23264829.074    23264838.7534
  20577437.896   -17208566.089 9 -13389771.89747  20577437.776    20577443.6094
  22154122.292     7649657.225 8   5916207.46147  22154121.600    22154128.6394
  20631258.020    -6854542.461 9  -5070761.42247  20631257.538    20631263.9194
  23643340.353    -8351745.923 8  -6492802.18345  23643340.016    23643348.8234
  21811905.707     -847436.723 8   -651683.22847  21811905.352    21811912.1044
  22259848.511   -12965132.880 8 -10077921.23846  22259848.068    22259854.2954
 99  9 14 17 47  0.0000000  0  8 17 08 29 23 21 09 03 31
  23263212.495    13007219.912 8  10130049.05845  23263211.804    23263221.9194
  23252465.513   -10113395.608 8  -7636126.83145  23252464.874    23252474.3804
  20569471.740   -17250428.391 9 -13422391.84147  20569471.611    20569477.4524
  22165315.435     7708477.383 8   5962041.32347  22165314.742    22165321.7934
  20630321.530    -6859463.910 9  -5074596.31847  20630321.026    20630327.3924
  23645634.695    -8339689.439 8  -6483407.50345  23645634.407    23645643.0254
  21822437.920     -792089.799 8   -608555.80947  21822437.600    21822444.4054
  22257209.629   -12979000.524 8 -10088727.18046  22257209.155    22257215.3154
 99  9 14 17 47 30.0000000  0  8 17 08 29 23 21 09 03 31
  23281514.038    13103394.739 8  10204990.31145  23281513.363    23281523.6434
  23240176.022   -10177976.743 8  -7686449.67845  23240175.462    23240184.8264
  20561607.615   -17291754.573 9 -13454594.03947  20561607.475    20561613.2754
  22176535.517     7767438.984 8   6007985.39247  22176534.804    22176541.8584
  20629442.947    -6864081.154 9  -5078194.17947  20629442.424    20629448.7974
  23648043.831    -8327030.049 8  -6473543.02645  23648043.490    23648051.9364
  21833065.689     -736240.718 8   -565037.09447  21833065.363    21833072.1874
  22254689.896   -12992242.424 8 -10099045.54546  22254689.359    22254695.4604
 99  9 14 17 48  0.0000000  0  8 17 08 29 23 21 09 03 31
  23299860.727    13199806.955 8  10280116.54445  23299860.063    23299870.3454
  23227961.335   -10242165.177 8  -7736466.53546  23227960.728    23227970.0634
  20553840.850   -17332568.950 9 -13486397.42347  20553840.732    20553846.5214
  22187781.151     7826535.121 8   6054034.30847  22187780.419    22187787.4714
  20628622.382    -6868393.171 9  -5081554.19547  20628621.842    20628628.2184
  23650567.333    -8313770.098 8  -6463210.57645  23650566.953    23650575.3434
  21843789.081     -679888.958 8   -521126.67747  21843788.780    21843795.6024
  22252287.207   -13004868.961 8 -10108884.39846  22252286.682    22252292.6964
 99  9 14 17 48 30.0000000  0  8 17 08 29 23 21 09 03 31
  23318251.537    13296451.225 8  10355423.61645  23318250.950    23318261.2544
  23215821.931   -10305957.808 8  -7786174.95446  23215821.361    23215830.6404
  20546169.901   -17372879.985 9 -13517808.59647  20546169.773    20546175.5914
  22199051.185     7885760.081 8   6100183.59247  22199050.557    22199057.6154
  20627863.011    -6872383.536 9  -5084663.57747  20627862.488    20627868.8654
  23653203.966    -8299914.810 8  -6452414.22945  23653203.498    23653211.9144
  21854610.059     -623024.671 8   -476816.88447  21854609.718    21854616.5954
  22250003.544   -13016869.993 8 -10118235.84046  22250002.963    22250008.9804
 99  9 14 17 49  0.0000000  0  9 17 08 29 23 21 15 09 03 31
  23336684.565    13393316.784 8  10430903.10645  23336683.999    23336694.2464
  23203760.166   -10369342.191 8  -7835565.27446  23203759.612    23203768.9574
  20538597.432   -17412673.378 9 -13548816.40947  20538597.315    20538603.1654
  22210349.481     7945132.510 8   6146447.78447  22210348.805    22210355.8934
  20627163.977    -6876057.361 9  -5087526.30847  20627163.412    20627169.7504
  24306890.924    -4526456.075 7  -3505477.70645  24306889.690    24306897.4724
  23655955.154    -8285457.151 8  -6441148.50945  23655954.623    23655962.9554
  21865530.866     -565635.721 8   -432098.27447  21865530.488    21865537.4084
  22247839.743   -13028240.233 8 -10127095.77946  22247839.251    22247845.3224
 99  9 14 17 49 30.0000000  0  9 17 08 29 23 21 15 09 03 31
  23355163.425    13490422.522 8  10506569.74645  23355162.807    23355173.0104
  23191781.875   -10432287.534 8  -7884613.50146  23191781.394    23191790.5804
  20531126.250   -17451934.784 9 -13579409.69248  20531126.127    20531131.9374
  22221679.298     8004670.616 8   6192841.07847  22221678.572    22221685.6234
  20626520.832    -6879437.309 9  -5090160.03747  20626520.267    20626526.5564
  24286742.436    -4632335.735 7  -3587981.31045  24286741.260    24286749.2534
  23658826.522    -8270367.378 8  -6429390.21545  23658826.026    23658834.5014
  21876552.703     -507715.312 8   -386965.53647  21876552.378    21876559.3374
  22245794.197   -13038990.004 8 -10135472.21846  22245793.628    22245799.7314
 99  9 14 17 50  0.0000000  0  9 17 08 29 23 21 15 09 03 31
  23373689.999    13587779.738 8  10582432.33845  23373689.381    23373699.4554
  23179887.925   -10494791.037 8  -7933317.43046  23179887.308    23179896.3344
  20523753.355   -17490679.628 9 -13609600.45848  20523753.231    20523759.0074
  22233038.979     8064365.905 8   6239356.85547  22233038.258    22233045.2254
  20625928.160    -6882551.780 9  -5092586.90447  20625927.607    20625933.9034
  24266602.872    -4738168.491 7  -3670448.36245  24266601.911    24266610.1224
  23661814.317    -8254665.856 8  -6417155.25145  23661813.878    23661822.2804
  21887669.321     -449297.290 8   -341445.05747  21887668.972    21887676.0194
  22243863.013   -13049138.578 8 -10143380.19346  22243862.424    22243868.5474
 99  9 14 17 50 30.0000000  0  9 17 08 29 23 21 15 09 03 31
  23392262.789    13685378.961 8  10658483.52145  23392262.043    23392272.0884
  23168078.048   -10556851.707 8  -7981676.27446  23168077.434    23168086.5954
  20516478.569   -17528908.944 9 -13639389.50948  20516478.418    20516484.1784
  22244427.858     8124214.701 8   6285992.25347  22244427.144    22244434.1264
  20625382.549    -6885418.911 9  -5094821.03247  20625382.035    20625388.3174
  24246471.379    -4843960.834 7  -3752883.94545  24246470.427    24246478.4544
  23664915.715    -8238367.338 8  -6404455.09845  23664915.390    23664923.8844
  21898876.714     -390402.131 8   -295552.77447  21898876.403    21898883.4544
  22242041.884   -13058708.538 8 -10150837.30246  22242041.335    22242047.4124
 99  9 14 17 51  0.0000000  0  9 17 08 29 23 21 15 09 03 31
  23410881.104    13783218.843 8  10734722.22645  23410880.305    23410890.7154
  23156351.684   -10618473.416 8  -8029693.09446  23156351.142    23156360.2924
  20509303.530   -17566613.928 9 -13668769.98948  20509303.375    20509309.1364
  22255846.590     8184220.402 8   6332749.90646  22255845.868    22255852.8764
  20624880.878    -6888055.448 9  -5096875.47847  20624880.332    20624886.6204
  24226346.697    -4949716.792 7  -3835291.18445  24226346.009    24226353.8434
  23668132.096    -8221464.059 8  -6391283.70145  23668131.824    23668140.3504
  21910172.583     -331042.230 8   -249298.35447  21910172.253    21910179.2714
  22240327.131   -13067719.675 8 -10157858.96646  22240326.622    22240332.7414
 99  9 14 17 51 30.0000000  0  9 17 08 29 23 21 15 09 03 31
  23429547.843    13881313.281 7  10811159.27345  23429547.091    23429557.4934
  23144706.434   -10679669.219 8  -8077378.03346  23144705.853    23144715.0114
  20502225.139   -17603810.966 9 -13697754.67048  20502225.005    20502230.6914
  22267292.364     8244368.713 8   6379618.68247  22267291.675    22267298.7594
  20624424.292    -6890454.763 9  -5098745.07647  20624423.729    20624430.0714
  24206227.546    -5055444.770 7  -3917676.59045  24206226.638    24206234.2954
  23671461.730    -8203966.030 8  -6377648.85845  23671461.568    23671470.1514
  21921556.236     -271221.140 8   -202684.57647  21921555.883    21921562.8964
  22238721.468   -13076157.507 8 -10164433.89846  22238720.874    22238727.0714
 99  9 14 17 52  0.0000000  0  9 17 08 29 23 21 15 09 03 31
  23448261.375    13979653.307 7  10887787.72345  23448260.678    23448271.0604
  23133137.899   -10740462.352 8  -8124749.21746  23133137.252    23133146.2544
  20495241.814   -17640508.681 9 -13726350.26348  20495241.670    20495247.3554
  22278764.201     8304653.387 8   6426593.71647  22278763.543    22278770.6754
  20624015.058    -6892605.094 9  -5100420.66147  20624014.522    20624020.8624
  24186112.174    -5161150.936 7  -4000045.00145  24186111.404    24186119.1634
  23674898.075    -8185908.198 8  -6363577.82545  23674897.929    23674906.3634
  21933027.047     -210941.962 8   -155713.84047  21933026.692    21933033.6514
  22237229.759   -13083996.167 8 -10170541.94846  22237229.216    22237235.4934
 99  9 14 17 52 30.0000000  0  9 17 08 29 23 21 15 09 03 31
  23467021.418    14078237.251 8  10964606.20645  23467020.639    23467031.2174
  23121644.241   -10800862.094 8  -8171813.87346  23121643.560    23121652.5284
  20488353.567   -17676706.323 9 -13754556.19248  20488353.438    20488359.1784
  22290261.735     8365073.608 8   6473674.36847  22290261.083    22290268.3294
  20623653.749    -6894504.088 9  -5101900.39547  20623653.162    20623659.5574
  24166002.206    -5266828.743 7  -4082391.31645  24166001.515    24166009.3764
  23678442.072    -8167284.132 8  -6349065.54945  23678441.876    23678450.4034
  21944585.608     -150201.585 8   -108383.72147  21944585.280    21944592.1914
  22235856.464   -13091212.739 8 -10176165.25046  22235855.947    22235862.2024
 99  9 14 17 53  0.0000000  0  9 17 08 29 23 21 15 09 03 31
  23485828.753    14177069.727 7  11041618.36445  23485827.990    23485838.8114
  23110222.981   -10860880.492 8  -8218581.36046  23110222.346    23110231.2384
  20481557.876   -17712417.573 9 -13782383.11348  20481557.733    20481563.4974
  22301784.271     8425626.014 8   6520858.01847  22301783.786    22301791.1074
  20623340.553    -6896149.646 9  -5103182.65147  20623339.999    20623346.4414
  24145896.983    -5372482.103 7  -4164718.56745  24145896.403    24145904.3814
  23682095.054    -8148088.128 8  -6334107.61045  23682094.817    23682103.3224
  21956228.836      -89016.288 8    -60706.92747  21956228.489    21956235.4184
  22234605.376   -13097787.416 8 -10181288.37946  22234604.794    22234611.1504
 99  9 14 17 53 30.0000000  0  9 17 08 29 23 21 15 09 03 31
  23504683.403    14276149.989 7  11118823.61945  23504682.637    23504693.1794
  23098877.164   -10920503.118 8  -8265040.46346  23098876.501    23098885.4044
  20474851.413   -17747660.070 9 -13809844.77248  20474851.305    20474857.0674
  22313330.533     8486301.693 8   6568137.72647  22313330.033    22313337.3434
  20623075.978    -6897540.050 9  -5104266.08447  20623075.422    20623081.8504
  24125796.497    -5478110.677 7  -4247026.51745  24125795.949    24125804.1334
  23685854.841    -8128331.256 8  -6318712.63545  23685854.454    23685862.9284
  21967955.409      -27392.911 8    -12688.75847  21967955.051    21967961.9964
  22233476.894   -13103717.781 8 -10185909.44546  22233476.335    22233482.6154
 99  9 14 17 54  0.0000000  0  9 17 08 29 23 21 15 09 03 31
  23523582.787    14375466.352 7  11196212.80145  23523582.043    23523592.6104
  23087610.626   -10979709.075 8  -8311174.88146  23087609.911    23087618.8074
  20468234.462   -17782432.312 9 -13836940.00148  20468234.336    20468240.0964
  22324901.310     8547105.976 8   6615517.63947  22324900.733    22324908.0634
  20622856.173    -6898695.275 9  -5105166.26847  20622855.614    20622862.0554
  24105700.857    -5583713.596 7  -4329314.49645  24105700.391    24105708.6384
  23689724.341    -8107998.082 8  -6302868.56845  23689723.865    23689732.2194
  21979762.458       34653.461 8     35659.00547  21979762.117    21979769.0334
  22232466.194   -13109029.038 8 -10190048.09146  22232465.615    22232471.9444
 99  9 14 17 54 30.0000000  0  9 17 08 29 23 21 15 09 03 31
  23542524.413    14475004.573 7  11273774.84545  23542523.530    23542534.3874
  23076427.387   -11038476.741 8  -8356967.78346  23076426.703    23076435.5424
  20461705.829   -17816740.470 9 -13863673.60248  20461705.676    20461711.4364
  22336495.102     8608031.738 8   6662992.21447  22336494.556    22336501.8904
  20622680.811    -6899616.775 9  -5105884.31947  20622680.275    20622686.7014
  24085609.240    -5689295.195 7  -4411585.85545  24085608.822    24085617.3764
  23693706.704    -8087071.059 8  -6286561.80845  23693706.248    23693714.5294
  21991648.056       97112.322 8     84328.20247  21991647.689    21991654.5584
  22231567.308   -13113752.145 8 -10193728.43146  22231566.797    22231573.0894
 99  9 14 17 55  0.0000000  0  9 17 08 29 23 21 15 09 03 31
  23561506.339    14574754.362 7  11351501.78345  23561505.449    23561516.3614
  23065329.236   -11096797.705 8  -8402412.60746  23065328.576    23065337.3754
  20455268.610   -17850567.992 9 -13890032.68948  20455268.502    20455274.2774
  22348111.648     8669076.809 8   6710559.76246  22348111.085    22348118.4534
  20622551.747    -6900295.288 9  -5106413.03747  20622551.205    20622557.5554
  24065522.236    -5794853.127 7  -4493838.75345  24065521.645    24065530.3414
  23697800.435    -8065558.022 8  -6269798.39545  23697800.055    23697808.2634
  22003614.687      159997.532 8    133329.59847  22003614.345    22003621.2734
  22230775.930   -13117911.023 8 -10196969.12346  22230775.385    22230781.6894
 99  9 14 17 55 30.0000000  0  9 17 08 29 23 21 15 09 03 31
  23580528.776    14674717.591 8  11429395.04545  23580527.920    23580538.7974
  23054318.521   -11154658.734 8  -8447499.04746  23054317.878    23054326.7164
  20448924.812   -17883904.806 9 -13916009.40448  20448924.734    20448930.4724
  22359749.523     8730234.453 8   6758215.02646  22359749.008    22359756.3834
  20622468.911    -6900730.513 9  -5106752.17447  20622468.382    20622474.7354
  24045441.231    -5900379.151 7  -4576066.80444  24045440.768    24045449.2444
  23702003.661    -8043469.920 8  -6252586.87945  23702003.245    23702011.4164
  22015667.043      223332.771 8    182681.67647  22015666.721    22015673.6444
  22230090.554   -13121512.823 8 -10199775.71846  22230090.019    22230096.2684
 99  9 14 17 56  0.0000000  0  9 17 08 29 23 21 15 09 03 31
  23599591.507    14774892.519 7  11507453.26245  23599590.753    23599601.6254
  23043393.757   -11212068.293 8  -8492233.68146  23043393.091    23043401.9934
  20442678.685   -17916728.666 9 -13941586.40948  20442678.548    20442684.3104
  22371406.669     8791493.159 8   6805949.03646  22371406.178    22371413.5714
  20622432.420    -6900922.249 9  -5106901.58347  20622431.887    20622438.2234
  24025366.380    -6005873.691 7  -4658270.31744  24025365.876    24025373.9234
  23706314.048    -8020818.721 8  -6234936.59845  23706313.540    23706321.6884
  22027807.008      287128.612 8    232392.67447  22027806.716    22027813.6054
  22229513.718   -13124544.845 8 -10202138.32946  22229513.128    22229519.2794
 99  9 14 17 56 30.0000000  0  9 17 08 29 23 21 15 09 03 31
  23618695.483    14875283.996 7  11585680.19645  23618694.648    23618705.7034
  23032553.177   -11269034.943 8  -8536623.18546  23032552.556    23032561.5444
  20436532.947   -17949024.453 9 -13966751.93048  20436532.853    20436538.6024
  22383080.850     8852841.571 8   6853752.94646  22383080.346    22383087.7424
  20622445.956    -6900851.150 9  -5106846.18647  20622445.428    20622451.7284
  24005298.538    -6111331.820 7  -4740445.44044  24005297.878    24005305.9214
  23710729.197    -7997616.157 8  -6216856.66645  23710728.714    23710737.1284
  22040037.498      351400.297 8    282474.44147  22040037.179    22040044.1364
  22229049.117   -13126986.061 8 -10204040.57146  22229048.600    22229054.7834
 99  9 14 17 57  0.0000000  0  9 17 08 29 23 21 15 09 03 31
  23637843.592    14975908.969 8  11664089.08845  23637842.981    23637854.1514
  23021796.337   -11325562.100 8  -8580670.24246  23021795.822    23021804.7484
  20430489.605   -17980782.542 9 -13991498.47548  20430489.526    20430495.2234
  22394773.497     8914286.834 8   6901632.32146  22394773.011    22394780.3714
  20622509.168    -6900518.980 9  -5106587.35747  20622508.615    20622514.9334
  23985239.687    -6216741.290 7  -4822582.64645  23985238.955    23985246.8664
  23715250.028    -7973858.233 8  -6198343.98745  23715249.704    23715258.0984
  22052360.196      416155.826 8    332933.24347  22052359.859    22052366.8074
  22228702.227   -13128808.841 8 -10205460.92546  22228701.710    22228707.9004
 99  9 14 17 57 30.0000000  0  9 17 08 29 23 21 15 09 03 31
  23657036.843    15076768.184 8  11742680.52145  23657036.214    23657047.1474
  23011124.356   -11381644.208 8  -8624370.50446  23011123.730    23011132.5044
  20424548.152   -18012005.538 9 -14015828.06048  20424548.000    20424553.6694
  22406483.149     8975820.880 8   6949580.88946  22406482.635    22406489.9614
  20622618.510    -6899944.030 9  -5106139.34647  20622618.009    20622624.3404
  23965189.942    -6322104.491 7  -4904683.82745  23965189.095    23965196.6864
  23719876.997    -7949543.166 7  -6179397.19045  23719876.631    23719884.9924
  22064770.067      481370.137 8    383749.54147  22064769.748    22064776.7034
  22228474.174   -13130007.341 8 -10206394.81946  22228473.608    22228479.8594
 99  9 14 17 58  0.0000000  0  9 17 08 29 23 21 15 09 03 31
  23676272.738    15177852.274 8  11821447.17245  23676272.058    23676282.9254
  23000537.294   -11437279.155 8  -8667722.34246  23000536.640    23000545.5304
  20418709.429   -18042687.793 9 -14039736.29048  20418709.292    20418714.9784
  22418210.658     9037448.927 8   6997602.69046  22418210.166    22418217.4404
  20622774.749    -6899122.765 9  -5105499.40647  20622774.300    20622780.6034
  23945148.472    -6427422.770 7  -4986749.98045  23945147.719    23945155.3404
  23724613.077    -7924654.956 8  -6160003.76445  23724612.762    23724621.0144
  22077263.109      547021.251 8    434906.19347  22077262.769    22077269.6924
  22228365.117   -13130580.662 8 -10206841.56146  22228364.554    22228370.7644
 99  9 14 17 58 30.0000000  0  9 17 08 29 23 21 15 09 03 31
  23695551.210    15279160.122 8  11900388.18345  23695550.572    23695561.3334
  22990037.965   -11492453.160 8  -8710714.98846  22990037.339    22990046.2054
  20412970.366   -18072846.578 9 -14063236.62548  20412970.245    20412975.9524
  22429960.722     9099195.862 8   7045717.14346  22429960.242    22429967.5734
  20622978.127    -6898054.152 9  -5104666.72847  20622977.640    20622983.9334
  23925117.906    -6532684.083 8  -5068771.73745  23925117.346    23925124.6074
  23729462.519    -7899171.110 8  -6140146.22545  23729462.185    23729470.4484
  22089837.792      613101.032 8    486396.87947  22089837.444    22089844.3784
  22228374.075   -13130533.283 8 -10206804.64446  22228373.547    22228379.8554
 99  9 14 17 59  0.0000000  0  9 17 08 29 23 21 15 09 03 31
  23714870.760    15380684.615 8  11979497.97645  23714870.177    23714881.0284
  22979628.012   -11547157.139 8  -8753341.37346  22979627.336    22979636.1554
  20407326.943   -18102502.998 9 -14086345.50848  20407326.802    20407332.4604
  22441734.957     9161069.490 8   7093930.31346  22441734.500    22441741.7644
  20623227.075    -6896746.073 9  -5103647.45747  20623226.567    20623232.8744
  23905098.186    -6637888.674 7  -5150749.33445  23905097.665    23905104.9364
  23734425.351    -7873091.033 8  -6119824.11445  23734425.129    23734433.2234
  22102488.805      679582.763 8    538200.76546  22102488.486    22102495.4744
  22228499.640   -13129873.663 8 -10206290.65346  22228499.091    22228505.3204
 99  9 14 17 59 30.0000000  0  9 17 08 29 23 21 15 09 03 31
  23734230.182    15482417.598 7  12058770.23945  23734229.465    23734240.4224
  22969308.941   -11601383.310 8  -8795595.44846  22969308.319    22969317.2034
  20401776.828   -18131668.878 9 -14109072.14748  20401776.664    20401782.3954
  22453532.814     9223067.227 8   7142240.19046  22453532.323    22453539.6084
  20623523.031    -6895190.715 9  -5102435.49747  20623522.552    20623528.8514
  23885088.413    -6743039.928 8  -5232685.33445  23885087.998    23885095.4344
  23739501.321    -7846417.139 8  -6099039.24645  23739501.065    23739508.9814
  22115215.464      746461.473 8    590313.98847  22115215.165    22115222.1294
  22228737.520   -13128623.567 8 -10205316.55746  22228736.946    22228743.1844
 99  9 14 18  0  0.0000000  0  9 17 08 29 23 21 15 09 03 31
  23753627.082    15584349.120 8  12138197.21645  23753626.446    23753637.4604
  22959080.354   -11655134.833 8  -8837479.65646  22959079.680    22959088.6514
  20396317.164   -18160359.410 9 -14131428.38548  20396317.054    20396322.7834
  22465356.873     9285202.127 8   7190656.94046  22465356.317    22465363.6024
  20623868.522    -6893375.497 9  -5101021.04847  20623868.013    20623874.3234
  23865088.949    -6848137.401 8  -5314579.42945  23865088.463    23865096.0944
  23744690.892    -7819145.123 8  -6077788.34445  23744690.673    23744698.6464
  22128018.349      813740.730 8    642739.33246  22128018.052    22128025.0274
  22229088.532   -13126778.862 8 -10203879.12846  22229087.973    22229094.1854
 99  9 14 18  0 30.0000000  0  9 17 08 29 23 21 15 09 03 31
  23773062.692    15686481.205 7  12217780.48145  23773061.842    23773072.7444
  22948941.589   -11708414.093 8  -8878995.88046  22948940.969    22948949.8564
  20390946.826   -18188580.707 9 -14153418.99948  20390946.701    20390952.4304
  22477207.853     9347479.144 8   7239184.43446  22477207.253    22477214.5344
  20624263.469    -6891300.141 9  -5099403.90047  20624262.930    20624269.2664
  23845100.329    -6953179.482 8  -5396430.37245  23845099.671    23845107.2994
  23749991.064    -7791292.423 8  -6056084.91845  23749990.834    23749998.8834
  22140896.381      881414.552 8    695472.12946  22140896.016    22140902.9294
  22229552.133   -13124342.882 8 -10201980.96246  22229551.512    22229557.7884
 99  9 14 18  1  0.0000000  0  9 17 08 29 23 21 15 09 03 31
  23792536.415    15788816.482 7  12297522.08745  23792535.720    23792546.8434
  22938892.353   -11761223.667 8  -8920146.10046  22938891.646    22938900.5084
  20385668.680   -18216317.216 9 -14175031.83548  20385668.585    20385674.3234
  22489083.764     9409886.450 8   7287813.46846  22489083.052    22489090.3254
  20624710.940    -6888948.695 9  -5097571.60447  20624710.430    20624716.7554
  23825122.035    -7058166.514 7  -5478238.43245  23825121.252    23825128.8264
  23755401.146    -7762863.130 8  -6033932.22845  23755400.858    23755408.8464
  22153849.816      949485.270 8    748514.19946  22153849.489    22153856.4554
  22230126.093   -13121326.962 8 -10199630.89646  22230125.424    22230131.7804
 99  9 14 18  1 30.0000000  0  9 17 08 29 23 21 15 09 03 31
  23812049.230    15891356.740 7  12377423.38245  23812048.582    23812059.6804
  22928932.068   -11813565.196 8  -8960931.62246  22928931.311    22928940.1094
  20380486.933   -18243547.486 9 -14196250.21848  20380486.843    20380492.5234
  22500986.205     9472434.396 8   7336552.08046  22500985.582    22500992.8864
  20625211.413    -6886318.596 9  -5095522.19047  20625210.913    20625217.2844
  23805155.790    -7163089.647 7  -5559996.65745  23805154.974    23805162.5914
  23760922.051    -7733851.048 8  -6011325.40845  23760921.736    23760929.5794
  22166883.472     1017977.252 8    801884.51046  22166883.126    22166890.0754
  22230811.920   -13117722.590 8 -10196822.31546  22230811.309    22230817.6894
 99  9 14 18  2  0.0000000  0  9 17 08 29 23 21 15 09 03 31
  23831601.667    15994105.487 7  12457487.13845  23831601.025    23831612.1894
  22919060.190   -11865442.500 8  -9001355.41846  22919059.436    22919068.1554
  20375402.332   -18270267.262 9 -14217070.80748  20375402.203    20375407.9334
  22512916.878     9535129.880 8   7385405.64746  22512916.212    22512923.4794
  20625761.861    -6883426.200 9  -5093268.38447  20625761.313    20625767.7324
  23785202.689    -7267943.645 7  -5641701.03345  23785201.858    23785209.3894
  23766553.316    -7704258.607 7  -5988266.39045  23766552.918    23766561.0184
  22179996.510     1086886.361 8    855579.86846  22179996.138    22180003.1534
  22231614.186   -13113506.192 8 -10193536.81446  22231613.684    22231620.1014
 99  9 14 18  2 30.0000000  0  9 17 08 29 23 21 15 09 03 31
  23851195.008    16097069.845 7  12537718.89745  23851194.541    23851205.8924
  22909275.235   -11916862.779 8  -9041423.06846  22909274.499    22909283.1804
  20370416.016   -18296470.207 9 -14237488.67048  20370415.944    20370421.6554
  22524874.379     9597967.101 8   7434369.66246  22524873.715    22524881.0464
  20626359.187    -6880287.297 9  -5090822.49747  20626358.629    20626365.0344
  23765262.845    -7372725.677 7  -5723349.31545  23765262.412    23765269.9894
  23772292.607    -7674098.347 7  -5964764.90245  23772292.205    23772300.3304
  22193189.215     1156214.431 8    909601.68746  22193188.805    22193195.9374
  22232530.431   -13108691.844 8 -10189785.38446  22232529.870    22232536.2914
 99  9 14 18  3  0.0000000  0  9 17 08 29 23 21 15 09 03 31
  23870827.064    16200233.826 7  12618106.22945  23870826.301    23870837.6534
  22899576.278   -11967830.947 8  -9081138.43846  22899575.534    22899584.2194
  20365527.067   -18322162.152 9 -14257508.34948  20365526.929    20365532.6454
  22536858.190     9660943.100 8   7483441.82046  22536857.608    22536865.0214
  20626999.858    -6876920.496 9  -5088199.02247  20626999.326    20627005.7004
  23745336.316    -7477440.082 7  -5804944.90745  23745335.826    23745343.5084
  23778139.706    -7643370.929 8  -5940821.45645  23778139.437    23778147.6644
  22206464.585     1225976.619 8    963961.78146  22206464.165    22206471.3504
  22233560.790   -13103277.435 8 -10185566.37346  22233560.207    22233566.6104
 99  9 14 18  3 30.0000000  0  9 17 08 29 23 21 15 09 03 31
  23890493.164    16303580.624 7  12698636.01445  23890492.505    23890504.0174
  22889964.345   -12018341.054 8  -9120496.86546  22889963.688    22889972.3764
  20360731.521   -18347362.741 9 -14277145.15248  20360731.409    20360737.1124
  22548867.556     9724052.558 8   7532617.96346  22548866.944    22548874.4774
  20627677.709    -6873358.393 9  -5085423.36147  20627677.167    20627683.5404
  23725420.524    -7582098.559 7  -5886496.92945  23725419.873    23725427.5834
  23784091.533    -7612094.363 7  -5916450.13745  23784091.247    23784099.4584
  22219819.931     1296159.445 8   1018649.65046  22219819.539    22219826.8114
  22234706.708   -13097255.417 8 -10180873.89546  22234706.133    22234712.5654
 99  9 14 18  4  0.0000000  0  9 17 08 29 23 21 15 09 03 31
  23910193.179    16407103.603 7  12779303.06445  23910192.588    23910203.9944
  22880440.067   -12068390.907 8  -9159496.66746  22880439.432    22880448.1384
  20356028.244   -18372078.793 9 -14296404.40848  20356028.125    20356033.8124
  22560898.782     9787277.499 8   7581884.08546  22560898.255    22560905.8464
  20628391.766    -6869605.910 9  -5082499.36647  20628391.242    20628397.6114
  23705513.440    -7686710.183 7  -5968012.42945  23705512.755    23705520.5924
  23790144.296    -7580287.092 8  -5891665.25545  23790143.907    23790152.2074
  22233251.942     1366745.289 8   1073651.54746  22233251.570    22233258.8824
  22235963.710   -13090649.862 8 -10175726.71846  22235963.183    22235969.5574
 99  9 14 18  4 30.0000000  0  9 17 08 29 23 21 15 09 03 31
  23929924.376    16510791.407 7  12860098.62545  23929923.809    23929935.2814
  22871004.209   -12117976.133 8  -9198134.42946  22871003.633    22871012.3454
  20351419.638   -18396296.633 9 -14315275.43648  20351419.555    20351425.2454
  22572949.341     9850603.044 8   7631228.59846  22572948.763    22572956.4134
  20629146.438    -6865639.991 9  -5079409.05347  20629145.939    20629152.3154
  23685615.301    -7791273.973 7  -6049490.65845  23685614.940    23685622.6974
  23796297.400    -7547951.998 8  -5866469.08745  23796297.056    23796305.4314
  22246760.902     1437735.574 8   1128968.58746  22246760.608    22246767.9594
  22237328.780   -13083476.058 8 -10170136.75346  22237328.318    22237334.6824
 99  9 14 18  5  0.0000000  0  9 17 08 29 23 21 15 09 03 31
  23949688.583    16614651.907 7  12941028.68845  23949687.976    23949699.1844
  22861661.942   -12167069.822 8  -9236389.18146  22861661.272    22861670.0194
  20346906.237   -18420014.740 9 -14333757.06048  20346906.130    20346911.8204
  22585017.349     9914020.754 8   7680644.93146  22585016.749    22585024.4764
  20629946.423    -6861436.210 9  -5076133.38747  20629945.896    20629952.2634
  23665727.826    -7895783.911 7  -6130926.96245  23665727.357    23665734.9154
  23802552.915    -7515078.197 8  -5840853.16545  23802552.625    23802560.9604
  22260345.808     1509123.665 8   1184595.62246  22260345.373    22260352.6824
  22238804.534   -13075720.669 8 -10164093.60846  22238804.066    22238810.4034
 99  9 14 18  5 30.0000000  0  9 17 08 29 23 21 15 09 03 31
  23969489.999    16718708.890 7  13022111.90645  23969489.458    23969500.6444
  22852415.447   -12215659.705 8  -9274251.34546  22852414.813    22852423.6084
  20342492.809   -18443207.611 9 -14351829.41948  20342492.685    20342498.3714
  22597101.950     9977525.205 8   7730128.84946  22597101.342    22597108.9824
  20630795.940    -6856972.150 9  -5072654.91847  20630795.377    20630801.7694
  23645853.495    -8000225.562 7  -6212310.02745  23645852.867    23645860.3134
  23808912.734    -7481657.537 8  -5814811.10345  23808912.513    23808920.7824
  22274003.151     1580893.942 8   1240520.45146  22274002.758    22274010.1234
  22240391.620   -13067380.644 8 -10157594.90346  22240391.117    22240397.4414
 99  9 14 18  6  0.0000000  0  9 17 08 29 23 21 15 09 03 31
  23989332.966    16822983.933 7  13103364.96545  23989332.490    23989343.8614
  22843265.182   -12263744.692 8  -9311720.10246  22843264.537    22843273.1864
  20338184.751   -18465846.421 9 -14369470.03248  20338184.648    20338190.2864
  22609203.437    10041118.777 8   7779682.22546  22609202.875    22609210.5094
  20631700.819    -6852216.894 9  -5068949.53447  20631700.271    20631706.6764
  23625996.689    -8104574.062 8  -6293620.52445  23625996.053    23626003.3544
  23815380.865    -7447667.060 8  -5788325.00645  23815380.745    23815388.9154
  22287734.026     1653050.220 8   1296746.06846  22287733.643    22287741.0894
  22242090.408   -13058453.942 8 -10150639.03846  22242089.852    22242096.2074
 99  9 14 18  6 30.0000000  0  9 17 08 29 23 21 15 09 03 31
  24009221.168    16927495.501 7  13184802.34145  24009220.573    24009231.9664
  22834215.032   -12311303.053 8  -9348778.50446  22834214.462    22834222.9664
  20333983.022   -18487927.000 9 -14386675.66648  20333982.897    20333988.4474
  22621323.601    10104810.330 8   7829311.94246  22621323.044    22621330.5894
  20632661.913    -6847166.570 9  -5065014.22847  20632661.356    20632667.7424
  23606161.190    -8208810.727 7  -6374843.87845  23606160.515    23606167.6624
  23821961.831    -7413083.020 8  -5761376.43145  23821961.659    23821970.0444
  22301539.071     1725596.082 8   1353275.25546  22301538.736    22301546.1354
  22243906.208   -13048911.790 8 -10143203.60446  22243905.694    22243912.0384
 99  9 14 18  7  0.0000000  0  9 17 08 29 23 21 15 09 03 31
  24029155.041    17032247.725 7  13266427.27045  24029154.383    24029165.8134
  22825266.478   -12358328.566 8  -9385421.69846  22825265.798    22825274.2234
  20329884.164   -18509466.479 9 -14403459.66248  20329884.034    20329889.5854
  22633463.249    10168604.273 8   7879021.44246  22633462.660    22633470.2084
  20633675.331    -6841841.050 9  -5060864.48447  20633674.764    20633681.1424
  23586347.107    -8312935.176 7  -6455979.78845  23586346.363    23586353.4394
  23828657.163    -7377899.378 8  -5733960.61845  23828656.964    23828665.3114
  22315417.534     1798527.370 8   1410104.78246  22315417.138    22315424.5654
  22245838.115   -13038759.795 8 -10135292.97546  22245837.557    22245843.8294
 99  9 14 18  7 30.0000000  0  9 17 08 29 23 21 15 09 03 31
  24049130.751    17137220.537 8  13348224.10945  24049130.053    24049141.7994
  22816416.261   -12404837.030 8  -9421661.98546  22816415.554    22816423.9224
  20325886.544   -18530474.003 9 -14419829.14748  20325886.402    20325891.9984
  22645622.575    10232501.475 8   7928811.41146  22645621.972    22645629.4704
  20634737.400    -6836259.754 9  -5056515.43747  20634736.879    20634743.2664
  23566553.175    -8416953.641 7  -6537033.09645  23566552.275    23566559.4014
  23835465.828    -7342119.556 8  -5706080.23245  23835465.650    23835473.8634
  22329369.611     1871845.698 8   1467235.88046  22329369.239    22329376.6064
  22247884.581   -13028005.523 8 -10126913.03046  22247884.020    22247890.3244
 99  9 14 18  8  0.0000000  0  9 17 08 29 23 21 15 09 03 31
  24069144.491    17242391.374 7  13430175.21245  24069143.748    24069155.4274
  22807664.292   -12450829.794 8  -9457500.46346  22807663.474    22807671.6544
  20321983.753   -18550983.061 9 -14435810.22348  20321983.633    20321989.2294
  22657801.640    10296502.531 8   7978682.29246  22657801.021    22657808.5264
  20635847.113    -6830428.331 9  -5051971.48347  20635846.630    20635852.9754
  23546777.763    -8520873.946 7  -6618009.94245  23546776.906    23546784.1994
  23842386.050    -7305754.287 8  -5677743.71145  23842385.730    23842394.1864
  22343395.033     1945549.565 8   1524667.40446  22343394.630    22343402.0444
  22250045.547   -13016649.308 8 -10118064.04946  22250045.015    22250051.3234
 99  9 14 18  8 30.0000000  0  9 17 08 29 23 21 15 09 03 31
  24089190.691    17347734.123 7  13512260.31345  24089189.930    24089201.7004
  22799008.859   -12496314.474 8  -9492943.01446  22799008.065    22799016.2094
  20318170.884   -18571020.010 9 -14451423.42048  20318170.703    20318176.3434
  22670002.198    10360616.358 8   8028641.05846  22670001.554    22670009.0844
  20637000.998    -6824364.781 9  -5047246.65647  20637000.512    20637006.8144
  23527017.134    -8624717.152 7  -6698926.68945  23527016.166    23527023.5454
  23849414.483    -7268820.340 8  -5648964.00545  23849414.124    23849422.6014
  22357492.163     2019630.129 8   1582392.45446  22357491.780    22357499.1714
  22252320.181   -13004695.807 8 -10108749.66046  22252319.689    22252325.9614
 99  9 14 18  9  0.0000000  0  9 17 08 29 23 21 15 09 03 31
  24109266.796    17453233.464 7  13594467.37345  24109266.072    24109277.8684
  22790445.197   -12541316.652 8  -9528009.58746  22790444.394    22790452.4774
  20314446.377   -18590592.458 9 -14466674.67448  20314446.212    20314451.8054
  22682225.597    10424850.599 8   8078693.63446  22682224.933    22682232.5294
  20638200.934    -6818059.259 9  -5042333.27547  20638200.421    20638206.7314
  23507269.282    -8728492.442 7  -6779790.51645  23507268.377    23507275.7054
  23856548.048    -7231333.918 8  -5619753.82245  23856547.626    23856556.1254
  22371660.785     2094086.538 8   1640410.37746  22371660.432    22371667.8904
  22254705.721   -12992160.125 8 -10098981.60346  22254705.188    22254711.3674
 99  9 14 18  9 30.0000000  0  9 17 08 29 23 21 15 09 03 31
  24129372.309    17558888.054 7  13676795.42845  24129371.524    24129383.4884
  22781971.452   -12585845.955 8  -9562707.69146  22781970.740    22781978.7314
  20310810.366   -18609699.597 9 -14481563.34348  20310810.219    20310815.8394
  22694473.123    10489211.285 8   8128844.73746  22694472.414    22694480.0274
  20639447.367    -6811509.370 9  -5037229.47547  20639446.848    20639453.1854
  23487534.356    -8832198.288 7  -6860600.22445  23487533.659    23487541.2254
  23863785.151    -7193303.445 8  -5590119.71245  23863784.546    23863793.1864
  22385899.858     2168912.309 8   1698716.11346  22385899.404    22385906.8394
  22257203.928   -12979032.114 8 -10088752.00246  22257203.398    22257209.5634
 99  9 14 18 10  0.0000000  0  9 17 08 29 23 21 15 09 03 31
  24149510.734    17664716.150 7  13759258.64745  24149509.932    24149522.1684
  22773589.347   -12629894.245 8  -9597030.97946  22773588.613    22773596.7504
  20307264.981   -18628330.745 9 -14496081.11648  20307264.833    20307270.4674
  22706746.448    10553707.924 8   8179101.79846  22706745.777    22706753.3194
  20640742.037    -6804705.976 9  -5031928.14547  20640741.482    20640747.8474
  23467814.371    -8935826.343 7  -6941349.33745  23467813.891    23467821.3574
  23871126.530    -7154724.112 8  -5560057.92345  23871126.243    23871134.4784
  22400206.496     2244094.174 8   1757299.30446  22400206.040    22400213.5414
  22259813.177   -12965321.336 8 -10078068.28946  22259812.523    22259818.6824
 99  9 14 18 10 30.0000000  0  9 17 08 29 23 21 15 09 03 31
  24169686.152    17770738.210 7  13841873.03545  24169685.474    24169697.6804
  22765299.366   -12673458.355 8  -9630976.97946  22765298.632    22765306.7524
  20303811.742   -18646477.587 9 -14510221.50148  20303811.604    20303817.2384
  22719044.741    10618335.381 8   8229460.78046  22719044.063    22719051.5644
  20642083.616    -6797655.933 9  -5026434.61847  20642083.033    20642089.4694
  23448109.786    -9039374.511 8  -7022036.17645  23448109.152    23448116.8204
  23878574.267    -7115585.787 7  -5529560.55845  23878574.007    23878582.2024
  22414580.966     2319632.220 8   1816160.07346  22414580.519    22414587.9544
  22262530.796   -12951040.562 8 -10066940.42846  22262530.101    22262536.2434
 99  9 14 18 11  0.0000000  0  9 17 08 29 23 21 15 09 03 31
  24189901.313    17876968.111 7  13924649.37645  24189900.659    24189912.6984
  22757103.479   -12716527.115 8  -9664537.01646  22757102.806    22757110.9114
  20300451.291   -18664136.971 9 -14523982.05648  20300451.130    20300456.7694
  22731365.823    10683082.339 8   8279912.89046  22731365.113    22731372.5094
  20643472.057    -6790359.424 9  -5020749.05047  20643471.502    20643477.9944
  23428422.414    -9142832.889 8  -7102653.06745  23428421.701    23428429.4084
  23886128.009    -7075890.072 8  -5498628.87045  23886127.748    23886135.9914
  22429022.497     2395523.669 8   1875296.17846  22429022.180    22429029.7374
  22265356.407   -12936191.506 8 -10055369.75346  22265355.785    22265361.9204
 99  9 14 18 11 30.0000000  0  9 17 08 29 23 21 15 09 03 31
  24210154.545    17983397.877 7  14007581.50545  24210153.749    24210165.7064
  22749005.363   -12759082.613 8  -9697697.10946  22749004.731    22749012.7674
  20297185.056   -18681301.319 9 -14537356.85748  20297184.881    20297190.4654
  22743706.778    10747935.328 8   8330447.60946  22743706.220    22743713.6604
  20644904.865    -6782829.639 9  -5014881.69047  20644904.340    20644910.8494
  23408752.049    -9246201.072 7  -7183199.69545  23408751.468    23408758.9534
  23893788.779    -7035632.590 8  -5467259.44045  23893788.484    23893796.7154
  22443527.318     2471745.917 8   1934690.07346  22443526.920    22443534.4164
  22268289.945   -12920775.332 8 -10043357.16146  22268289.355    22268295.5494
 99  9 14 18 12  0.0000000  0  9 17 08 29 23 21 15 09 03 31
  24230443.527    18090015.944 7  14090660.32845  24230442.902    24230454.5194
  22741008.993   -12801103.819 8  -9730440.84646  22741008.338    22741016.3574
  20294015.203   -18697959.115 9 -14550336.95248  20294015.036    20294020.5934
  22756066.852    10812886.843 8   8381059.10246  22756066.193    22756073.6584
  20646382.139    -6775066.516 9  -5008832.52047  20646381.628    20646388.1364
  23389099.440    -9349475.766 8  -7263673.45745  23389098.874    23389106.2484
  23901557.112    -6994809.963 7  -5435449.61145  23901556.727    23901565.0674
  22458094.009     2548294.066 8   1994337.91746  22458093.605    22458101.0084
  22271331.470   -12904791.788 8 -10030902.47446  22271330.898    22271337.0504
 99  9 14 18 12 30.0000000  0  9 17 08 29 23 21 15 09 03 31
  24250762.998    18196795.453 7  14173864.94645  24250762.376    24250774.2904
  22733115.972   -12842581.185 8  -9762760.82746  22733115.312    22733123.3934
  20290942.310   -18714107.118 9 -14562919.80848  20290942.193    20290947.7434
  22768445.238    10877935.728 8   8431746.46846  22768444.604    22768452.1174
  20647901.872    -6767080.647 9  -5002609.78747  20647901.335    20647907.8004
  23369465.010    -9452655.288 8  -7344073.04945  23369464.427    23369471.9094
  23909430.881    -6953432.518 8  -5403207.48245  23909430.535    23909438.9444
  22472724.062     2625175.165 8   2054245.19446  22472723.667    22472731.1104
  22274484.941   -12888220.513 8 -10017989.81946  22274484.345    22274490.5034
 99  9 14 18 13  0.0000000  0  9 17 08 29 23 21 15 09 03 31
  24271107.590    18303706.113 7  14257171.78145  24271106.933    24271118.4114
  22725327.303   -12883510.941 8  -9794654.13546  22725326.654    22725334.6644
  20287967.438   -18729740.181 9 -14575101.41348  20287967.283    20287972.8534
  22780842.622    10943084.268 8   8482511.48446  22780841.991    22780849.5524
  20649463.808    -6758872.855 9  -4996214.12447  20649463.244    20649469.7274
  23349849.536    -9555734.794 8  -7424394.72245  23349848.936    23349856.3834
  23917409.196    -6911506.526 7  -5370537.88345  23917408.942    23917417.2194
  22487416.840     2702386.230 8   2114409.58146  22487416.485    22487423.9824
  22277750.728   -12871058.834 8 -10004617.09246  22277750.145    22277756.3504
 99  9 14 18 13 30.0000000  0  9 17 08 29 23 21 15 09 03 31
  24291477.452    18410750.442 7  14340582.73945  24291476.761    24291488.6084
  22717643.390   -12923889.920 8  -9826118.21546  22717642.694    22717650.7484
  20285093.236   -18744844.265 9 -14586870.81548  20285093.083    20285098.6484
  22793258.172    11008328.592 8   8533351.13946  22793257.606    22793265.1874
  20651068.787    -6750438.771 9  -4989642.11547  20651068.193    20651074.6794
  23330254.256    -9658708.630 8  -7504634.04145  23330253.631    23330260.9724
  23925491.652    -6869033.818 8  -5337442.31645  23925491.446    23925499.5544
  22502173.588     2779932.600 8   2174835.25746  22502173.140    22502180.5624
  22281128.474   -12853308.891 8  -9990785.97546  22281127.926    22281134.0554
 99  9 14 18 14  0.0000000  0  9 17 08 29 23 21 15 09 03 31
  24311875.283    18517941.006 7  14424107.63745  24311874.229    24311886.4284
  22710062.071   -12963729.712 8  -9857162.17846  22710061.342    22710069.4824
  20282319.222   -18759421.652 9 -14598229.81548  20282319.083    20282324.6474
  22805692.276    11073669.999 8   8584266.44046  22805691.698    22805699.3704
  20652719.510    -6741764.374 9  -4982882.86447  20652718.930    20652725.3424
  23310681.166    -9761565.531 7  -7584782.25145  23310680.581    23310687.9314
  23933675.926    -6826024.948 7  -5303928.94245  23933675.691    23933684.0484
  22516999.436     2857843.053 8   2235544.62746  22516999.046    22517006.4954
  22284618.304   -12834969.883 8  -9976495.86446  22284617.810    22284623.9494
 99  9 14 18 14 30.0000000  0  9 17 08 29 23 21 15 09 03 31
  24332304.626    18625296.286 7  14507760.93945  24332303.747    24332315.6294
  22702580.625   -13003045.408 8  -9887797.73146  22702579.791    22702587.9254
  20279644.830   -18773475.742 9 -14609181.04548  20279644.694    20279650.2714
  22818144.993    11139108.529 8   8635257.43846  22818144.427    22818151.9684
  20654418.789    -6732834.861 9  -4975924.81347  20654418.194    20654424.5704
  23291131.283    -9864301.056 7  -7664835.89245  23291130.815    23291138.0034
  23941960.376    -6782489.994 8  -5270005.62345  23941960.065    23941968.4734
  22531896.423     2936127.209 8   2296545.19746  22531896.073    22531903.5534
  22288217.446   -12816056.321 8  -9961758.03846  22288216.859    22288223.0944
 99  9 14 18 15  0.0000000  0  9 17 08 29 23 21 15 09 03 31
  24352771.260    18732850.131 7  14591568.92045  24352770.598    24352782.7234
  22695198.624   -13041838.516 8  -9918026.11646  22695197.821    22695205.7484
  20277068.325   -18787015.135 9 -14619731.21448  20277068.178    20277073.7954
  22830616.441    11204645.868 8   8686325.40146  22830615.804    22830623.3534
  20656171.341    -6723625.351 9  -4968748.58447  20656170.741    20656177.1164
  23271606.554    -9966904.304 7  -7744786.44745  23271606.063    23271613.2354
  23950345.099    -6738428.527 7  -5235672.04445  23950344.721    23950353.1364
  22546865.469     3014789.953 8   2357840.76246  22546865.120    22546872.6464
  22291923.823   -12796579.273 8  -9946581.14446  22291923.233    22291929.4854
 99  9 14 18 15 30.0000000  0  9 17 08 29 23 21 15 09 03 31
  24373279.630    18840621.065 8  14675546.09845  24373278.950    24373291.2634
  22687914.048   -13080119.365 8  -9947855.31646  22687913.205    22687921.1444
  20274589.839   -18800039.544 9 -14629880.10248  20274589.724    20274595.3324
  22843106.864    11270283.656 8   8737471.64646  22843106.346    22843113.9374
  20657979.396    -6714123.951 9  -4961344.91247  20657978.819    20657985.1994
  23252107.780   -10069370.959 8  -7824630.55245  23252107.231    23252114.4424
  23958829.950    -6693841.353 7  -5200928.85145  23958829.508    23958837.8624
  22561905.525     3093826.076 8   2419427.27146  22561905.277    22561912.8194
  22295737.749   -12776537.478 8  -9930964.18146  22295737.142    22295743.3144
 99  9 14 18 16  0.0000000  0  9 17 08 29 23 21 15 09 03 31
  24393826.642    18948594.771 7  14759681.29545  24393826.007    24393838.0024
  22680727.711   -13117883.528 8  -9977281.90546  22680726.879    22680734.8224
  20272208.271   -18812555.096 9 -14639632.47848  20272208.122    20272213.6704
  22855619.938    11336039.932 8   8788710.22546  22855619.364    22855627.0374
  20659844.392    -6704323.425 9  -4953708.15447  20659843.838    20659850.1784
  23232636.186   -10171696.536 8  -7904364.73445  23232635.311    23232642.5024
  23967418.284    -6648708.168 7  -5165760.16645  23967417.963    23967426.3784
  22577014.868     3173224.606 8   2481296.18046  22577014.488    22577021.9004
  22299658.493   -12755933.501 8  -9914909.15646  22299657.918    22299664.0814
 99  9 14 18 16 30.0000000  0  9 17 08 29 23 21 15 09 03 31
  24414410.019    19056761.444 7  14843966.88645  24414409.356    24414421.5074
  22673644.788   -13155103.769 8 -10006284.65546  22673643.994    22673651.9764
  20269921.360   -18824572.828 9 -14648996.93448  20269921.206    20269926.7644
  22868158.212    11401928.352 8   8840051.78146  22868157.593    22868165.1714
  20661763.365    -6694239.064 9  -4945850.21947  20661762.819    20661769.2044
  23213190.240   -10273886.505 8  -7983993.24445  23213189.184    23213196.4254
  23976113.538    -6603014.433 7  -5130154.69545  23976113.272    23976121.6394
  22592190.158     3252971.419 8   2543436.48346  22592189.792    22592197.2514
  22303686.411   -12734766.310 8  -9898415.25546  22303685.879    22303692.0484
 99  9 14 18 17  0.0000000  0  9 17 08 29 23 21 15 09 03 31
  24435027.207    19165105.034 7  14928390.29945  24435026.473    24435038.9804
  22666664.419   -13191784.394 8 -10034866.94146  22666663.795    22666671.7834
  20267727.808   -18836100.130 9 -14657979.24748  20267727.634    20267733.2354
  22880721.491    11467948.498 8   8891495.96446  22880720.926    22880728.4894
  20663732.037    -6683893.475 9  -4937788.74247  20663731.516    20663737.9194
  23193768.880   -10375946.062 8  -8063520.15145  23193767.929    23193775.2104
  23984915.816    -6556758.310 7  -5094110.99845  23984915.479    23984923.8594
  22607428.634     3333050.485 8   2605835.65646  22607428.403    22607435.9224
  22307822.620   -12713030.955 8  -9881478.64646  22307822.026    22307828.1834
 99  9 14 18 17 30.0000000  0  9 17 08 29 23 21 15 09 03 31
  24455670.917    19273588.358 7  15012922.60245  24455670.331    24455682.6374
  22659786.943   -13227925.829 8 -10063029.07246  22659786.276    22659794.3404
  20265629.151   -18847128.590 9 -14666572.84948  20265628.997    20265634.5474
  22893307.712    11534088.716 8   8943033.71846  22893307.023    22893314.6194
  20665746.065    -6673309.953 9  -4929541.85747  20665745.522    20665751.8974
  23174370.424   -10477885.260 8  -8142953.26345  23174369.528    23174376.8234
  23993824.764    -6509941.101 7  -5057630.09245  23993824.561    23993832.9334
  22622726.926     3413442.923 8   2668479.03646  22622726.642    22622734.2394
  22312067.016   -12690726.713 8  -9864098.73546  22312066.378    22312072.5214
 99  9 14 18 18  0.0000000  0  9 17 08 29 23 21 15 09 03 31
  24476337.573    19382192.304 7  15097548.85845  24476337.094    24476349.5644
  22653016.837   -13263502.515 8 -10090751.13446  22653016.173    22653024.3574
  20263623.284   -18857669.771 9 -14674786.75148  20263623.096    20263628.6024
  22905914.994    11600340.638 8   8994658.50346  22905914.325    22905922.0614
  20667804.391    -6662493.139 9  -4921113.18347  20667803.847    20667810.2624
  23154994.025   -10579708.816 8  -8222296.26245  23154993.091    23155000.4014
  24002839.321    -6462569.276 7  -5020716.99945  24002839.129    24002847.4884
  22638084.675     3494148.371 8   2731366.32846  22638084.400    22638092.0264
  22316420.455   -12667849.134 8  -9846272.06246  22316419.834    22316425.9744
 99  9 14 18 18 30.0000000  0  8 08 29 23 21 15 09 03 31
  22646355.083   -13298510.466 8 -10118030.01946  22646354.425    22646362.5644
  20261708.940   -18867729.740 9 -14682625.68948  20261708.771    20261714.2334
  22918542.103    11666696.063 8   9046363.94846  22918541.464    22918549.2154
  20669906.610    -6651445.557 9  -4912504.69047  20669906.082    20669912.5394
  23135640.761   -10681410.954 8  -8301544.64545  23135639.790    23135647.1344
  24011954.990    -6414666.561 7  -4983390.23345  24011954.899    24011963.1034
  22653504.715     3575180.294 8   2794507.99046  22653504.325    22653511.9934
  22320885.937   -12644383.204 8  -9827986.94346  22320885.302    22320891.4214
 99  9 14 18 19  0.0000000  0  8 08 29 23 21 15 09 03 31
  22639801.688   -13332948.193 8 -10144864.59146  22639801.062    22639809.1854
  20259891.583   -18877279.938 9 -14690067.39848  20259891.409    20259896.8754
  22931188.552    11733153.161 8   9098148.61046  22931187.879    22931195.7874
  20672057.988    -6640140.104 9  -4903695.26747  20672057.452    20672063.9324
  23116314.048   -10782973.849 8  -8380684.55645  23116313.050    23116320.3184
  24021170.947    -6366236.516 7  -4945652.55645  24021170.689    24021179.1594
  22668985.965     3656534.379 8   2857900.70446  22668985.568    22668993.1944
  22325465.186   -12620319.470 8  -9809235.99946  22325464.582    22325470.5904
 99  9 14 18 19 30.0000000  0  8 08 29 23 21 15 09 03 31
  22633352.805   -13366836.878 8 -10171271.34846  22633352.216    22633360.2894
  20258163.116   -18886362.749 9 -14697144.91348  20258162.976    20258168.4584
  22943846.992    11799673.430 8   9149982.49446  22943846.276    22943854.3044
  20674254.497    -6628597.302 9  -4894700.89947  20674253.972    20674260.4914
  23097006.437   -10884434.895 8  -8459745.07445  23097005.546    23097012.8634
  24030480.310    -6317316.710 7  -4907533.23545  24030479.906    24030488.2814
  22684521.550     3738174.642 8   2921516.39946  22684521.243    22684528.8264
  22330150.774   -12595696.239 8  -9790049.07746  22330150.219    22330156.3404
 99  9 14 18 20  0.0000000  0  8 08 29 23 21 15 09 03 31
  22627008.435   -13400175.875 8 -10197249.75346  22627007.898    22627016.1274
  20256522.531   -18894984.233 9 -14703862.96448  20256522.401    20256527.8764
  22956522.536    11866282.995 8   9201885.97346  22956521.761    22956529.8164
  20676497.611    -6616809.624 9  -4885515.71947  20676497.109    20676503.6424
  23077720.719   -10985781.084 8  -8538716.10445  23077720.056    23077727.3024
  24039884.065    -6267899.259 7  -4869026.20045  24039883.665    24039892.3304
  22700114.856     3820117.374 8   2985367.78346  22700114.457    22700122.1694
  22334944.273   -12570506.504 8  -9770420.74146  22334943.710    22334949.7644
 99  9 14 18 20 30.0000000  0  8 08 29 23 21 15 09 03 31
  22620764.070   -13432989.943 8 -10222819.15346  22620763.532    22620771.8034
  20254973.227   -18903126.010 9 -14710207.20248  20254973.094    20254978.5544
  22969217.270    11932994.623 8   9253868.96346  22969216.622    22969224.6734
  20678786.794    -6604780.342 9  -4876142.26847  20678786.264    20678792.7874
  23058459.019   -11087002.298 8  -8617589.75145  23058458.312    23058465.4634
  24049383.913    -6217976.962 7  -4830125.70145  24049383.619    24049392.1364
  22715766.115     3902364.555 8   3049456.40746  22715765.643    22715773.3474
  22339842.926   -12544763.877 8  -9750361.56946  22339842.309    22339848.4274
 99  9 14 18 21  0.0000000  0  8 08 29 23 21 15 09 03 31
  22614620.295   -13465275.455 8 -10247976.68246  22614619.755    22614627.9984
  20253519.415   -18910765.726 9 -14716160.23148  20253519.280    20253524.7584
  22981934.385    11999823.018 8   9305942.94746  22981933.788    22981941.7894
  20681123.939    -6592498.970 9  -4866572.39047  20681123.366    20681129.8584
  23039222.765   -11188088.544 8  -8696358.22645  23039222.139    23039229.3264
  24058985.499    -6167521.482 7  -4790809.78045  24058984.900    24058993.3144
  22731473.545     3984907.917 8   3113775.83146  22731473.188    22731480.9404
  22344846.088   -12518471.739 8  -9729874.20546  22344845.545    22344851.7424
 99  9 14 18 21 30.0000000  0  8 08 29 23 21 15 09 03 31
  22608577.616   -13497029.580 8 -10272720.13246  22608577.058    22608585.3574
  20252159.916   -18917909.893 9 -14721727.11148  20252159.792    20252165.2974
  22994676.076    12066780.999 8   9358117.91146  22994675.477    22994683.6064
  20683506.195    -6579980.404 9  -4856817.68047  20683505.597    20683512.0324
  23020013.838   -11289031.565 8  -8775015.06845  23020013.177    23020020.4984
  24068690.357    -6116521.013 7  -4751069.18245  24068690.073    24068698.3634
  22747240.952     4067765.484 8   3178340.07646  22747240.593    22747248.2794
  22349953.694   -12491631.383 8  -9708959.66246  22349953.089    22349959.4044
 99  9 14 18 22  0.0000000  0  8 08 29 23 21 15 09 03 31
  22602634.320   -13528261.534 8 -10297056.70546  22602633.822    22602642.1224
  20250896.563   -18924548.924 9 -14726900.38648  20250896.456    20250901.9394
  23007439.919    12133854.849 8   9410383.15146  23007439.271    23007447.5214
  20685930.201    -6567242.287 9  -4846891.89547  20685929.609    20685936.0324
  23000832.325   -11389830.796 8  -8853559.88745  23000831.666    23000838.9574
  24078498.481    -6064979.175 7  -4710906.77245  24078498.143    24078506.5254
  22763065.066     4150921.468 8   3243136.86446  22763064.698    22763072.4284
  22355162.038   -12464261.586 8  -9687632.57546  22355161.384    22355167.6904
 99  9 14 18 22 30.0000000  0  8 08 29 23 21 15 09 03 31
  22596793.877   -13558953.788 8 -10320972.74246  22596793.355    22596801.6964
  20249733.120   -18930663.156 9 -14731664.71948  20249732.972    20249738.4304
  23020223.000    12201030.266 8   9462727.54646  23020222.381    23020230.7494
  20688398.404    -6554271.797 9  -4836785.03747  20688397.840    20688404.2724
  22981679.758   -11490478.168 8  -8931986.39745  22981679.115    22981686.3294
  24088410.597    -6012890.645 7  -4670318.32045  24088410.211    24088418.6824
  22778944.119     4234365.705 8   3308158.25746  22778943.765    22778951.5054
  22360471.419   -12436360.445 8  -9665891.43646  22360470.758    22360477.0294
 99  9 14 18 23  0.0000000  0  8 08 29 23 21 15 09 03 31
  22591063.206   -13589068.316 8 -10344438.58246  22591062.673    22591071.0784
  20248669.828   -18936250.650 9 -14736018.61248  20248669.678    20248675.1524
  23033025.550    12268306.355 8   9515150.39346  23033024.808    23033033.1184
  20690909.821    -6541074.595 9  -4826501.52547  20690909.242    20690915.6644
  22962557.060   -11590969.164 8  -9010291.03445  22962556.293    22962563.5734
  24098425.065    -5960263.281 7  -4629310.01245  24098424.677    24098433.2324
  22794876.974     4318093.395 8   3373400.51346  22794876.675    22794884.4954
  22365886.113   -12407905.783 8  -9643718.99946  22365885.490    22365891.8014
 99  9 14 18 23 30.0000000  0  8 08 29 23 21 15 09 03 31
  22585444.284   -13618595.836 8 -10367447.02946  22585443.773    22585452.0864
  20247704.943   -18941321.126 9 -14739969.63248  20247704.796    20247710.2964
  23045843.499    12335665.174 8   9567637.67046  23045842.834    23045851.0474
  20693464.163    -6527651.571 9  -4816042.04147  20693463.553    20693469.9774
  22943463.591   -11691306.218 8  -9088475.72745  22943462.861    22943470.0634
  24108539.446    -5907113.779 7  -4587894.86145  24108538.846    24108547.3824
  22810864.544     4402107.432 8   3438865.88746  22810864.078    22810871.9384
  22371407.702   -12378889.514 8  -9621108.94646  22371407.117    22371413.4784
 99  9 14 18 24  0.0000000  0  8 08 29 23 21 15 09 03 31
  22579937.164   -13647536.172 8 -10389997.93446  22579936.635    22579944.9334
  20246838.133   -18945876.024 9 -14743518.90548  20246838.016    20246843.4924
  23058676.494    12403102.436 8   9620186.11146  23058675.801    23058683.8994
  20696064.805    -6513984.943 9  -4805392.73547  20696064.243    20696070.6324
  22924398.829   -11791492.408 8  -9166542.85645  22924398.079    22924405.3124
  24118751.632    -5853447.495 7  -4546077.01545  24118751.346    24118759.8144
  22826903.180     4486390.727 8   3504541.09246  22826902.684    22826910.6304
  22377038.619   -12349298.966 8  -9598051.40446  22377037.999    22377044.3354
 99  9 14 18 24 30.0000000  0  8 08 29 23 21 15 09 03 31
  22574543.558   -13675880.196 8 -10412084.17046  22574543.029    22574551.2374
  20246067.118   -18949927.913 9 -14746676.22448  20246067.019    20246072.4624
  23071528.002    12470638.170 8   9672811.25646  23071527.363    23071535.5404
  20698713.330    -6500066.880 9  -4794547.51147  20698712.769    20698719.1784
  22905363.956   -11891521.700 8  -9244487.73345  22905363.138    22905370.4004
  24129059.865    -5799278.751 7  -4503867.62945  24129059.369    24129067.7614
  22842994.561     4570952.064 8   3570432.93346  22842994.204    22843002.1734
  22382781.744   -12319118.584 8  -9574534.23146  22382781.133    22382787.4344
 99  9 14 18 25  0.0000000  0  8 08 29 23 21 15 09 03 31
  22569261.583   -13703637.092 8 -10433712.90146  22569261.016    22569269.2614
  20245388.956   -18953491.728 9 -14749453.22348  20245388.839    20245394.3054
  23084398.916    12538276.534 8   9725516.37446  23084398.504    23084406.8304
  20701409.554    -6485898.149 9  -4783506.95447  20701409.003    20701415.4024
  22886357.680   -11991398.887 8  -9322314.08845  22886356.985    22886364.4044
  24139460.270    -5744623.996 7  -4461279.54945  24139459.710    24139468.5934
  22859138.341     4655787.507 8   3636538.38046  22859137.899    22859145.9234
  22388635.785   -12288355.459 8  -9550563.00446  22388635.190    22388641.5294
 99  9 14 18 25 30.0000000  0  8 08 29 23 21 15 09 03 31
  22564087.811   -13730825.597 8 -10454898.74946  22564087.277    22564095.5014
  20244802.373   -18956574.253 9 -14751855.18748  20244802.245    20244807.7494
  23097289.961    12606019.021 8   9778302.64846  23097289.479    23097297.7664
  20704158.652    -6471451.382 9  -4772249.75147  20704158.110    20704164.5094
  22867381.063   -12091120.624 8  -9400019.30645  22867380.572    22867387.9934
  24149956.171    -5689469.127 7  -4418301.75045  24149955.534    24149964.1724
  22875333.638     4740893.554 8   3702854.67746  22875333.146    22875341.1514
  22394598.397   -12257022.380 8  -9526147.65146  22394597.703    22394604.0624
 99  9 14 18 26  0.0000000  0  8 08 29 23 21 15 09 03 31
  22559021.851   -13757447.418 8 -10475643.01046  22559021.325    22559029.4704
  20244308.908   -18959167.519 9 -14753875.91448  20244308.767    20244314.2734
  23110204.350    12673883.518 8   9831183.99346  23110203.789    23110212.0494
  20706961.290    -6456723.507 9  -4760773.49947  20706960.759    20706967.1614
  22848436.297   -12190676.248 8  -9477595.09545  22848435.767    22848443.0994
  24160549.072    -5633803.377 7  -4374925.88945  24160548.231    24160557.0094
  22891579.937     4826268.619 8   3769380.60146  22891579.470    22891587.5874
  22400667.401   -12225130.202 8  -9501296.63446  22400666.651    22400673.0674
 99  9 14 18 26 30.0000000  0  8 08 29 23 21 15 09 03 31
  22554064.818   -13783496.590 8 -10495941.05746  22554064.266    22554072.4414
  20243910.397   -18961261.734 9 -14755507.77748  20243910.282    20243915.7444
  23123141.249    12741867.093 8   9884158.10446  23123140.663    23123148.9924
  20709816.161    -6441721.213 9  -4749083.42347  20709815.603    20709822.0394
  22829525.431   -12290054.495 8  -9555032.65945  22829524.748    22829532.0634
  24171240.139    -5577621.461 7  -4331147.82245  24171239.398    24171247.9534
  22907879.942     4911926.478 8   3836126.86646  22907879.605    22907887.7824
  22406839.509   -12192695.295 8  -9476022.71446  22406838.818    22406845.2694
 99  9 14 18 27  0.0000000  0  8 08 29 23 21 15 09 03 31
  22549216.530   -13808974.521 8 -10515793.95646  22549215.983    22549224.2644
  20243606.393   -18962859.106 9 -14756752.48248  20243606.263    20243611.7424
  23136098.902    12809959.989 8   9937217.42046  23136098.423    23136106.5714
  20712722.043    -6426450.701 9  -4737184.34147  20712721.481    20712727.9374
  22810648.302   -12389253.996 8  -9632330.94545  22810647.668    22810654.8994
  24182033.619    -5520901.379 7  -4286950.40145  24182032.937    24182041.4144
  22924233.244     4997862.639 8   3903089.99946  22924232.824    22924241.0414
  22413114.132   -12159721.969 8  -9450329.25346  22413113.494    22413119.9314
 99  9 14 18 27 30.0000000  0  8 08 29 23 21 15 09 03 31
  22544476.291   -13833884.695 8 -10535204.47646  22544475.684    22544483.9274
  20243394.806   -18963970.815 9 -14757618.75348  20243394.709    20243400.2064
  23149077.122    12878160.557 8   9990360.60346  23149076.697    23149084.7634
  20715676.518    -6410925.190 9  -4725086.55547  20715675.906    20715682.3924
  22791806.346   -12488269.491 8  -9709485.85345  22791805.621    22791812.8754
  24192931.722    -5463630.788 7  -4242324.01045  24192931.212    24192939.8934
  22940639.891     5084079.832 8   3970272.12146  22940639.516    22940647.7254
  22419489.385   -12126219.941 8  -9424223.80046  22419488.701    22419495.1814
 99  9 14 18 28  0.0000000  0  8 08 29 23 21 15 09 03 31
  22539844.214   -13858226.201 8 -10554171.87346  22539843.661    22539851.8554
  20243273.211   -18964610.025 9 -14758116.84148  20243273.074    20243278.5614
  23162074.990    12946463.110 8  10043583.29346  23162074.359    23162082.3444
  20718674.733    -6395169.533 9  -4712809.44447  20718674.110    20718680.6044
  22772997.928   -12587107.628 8  -9786502.57645  22772997.292    22773004.4584
  24203931.614    -5405826.360 7  -4197281.65745  24203931.097    24203939.9204
  22957098.605     5170570.282 8   4037667.16446  22957098.232    22957106.4234
  22425962.855   -12092201.809 8  -9397716.20746  22425962.259    22425968.6934
 99  9 14 18 28 30.0000000  0  8 08 29 23 21 15 09 03 31
  22535320.531   -13881998.127 8 -10572695.41946  22535319.973    22535328.2554
  20243236.616   -18964802.560 9 -14758266.87348  20243236.459    20243241.9714
  23175091.501    13014864.865 8  10096883.27346  23175090.858    23175098.8444
  20721715.666    -6379189.539 9  -4700357.52447  20721715.065    20721721.5174
  22754220.921   -12685781.180 8  -9863391.04446  22754220.341    22754227.5444
  24215028.012    -5347513.596 7  -4151843.18145  24215027.585    24215036.3504
  22973606.937     5257321.557 8   4105265.45446  22973606.573    22973614.7354
  22432533.569   -12057672.945 8  -9370810.63746  22432532.891    22432539.3114
 99  9 14 18 29  0.0000000  0  8 08 29 23 21 15 09 03 31
  22530904.296   -13905205.851 8 -10590779.35446  22530903.770    22530911.8664
  20243282.118   -18964563.372 9 -14758080.49148  20243281.948    20243287.4624
  23188127.828    13083370.533 8  10150264.20746  23188127.143    23188135.2014
  20724799.101    -6362986.001 9  -4687731.41147  20724798.501    20724804.9934
  22735473.059   -12784302.033 8  -9940160.51946  22735472.400    22735479.6244
  24226216.480    -5288717.488 8  -4106028.08445  24226216.189    24226224.9294
  22990159.211     5344304.196 8   4173044.02946  22990158.924    22990167.0464
  22439200.280   -12022638.845 8  -9343511.36446  22439199.615    22439206.1004
 99  9 14 18 29 30.0000000  0  8 08 29 23 21 15 09 03 31
  22526595.764   -13927847.573 8 -10608422.24046  22526595.203    22526603.2654
  20243410.872   -18963886.527 9 -14757553.08648  20243410.728    20243416.2404
  23201182.952    13151975.615 8  10203722.60446  23201182.286    23201190.4804
  20727927.263    -6346547.127 9  -4674921.91847  20727926.685    20727933.1894
  22716754.725   -12882667.920 8 -10016809.24346  22716753.948    22716761.2744
  24237492.123    -5229463.558 7  -4059856.26645  24237491.803    24237500.5274
  23006754.844     5431513.718 8   4240999.40546  23006754.475    23006762.5734
  22445961.033   -11987111.399 8  -9315827.67946  22445960.305    22445966.8914
 99  9 14 18 30  0.0000000  0  8 08 29 23 21 15 09 03 31
  22522396.694   -13949913.568 8 -10625616.51446  22522396.120    22522404.1604
  20243627.398   -18962748.948 9 -14756666.66048  20243627.219    20243632.6934
  23214257.837    13220683.773 8  10257261.33946  23214257.134    23214265.4304
  20731103.822    -6329854.287 9  -4661914.52247  20731103.246    20731109.7424
  22698066.507   -12980874.706 8 -10093333.99646  22698065.786    22698073.2024
  24248851.956    -5169767.929 7  -4013340.24045  24248851.539    24248860.2584
  23023392.342     5518943.691 8   4309126.53346  23023391.927    23023400.1074
  22452817.624   -11951079.734 8  -9287751.10046  22452816.948    22452823.4424
 99  9 14 18 30 30.0000000  0  8 08 29 23 21 15 09 03 31
  22518310.416   -13971387.443 8 -10642349.39046  22518309.829    22518317.7834
  20243937.353   -18961119.952 9 -14755397.31748  20243937.194    20243942.6784
  23227353.754    13289503.018 8  10310886.61646  23227353.108    23227361.4834
  20734329.938    -6312900.890 9  -4648704.10647  20734329.383    20734335.9204
  22679412.249   -13078903.613 8 -10169720.12546  22679411.480    22679418.9444
  24260297.661    -5109620.537 7  -3966472.23445  24260297.226    24260305.9724
  23040073.395     5606602.522 8   4377432.01146  23040072.910    23040081.0314
  22459772.829   -11914530.126 8  -9259270.91246  22459772.143    22459778.6424
 99  9 14 18 31  0.0000000  0  8 08 29 23 21 15 09 03 31
  22514337.176   -13992266.598 8 -10658618.84946  22514336.599    22514344.6024
  20244345.412   -18958975.447 9 -14753726.28048  20244345.252    20244350.7814
  23240468.597    13358421.536 8  10364589.26746  23240467.929    23240476.2984
  20737607.024    -6295679.745 9  -4635285.05647  20737606.454    20737613.0274
  22660795.313   -13176736.598 8 -10245953.60246  22660794.549    22660801.9814
  24271836.146    -5048986.834 7  -3919225.26045  24271835.657    24271844.3564
  23056799.631     5694499.428 8   4445922.99146  23056799.161    23056807.3674
  22466828.259   -11877453.624 8  -9230380.18146  22466827.639    22466834.0884
 99  9 14 18 31 30.0000000  0  8 08 29 23 21 15 09 03 31
  22510477.878   -14012547.501 8 -10674422.13946  22510477.311    22510485.2944
  20244854.309   -18956300.885 9 -14751642.21148  20244854.209    20244859.7424
  23253600.508    13427430.520 8  10418362.39146  23253599.868    23253608.3934
  20740934.864    -6278191.871 9  -4621658.16347  20740934.320    20740940.9144
  22642218.308   -13274359.536 8 -10322023.41246  22642217.499    22642224.8954
  24283473.075    -4987834.215 7  -3871573.93045  24283472.672    24283481.2104
  23073573.882     5782648.611 8   4514610.54846  23073573.487    23073581.7194
  22473986.920   -11839834.839 8  -9201066.87846  22473986.293    22473992.7764
 99  9 14 18 32  0.0000000  0  8 08 29 23 21 15 09 03 31
  22506733.952   -14032222.154 8 -10689753.04146  22506733.363    22506741.3964
  20245464.920   -18953092.415 9 -14749142.11548  20245464.776    20245470.3644
  23266750.995    13496537.666 8  10472211.98946  23266750.503    23266759.0834
  20744309.746    -6260456.929 9  -4607838.75847  20744309.213    20744315.7834
  22623681.680   -13371769.681 8 -10397927.40046  22623681.031    22623688.3494
  24295210.357    -4926155.432 7  -3823512.58045  24295209.856    24295218.4044
  23090396.674     5871051.936 8   4583496.12646  23090396.212    23090404.4594
  22481251.351   -11801660.340 8  -9171320.55446  22481250.684    22481257.0964
 99  9 14 18 32 30.0000000  0  8 08 29 23 21 15 09 03 31
  22503103.998   -14051297.569 8 -10704616.97746  22503103.416    22503111.4564
  20246174.364   -18949364.302 9 -14746237.09548  20246174.235    20246179.8244
  23279919.602    13565738.151 8  10526134.33146  23279918.987    23279927.6024
  20747729.137    -6242488.067 9  -4593837.06647  20747728.636    20747735.1914
  22605184.869   -13468971.917 8 -10473669.38946  22605184.036    22605191.2504
  24307049.290    -4863940.350 7  -3775033.35045  24307049.000    24307057.5344
  23107268.380     5959712.546 8   4652582.20546  23107267.871    23107276.2124
  22488619.113   -11762942.659 8  -9141150.96646  22488618.424    22488624.8764
 99  9 14 18 33  0.0000000  0  8 08 29 23 21 15 09 03 31
  22499585.167   -14069789.448 8 -10719026.23146  22499584.532    22499592.3714
  20246978.107   -18945140.685 9 -14742945.97348  20246977.969    20246983.5144
  23293104.803    13635026.424 8  10580125.08446  23293104.139    23293112.8154
  20751194.392    -6224278.087 9  -4579647.49147  20751193.867    20751200.4334
  22586725.444   -13565977.258 8 -10549257.95346  22586724.586    22586731.6504
  24318987.312    -4801205.215 7  -3726148.87145  24318987.016    24318995.7674
  23124189.233     6048631.893 8   4721869.88446  23124188.717    23124197.0864
  22496089.347   -11723686.434 8  -9110561.74846  22496088.681    22496095.1064
 99  9 14 18 33 30.0000000  0  8 08 29 23 21 15 09 03 31
  22496177.568   -14087696.441 8 -10732979.71246  22496176.971    22496184.7814
  20247874.213   -18940431.987 9 -14739276.86848  20247874.068    20247879.5694
  23306309.743    13704419.332 8  10634197.34945  23306309.168    23306317.8464
  20754702.487    -6205843.345 9  -4565282.77947  20754701.939    20754708.4484
  22568301.488   -13662795.293 8 -10624700.56646  22568300.800    22568307.7654
  24331016.786    -4737991.144 7  -3676891.22945  24331016.088    24331024.9494
  23141158.287     6137805.961 8   4791356.03146  23141157.920    23141166.4084
  22503660.725   -11683899.182 8  -9079558.73446  22503660.060    22503666.4244
 99  9 14 18 34  0.0000000  0  8 08 29 23 21 15 09 03 31
  22492881.484   -14105017.501 8 -10746476.63246  22492880.903    22492888.7864
  20248860.173   -18935250.830 9 -14735239.60548  20248860.006    20248865.5144
  23319535.251    13773919.114 8  10688352.92246  23319534.741    23319543.3314
  20758253.678    -6187181.992 9  -4550741.48547  20758253.081    20758259.6224
  22549912.034   -13759432.571 8 -10700002.31446  22549911.281    22549918.1934
  24343130.478    -4674332.201 7  -3627286.85145  24343130.062    24343138.9124
  23158173.890     6227221.980 8   4861030.73846  23158173.480    23158181.7274
  22511329.606   -11643599.394 8  -9048156.33646  22511328.921    22511335.2804
 99  9 14 18 34 30.0000000  0  9 08 29 25 23 21 15 09 03 31
  22489694.759   -14121763.955 8 -10759525.79646  22489694.139    22489702.0584
  20249931.163   -18929622.523 9 -14730853.92148  20249931.024    20249936.5804
  24726111.339    -2792605.630 8  -2135910.02845  24726111.369    24726123.8274
  23332778.382    13843510.955 8  10742580.22946  23332777.814    23332786.3754
  20761850.394    -6168281.219 9  -4536013.63247  20761849.811    20761856.3484
  22531555.589   -13855896.847 8 -10775169.25446  22531554.660    22531561.6744
  24355327.710    -4610234.383 7  -3577340.51545  24355327.418    24355336.4414
  23175232.002     6316862.359 8   4930880.24146  23175231.581    23175239.8634
  22519093.200   -11602801.524 8  -9016365.82546  22519092.566    22519098.8914
 99  9 14 18 35  0.0000000  0  9 08 29 25 23 21 15 09 03 31
  22486623.605   -14137902.841 8 -10772101.53646  22486622.995    22486630.8274
  20251089.588   -18923535.032 9 -14726110.42548  20251089.433    20251095.0324
  24706802.054    -2894077.117 8  -2214978.59845  24706801.768    24706814.1904
  23346041.814    13913210.214 8  10796891.22746  23346041.281    23346049.8864
  20765496.366    -6149121.762 9  -4521084.20747  20765495.786    20765502.2814
  22513237.121   -13952159.615 8 -10850179.17846  22513236.371    22513243.4754
  24367610.162    -4545689.065 7  -3527045.52345  24367609.975    24367619.0474
  23192332.709     6406726.873 8   5000904.40346  23192332.352    23192340.7194
  22526957.448   -11561474.491 8  -8984162.98746  22526956.763    22526963.2164
 99  9 14 18 35 30.0000000  0  9 08 29 25 23 21 15 09 03 31
  22483670.082   -14153423.660 8 -10784195.67046  22483669.479    22483677.3414
  20252337.638   -18916976.500 9 -14720999.89048  20252337.508    20252343.0614
  24687489.154    -2995566.598 7  -2294061.16745  24687488.708    24687500.8514
  23359326.008    13983017.508 8  10851286.41546  23359325.345    23359333.8834
  20769192.175    -6129700.415 9  -4505950.72047  20769191.588    20769198.0874
  22494959.276   -14048209.661 8 -10925023.34246  22494958.684    22494965.8044
  24379980.429    -4480683.327 7  -3476391.72045  24379980.230    24379989.2254
  23209471.761     6496792.483 8   5071085.24946  23209471.328    23209479.7324
  22534921.454   -11519623.301 8  -8951551.71246  22534920.849    22534927.2444
 99  9 14 18 36  0.0000000  0  9 08 29 25 23 21 15 09 03 31
  22480833.447   -14168330.836 8 -10795811.64146  22480832.773    22480840.6944
  20253672.369   -18909962.698 9 -14715534.59648  20253672.185    20253677.7454
  24668174.976    -3097061.530 7  -2373147.94745  24668174.679    24668186.6374
  23372626.923    14052914.261 8  10905751.31546  23372626.277    23372634.8814
  20772940.721    -6110001.541 9  -4490600.97047  20772940.153    20772946.7014
  22476722.858   -14144042.685 8 -10999698.38746  22476722.229    22476729.4004
  24392441.776    -4415199.895 7  -3425365.73045  24392441.474    24392450.3074
  23226645.103     6587039.286 8   5141407.30646  23226644.748    23226653.1934
  22542982.618   -11477262.227 8  -8918543.12446  22542981.978    22542988.3914
 99  9 14 18 36 30.0000000  0  9 08 29 25 23 21 15 09 03 31
  22478111.354   -14182635.784 8 -10806958.34246  22478110.648    22478118.4904
  20255092.586   -18902499.304 9 -14709718.96548  20255092.401    20255097.9264
  24648861.518    -3198551.704 7  -2452231.02245  24648861.519    24648873.5114
  23385943.697    14122894.522 8  10960281.28146  23385943.168    23385951.7974
  20776739.640    -6090037.967 9  -4475044.96247  20776739.093    20776745.6444
  22458527.949   -14239657.536 8 -11074203.44146  22458527.245    22458534.4924
  24404994.132    -4349237.781 7  -3373966.69845  24404993.884    24405002.4014
  23243852.592     6677464.555 8   5211868.41346  23243852.165    23243860.6454
  22551140.150   -11434393.733 8  -8885139.14746  22551139.531    22551146.0424
 99  9 14 18 37  0.0000000  0  9 08 29 25 23 21 15 09 03 31
  22475502.023   -14196347.691 8 -10817642.92946  22475501.294    22475509.1904
  20256601.691   -18894569.163 9 -14703539.64748  20256601.516    20256607.0084
  24629547.389    -3300046.035 7  -2531317.35345  24629547.420    24629559.4344
  23399276.520    14192957.894 8  11014876.01546  23399275.958    23399284.5174
  20780586.124    -6069824.435 9  -4459294.19047  20780585.600    20780592.1824
  22440374.936   -14335052.338 8 -11148537.02246  22440374.173    22440381.4424
  24417635.771    -4282805.634 7  -3322201.40545  24417635.543    24417643.9954
  23261091.800     6768055.819 8   5282458.88546  23261091.291    23261099.7254
  22559392.410   -11391028.025 8  -8851347.74746  22559391.778    22559398.2904
 99  9 14 18 37 30.0000000  0  9 08 29 25 23 21 15 09 03 31
  22473005.010   -14209470.021 8 -10827868.09946  22473004.223    22473012.0554
  20258202.630   -18886156.369 9 -14696984.22448  20258202.448    20258207.9074
  24610232.013    -3401550.316 7  -2610411.39645  24610231.871    24610243.7284
  23412627.716    14263117.880 8  11069546.03246  23412627.135    23412635.5754
  20784480.914    -6049357.086 9  -4443345.62647  20784480.414    20784487.0034
  22422264.912   -14430221.540 8 -11222694.82346  22422264.150    22422271.3434
  24430367.936    -4215897.230 7  -3270065.01045  24430367.649    24430376.3114
  23278366.207     6858833.401 8   5353194.52646  23278365.743    23278374.3304
  22567737.256   -11347176.080 8  -8817177.43446  22567736.561    22567743.0584
 99  9 14 18 38  0.0000000  0  9 08 29 25 23 21 15 09 03 31
  22470619.998   -14222003.049 8 -10837634.06846  22470619.224    22470627.1064
  20259893.661   -18877270.012 9 -14690059.79948  20259893.468    20259898.9684
  24590914.020    -3503066.657 7  -2689514.85645  24590913.816    24590925.6514
  23425998.284    14333380.338 8  11124295.88046  23425997.610    23426006.3424
  20788423.669    -6028637.908 9  -4427200.84147  20788423.134    20788429.7184
  22404198.137   -14525163.052 8 -11296675.21246  22404197.407    22404204.4644
  24443188.903    -4148523.696 7  -3217566.18045  24443188.543    24443197.0924
  23295680.537     6949821.343 8   5424094.08346  23295680.216    23295688.9244
  22576177.683   -11302821.585 8  -8782615.53446  22576176.998    22576183.5284
 99  9 14 18 38 30.0000000  0  9 08 29 25 23 21 15 09 03 31
  22468346.835   -14233948.583 8 -10846942.26846  22468346.117    22468353.8214
  20261677.120   -18867897.457 9 -14682756.51548  20261676.933    20261682.5114
  24571588.819    -3604620.329 7  -2768647.40545  24571588.544    24571600.5354
  23439387.986    14403743.043 8  11179123.84846  23439387.250    23439396.0184
  20792411.982    -6007679.295 9  -4410869.48347  20792411.483    20792418.0024
  22386174.056   -14619880.526 8 -11370481.03646  22386173.355    22386180.2494
  24456096.015    -4080695.684 7  -3164713.21745  24456095.687    24456104.5244
  23313036.466     7041027.373 8   5495163.57046  23313036.140    23313044.9014
  22584714.812   -11257958.570 8  -8747657.37946  22584714.098    22584720.7144
 99  9 14 18 39  0.0000000  0  9 08 29 25 23 21 15 09 03 31
  22466187.678   -14245294.851 8 -10855783.47446  22466186.893    22466194.6864
  20263552.011   -18858044.874 9 -14675079.18048  20263551.845    20263557.3974
  24552255.862    -3706216.293 7  -2847812.89645  24552255.407    24552267.3504
  23452798.050    14474213.547 8  11234035.82345  23452797.416    23452806.0194
  20796447.745    -5986471.723 9  -4394344.12147  20796447.179    20796453.6964
  22368193.058   -14714371.176 8 -11444110.10446  22368192.412    22368199.1134
  24469092.509    -4012399.905 8  -3111495.75245  24469092.239    24469100.4614
  23330433.779     7132448.771 8   5566400.88146  23330433.246    23330442.0144
  22593347.687   -11212592.670 8  -8712307.37446  22593346.982    22593353.5934
 99  9 14 18 39 30.0000000  0 10 08 29 25 23 01 21 15 09 03 31
  22464145.076   -14256028.670 8 -10864147.48646  22464144.367    22464152.0824
  20265514.874   -18847730.290 9 -14667041.84448  20265514.686    20265520.1984
  24532917.279    -3807841.221 7  -2927000.91345  24532916.705    24532928.5534
  23466230.568    14544800.795 8  11289038.77945  23466229.847    23466238.3724
  24647095.779    -4190934.371 7  -2686950.14345  24647095.412    24647107.9454
  20800533.511    -5965000.788 9  -4377613.54747  20800532.981    20800539.4984
  22350255.948   -14808631.329 8 -11517559.55946  22350255.330    22350261.9874
  24482177.588    -3943637.839 8  -3057914.92745  24482177.202    24482185.1624
  23347874.274     7224097.844 8   5637815.61846  23347873.703    23347882.3864
  22602077.640   -11166716.252 8  -8676559.55646  22602077.008    22602083.6224
 99  9 14 18 40  0.0000000  0 10 08 29 25 23 01 21 15 09 03 31
  22462217.934   -14266155.726 8 -10872038.68246  22462217.171    22462224.9244
  20267560.467   -18836981.060 9 -14658665.82548  20267560.250    20267565.7674
  24513571.330    -3909504.975 7  -3006219.21745  24513570.868    24513582.4944
  23479680.552    14615480.488 8  11344113.74245  23479679.816    23479688.4864
  24627173.718    -4295623.705 7  -2768525.95745  24627173.313    24627185.7324
  20804667.441    -5943277.407 9  -4360686.26947  20804666.879    20804673.3854
  22332360.132   -14902674.933 8 -11590840.28546  22332359.459    22332366.1814
  24495348.783    -3874422.520 8  -3003980.95445  24495348.432    24495356.5104
  23365350.366     7315935.804 8   5709377.51446  23365349.934    23365358.7474
  22610902.396   -11120342.398 8  -8640424.13246  22610901.689    22610908.3084
 99  9 14 18 40 30.0000000  0 10 08 29 25 23 01 21 15 09 03 31
  22460407.365   -14275670.266 8 -10879452.59446  22460406.594    22460414.4164
  20269690.304   -18825788.411 9 -14649944.29548  20269690.145    20269695.6564
  24494218.535    -4011205.204 7  -3085465.87345  24494218.116    24494229.4704
  23493146.419    14686244.003 8  11399254.04745  23493145.753    23493154.4234
  24607277.308    -4400179.502 7  -2849997.75045  24607276.807    24607289.0594
  20808848.650    -5921305.264 9  -4343565.15347  20808848.074    20808854.5894
  22314505.443   -14996501.709 8 -11663952.02746  22314504.750    22314511.5784
  24508606.992    -3804751.509 8  -2949691.87945  24508606.465    24508614.8704
  23382859.765     7407947.354 8   5781074.69646  23382859.293    23382868.0614
  22619815.396   -11073504.430 8  -8603927.06746  22619814.718    22619821.3214
 99  9 14 18 41  0.0000000  0 10 08 29 25 23 01 21 15 09 03 31
  22458713.644   -14284570.232 8 -10886387.60346  22458712.977    22458720.7474
  20271904.782   -18814151.323 9 -14640876.43448  20271904.593    20271910.1374
  24474863.653    -4112915.570 7  -3164720.47745  24474863.364    24474874.5574
  23506629.355    14757097.645 8  11454464.56145  23506628.700    23506637.6264
  24587404.638    -4504610.281 7  -2931372.10945  24587404.104    24587416.3914
  20813076.831    -5899086.285 9  -4326251.67947  20813076.227    20813082.7504
  22296692.851   -15090106.560 8 -11736890.83446  22296692.251    22296699.2034
  24521949.374    -3734635.060 7  -2895055.70445  24521948.989    24521957.7774
  23400401.067     7500126.497 8   5852902.44746  23400400.599    23400409.3924
  22628814.549   -11026213.724 8  -8567077.21546  22628813.908    22628820.4674
 99  9 14 18 41 30.0000000  0 10 08 29 25 23 01 21 15 09 03 31
  22457138.205   -14292849.227 8 -10892838.77346  22457137.567    22457145.2454
  20274207.770   -18802049.082 9 -14631446.12948  20274207.608    20274213.1094
  24455507.357    -4214633.042 7  -3243980.60945  24455507.115    24455518.0364
  23520128.361    14828034.579 8  11509739.96245  23520127.754    23520136.6134
  24567551.269    -4608940.855 7  -3012668.42745  24567550.530    24567562.8804
  20817351.122    -5876624.675 9  -4308749.16247  20817350.538    20817357.0754
  22278924.427   -15183479.281 8 -11809648.77046  22278923.872    22278931.0304
  24535374.317    -3664085.612 7  -2840082.14345  24535374.134    24535382.9014
  23417975.902     7592482.157 8   5924867.73846  23417975.373    23417984.2714
  22637900.157   -10978468.571 8  -8529873.25446  22637899.469    22637906.0684
 99  9 14 18 42  0.0000000  0 10 08 29 25 23 01 21 15 09 03 31
  22455681.582   -14300504.086 8 -10898803.57146  22455680.866    22455688.6554
  20276603.208   -18789461.251 9 -14621637.43448  20276603.030    20276608.4864
  24436149.675    -4316356.786 7  -3323245.60045  24436149.586    24436160.6444
  23533642.193    14899049.150 8  11565075.88645  23533641.589    23533650.3694
  24547716.466    -4713170.741 7  -3093886.27345  24547715.901    24547728.3654
  20821673.401    -5853911.201 9  -4291050.37347  20821672.816    20821679.3364
  22261203.311   -15276604.594 8 -11882213.92046  22261202.710    22261209.8884
  24548884.001    -3593091.357 7  -2784761.98745  24548883.811    24548892.8304
  23435586.314     7685025.541 8   5996979.33145  23435585.881    23435594.8334
  22647072.071   -10930269.795 8  -8492315.80946  22647071.428    22647078.0504
 99  9 14 18 42 30.0000000  0  9 08 29 25 23 01 21 15 03 31
  22454343.140   -14307537.737 8 -10904284.32546  22454342.452    22454350.1384
  20279091.967   -18776382.820 9 -14611446.45348  20279091.777    20279097.2594
  24416792.086    -4418080.358 7  -3402510.49345  24416792.018    24416803.2964
  23547172.326    14970150.600 8  11620479.51345  23547171.672    23547180.5644
  24527902.140    -4817292.321 7  -3175019.70645  24527901.618    24527914.2754
  20826043.269    -5830947.551 9  -4273156.63947  20826042.661    20826049.2074
  22243530.703   -15369474.802 8 -11954580.29246  22243530.124    22243537.2834
  23453236.617     7777777.792 8   6069253.68445  23453236.102    23453245.0494
  22656330.809   -10881615.312 8  -8454403.26946  22656330.159    22656336.7094
 99  9 14 18 43  0.0000000  0  9 08 29 25 23 01 21 15 03 31
  22453120.803   -14313960.901 8 -10909289.38746  22453120.119    22453127.7524
  20281670.027   -18762835.067 9 -14600889.77048  20281669.822    20281675.3214
  24397432.006    -4519815.135 7  -3481784.09345  24397432.071    24397443.6934
  23560719.064    15041339.510 8  11675951.26545  23560718.444    23560727.5424
  24508106.023    -4921320.827 7  -3256080.67045  24508105.442    24508117.8024
  20830461.305    -5807730.899 9  -4255065.75947  20830460.642    20830467.2294
  22225906.149   -15462093.164 8 -12026750.41346  22225905.436    22225912.5834
  23470922.532     7870717.337 8   6141673.97045  23470922.108    23470930.9364
  22665679.580   -10832487.481 8  -8416121.88646  22665678.887    22665685.4394
 99  9 14 18 43 30.0000000  0  9 08 29 25 23 01 21 15 03 31
  22452018.554   -14319752.936 8 -10913802.66646  22452017.971    22452025.5924
  20284337.119   -18748819.423 9 -14589968.49748  20284336.896    20284342.3944
  24378071.377    -4621554.581 7  -3561061.34045  24378071.353    24378083.1944
  23574285.720    15112631.932 8  11731503.70245  23574285.082    23574294.1144
  24488336.218    -5025212.233 7  -3337034.82645  24488335.678    24488347.6214
  20834932.964    -5784231.986 9  -4236754.94347  20834932.356    20834938.9204
  22208333.161   -15554439.367 8 -12098708.48846  22208332.571    22208339.6244
  23488644.717     7963848.042 8   6214243.18445  23488644.320    23488653.4454
  22675122.260   -10782865.787 8  -8377455.69246  22675121.610    22675128.1604
 99  9 14 18 44  0.0000000  0  9 08 29 25 23 01 21 15 03 31
  22451032.726   -14324933.840 8 -10917839.71446  22451032.054    22451039.7774
  20287088.850   -18734358.883 9 -14578700.55148  20287088.651    20287094.1624
  24358710.574    -4723295.654 8  -3640339.85645  24358710.506    24358722.3804
  23587871.471    15184025.758 8  11787135.13645  23587870.897    23587880.0454
  24468596.373    -5128944.736 7  -3417865.08845  24468595.914    24468607.7994
  20839456.478    -5760460.770 9  -4218231.93747  20839455.835    20839462.4344
  22190809.919   -15646525.245 8 -12170463.70146  22190809.212    22190816.2584
  23506398.033     8057140.923 8   6286938.77545  23506397.559    23506406.6564
  22684659.104   -10732749.598 8  -8338404.15546  22684658.458    22684665.0804
 99  9 14 18 44 30.0000000  0  9 08 29 25 23 01 21 15 03 31
  22450161.665   -14329510.646 8 -10921406.04446  22450161.027    22450168.7754
  20289922.768   -18719466.480 9 -14567096.08248  20289922.569    20289928.0844
  24339352.219    -4825023.593 8  -3719608.14345  24339352.078    24339363.8294
  23601476.947    15255522.505 8  11842846.77845  23601476.277    23601485.3554
  24448884.561    -5232529.939 7  -3498580.59145  24448884.031    24448896.1174
  20844028.379    -5736435.230 9  -4199510.75447  20844027.760    20844034.3754
  22173333.896   -15738362.414 8 -12242025.12046  22173333.171    22173340.1984
  23524175.598     8150561.889 8   6359734.18445  23524175.082    23524184.0584
  22694289.889   -10682139.622 8  -8298967.86146  22694289.290    22694295.9134
 99  9 14 18 45  0.0000000  0  9 08 29 25 23 01 21 15 03 31
  22449403.310   -14333496.041 8 -10924511.55146  22449402.642    22449410.3734
  20292840.154   -18704135.459 9 -14555149.84448  20292839.969    20292845.4464
  24319997.569    -4926731.383 8  -3798860.71745  24319997.387    24320009.1464
  23615100.004    15327111.570 8  11898630.35245  23615099.426    23615108.3714
  24429201.391    -5335965.438 7  -3579179.49345  24429200.866    24429212.7784
  20848646.438    -5712167.028 9  -4180600.49247  20848645.853    20848652.4614
  22155904.509   -15829954.112 8 -12313395.27046  22155903.857    22155910.7684
  23541974.100     8244093.861 8   6432616.06945  23541973.780    23541982.6604
  22704013.615   -10631041.106 8  -8259150.89046  22704013.089    22704019.7604
 99  9 14 18 45 30.0000000  0  9 08 29 25 23 01 21 15 03 31
  22448755.818   -14336898.683 8 -10927162.94346  22448755.101    22448762.9864
  20295842.925   -18688355.926 9 -14542854.11248  20295842.750    20295848.1884
  24300650.014    -5028403.086 8  -3878085.16945  24300649.821    24300661.4784
  23628740.301    15398791.440 8  11954484.65645  23628739.773    23628748.6714
  24409546.657    -5439250.142 7  -3659660.85645  24409546.263    24409558.0214
  20853308.046    -5687670.220 9  -4161512.09547  20853307.496    20853314.0894
  22138522.098   -15921299.727 8 -12384573.65946  22138521.350    22138528.1774
  23559796.259     8337749.038 8   6505593.97645  23559795.972    23559804.7944
  22713829.930   -10579456.555 8  -8218955.18146  22713829.373    22713836.0644
 99  9 14 18 46  0.0000000  0  9 08 29 25 23 01 21 15 03 31
  22448219.248   -14339718.320 8 -10929360.06246  22448218.582    22448226.4234
  20298934.722   -18672108.426 9 -14530193.72648  20298934.550    20298939.9994
  24281313.050    -5130019.226 8  -3957266.36245  24281312.787    24281324.2574
  23642399.173    15470567.701 8  12010414.07145  23642398.548    23642407.3884
  24389916.576    -5542406.412 7  -3740042.14645  24389916.232    24389927.9764
  20858013.199    -5662944.298 9  -4142245.16247  20858012.658    20858019.2614
  22121187.764   -16012392.322 8 -12455554.88746  22121186.961    22121193.7434
  23577645.639     8431546.590 8   6578682.80645  23577645.245    23577654.1834
  22723741.600   -10527370.925 8  -8178369.03546  22723740.991    22723747.6264
 99  9 14 18 46 30.0000000  0  9 08 29 25 23 01 21 15 03 31
  22447796.256   -14341941.013 8 -10931092.01846  22447795.634    22447803.4404
  20302117.064   -18655385.157 9 -14517162.61748  20302116.907    20302122.3394
  24261986.655    -5231579.178 8  -4036403.74945  24261986.387    24261997.4754
  23656078.317    15542451.789 8  12066427.54045  23656077.638    23656086.6344
  24370310.950    -5645435.186 7  -3820324.08745  24370310.525    24370322.0284
  20862764.800    -5637974.378 9  -4122788.10747  20862764.269    20862770.9294
  22103903.337   -16103222.377 8 -12526331.54446  22103902.587    22103909.3984
  23595522.223     8525487.685 8   6651883.50845  23595521.770    23595530.7444
  22733747.372   -10474790.409 8  -8137397.26046  22733746.755    22733753.4144
 99  9 14 18 47  0.0000000  0  9 08 29 25 23 01 21 15 03 31
  22447490.293   -14343549.418 8 -10932345.31246  22447489.596    22447497.3624
  20305393.129   -18638169.369 9 -14503747.72548  20305392.969    20305398.4204
  24242670.117    -5333086.904 8  -4115500.42245  24242669.879    24242680.9664
  23669781.295    15614461.498 7  12122538.86445  23669780.732    23669789.6884
  24350735.552    -5748303.728 7  -3900481.22445  24350735.117    24350746.5034
  20867567.976    -5612733.451 9  -4103119.87947  20867567.494    20867574.1714
  22086673.452   -16193766.308 8 -12596885.22946  22086672.695    22086679.5434
  23613430.049     8619593.865 8   6725212.82145  23613429.683    23613438.7154
  22743848.161   -10421710.272 8  -8096036.16746  22743847.652    22743854.2844
 99  9 14 18 47 30.0000000  0  9 08 29 25 23 01 21 15 03 31
  22447302.881   -14344534.159 8 -10933112.62846  22447302.186    22447310.0234
  20308756.432   -18620495.321 9 -14489975.75048  20308756.271    20308761.7164
  24223360.048    -5434560.167 7  -4194570.25645  24223360.007    24223371.0644
  23683506.522    15686588.260 7  12178741.38445  23683506.060    23683515.1434
  24331187.467    -5851027.925 7  -3980525.86445  24331187.131    24331198.6794
  20872424.475    -5587212.695 9  -4083233.59847  20872423.951    20872430.5784
  22069495.994   -16284034.924 8 -12667224.39446  22069495.196    22069502.0244
  23631366.930     8713853.106 8   6798661.41345  23631366.616    23631375.8234
  22754040.073   -10368152.280 8  -8054302.71446  22754039.436    22754046.0014
 99  9 14 18 48  0.0000000  0  9 08 29 25 23 01 21 15 03 31
  22447233.890   -14344896.575 8 -10933395.02646  22447233.214    22447241.0584
  20312202.282   -18602387.209 9 -14475865.53848  20312202.115    20312207.5884
  24204050.563    -5536031.387 7  -4273638.49945  24204050.445    24204061.4194
  23697248.571    15758802.872 7  12235012.37045  23697248.077    23697257.3284
  24311665.651    -5953615.975 7  -4060464.38245  24311664.973    24311676.7314
  20877334.139    -5561412.372 9  -4063129.47747  20877333.593    20877340.2064
  22052367.911   -16374043.804 8 -12737361.16946  22052367.143    22052373.9144
  23649326.998     8808233.144 8   6872204.14245  23649326.681    23649335.9534
  22764315.767   -10314153.671 8  -8012225.93846  22764315.103    22764321.6574
 99  9 14 18 48 30.0000000  0  9 08 29 25 23 01 21 15 03 31
  22447284.694   -14344629.819 8 -10933187.15746  22447283.969    22447291.7494
  20315731.630   -18583840.247 9 -14461413.36448  20315731.472    20315736.9314
  24184741.049    -5637502.936 7  -4352706.98545  24184740.744    24184751.8524
  23711008.534    15831111.872 8  12291356.91245  23711008.021    23711017.4414
  24292174.898    -6056040.382 7  -4140275.42445  24292174.379    24292185.6064
  20882296.330    -5535335.989 9  -4042810.24147  20882295.807    20882302.4474
  22035291.271   -16463782.613 8 -12807287.49246  22035290.456    22035297.1974
  23667309.268     8902729.846 8   6945837.79345  23667309.012    23667318.1604
  22774672.062   -10259731.479 8  -7969819.09546  22774671.313    22774677.8594
 99  9 14 18 49  0.0000000  0  9 08 29 25 23 01 21 15 03 31
  22447457.262   -14343723.007 8 -10932480.51946  22447456.540    22447464.3904
  20319345.364   -18564849.733 9 -14446615.56748  20319345.210    20319350.6714
  24165435.271    -5738953.189 7  -4431758.88945  24165434.889    24165446.2034
  23724784.617    15903505.914 8  12347767.71345  23724784.233    23724793.7664
  24272715.291    -6158299.485 7  -4219957.63845  24272714.899    24272726.1554
  20887311.500    -5508981.286 9  -4022274.13547  20887310.956    20887317.6584
  22018268.111   -16553239.636 8 -12876994.23946  22018267.320    22018274.1384
  23685320.479     8997378.189 8   7019589.56545  23685320.054    23685329.4624
  22785108.716   -10204886.525 8  -7927082.82046  22785108.017    22785114.5574
 99  9 14 18 49 30.0000000  0  9 08 29 25 23 01 21 15 03 31
  22447751.868   -14342174.725 8 -10931274.07046  22447751.165    22447758.9274
  20323042.849   -18545419.506 9 -14431475.14648  20323042.680    20323048.1174
  24146136.307    -5840366.763 7  -4510782.24045  24146136.218    24146147.4194
  23738576.357    15975981.235 8  12404241.85945  23738575.975    23738585.5954
  24253285.342    -6260404.305 7  -4299519.66145  24253284.930    24253295.8744
  20892377.325    -5482360.605 9  -4001530.77747  20892376.739    20892383.4194
  22001298.590   -16642414.459 8 -12946481.09746  22001297.848    22001304.7084
  23703361.936     9092187.122 8   7093466.48045  23703361.654    23703371.1454
  22795626.370   -10149616.257 8  -7884015.14046  22795625.597    22795632.1504
 99  9 14 18 50  0.0000000  0  9 08 29 25 23 01 21 15 03 31
  22448166.311   -14339996.643 8 -10929576.86146  22448165.619    22448173.3384
  20326826.462   -18525536.876 9 -14415982.20148  20326826.261    20326831.6824
  24126846.359    -5941735.820 7  -4589770.86745  24126846.033    24126857.5694
  23752384.354    16048541.210 8  12460781.98245  23752383.876    23752393.5054
  24233885.473    -6362351.049 7  -4378958.43045  24233884.911    24233896.0734
  20897489.753    -5455494.742 9  -3980596.36947  20897489.149    20897495.8194
  21984383.531   -16731303.868 8 -13015745.55446  21984382.719    21984389.5094
  23721431.664     9187143.522 8   7167458.30845  23721431.434    23721440.7844
  22806226.448   -10093912.405 8  -7840609.60746  22806225.718    22806232.2714
 99  9 14 18 50 30.0000000  0  9 08 29 25 23 01 21 15 03 31
  22448698.849   -14337198.250 8 -10927396.27746  22448698.159    22448705.8204
  20330693.815   -18505213.991 9 -14400146.19448  20330693.634    20330699.0504
  24107567.499    -6043046.531 7  -4668714.05145  24107567.278    24107578.9584
  23766210.414    16121196.409 8  12517396.29546  23766209.815    23766219.5504
  24214515.014    -6464142.704 7  -4458276.40645  24214514.422    24214525.4694
  20902645.688    -5428400.077 9  -3959483.66347  20902645.110    20902651.7594
  21967522.826   -16819906.770 8 -13084786.75346  21967521.981    21967528.8014
  23739531.938     9282259.260 8   7241574.30445  23739531.643    23739540.8714
  22816908.838   -10037776.352 8  -7796867.27146  22816908.163    22816914.5954
 99  9 14 18 51  0.0000000  0  9 08 29 25 23 01 21 15 03 31
  22449349.029   -14333781.378 8 -10924733.77946  22449348.339    22449355.9894
  20334641.170   -18484470.479 9 -14383982.42948  20334640.981    20334646.4444
  24088301.421    -6144289.371 7  -4747604.35545  24088301.316    24088312.8534
  23780052.763    16193937.331 8  12574077.40646  23780052.072    23780061.8624
  24195172.493    -6565785.350 7  -4537478.25045  24195172.052    24195183.2944
  20907845.593    -5401074.646 9  -3938191.14147  20907845.010    20907851.6614
  21950716.388   -16908224.617 8 -13153605.84346  21950715.566    21950722.3624
  23757661.139     9377527.863 8   7315809.40645  23757660.843    23757670.0174
  22827673.627    -9981207.420 8  -7752787.65446  22827672.921    22827679.4584
 99  9 14 18 51 30.0000000  0  9 08 29 25 23 01 21 15 03 31
  22450114.140   -14329760.135 8 -10921600.34446  22450113.509    22450121.1444
  20338665.780   -18463320.723 9 -14367502.11348  20338665.635    20338671.1434
  24069044.071    -6245486.449 8  -4826459.00845  24069044.087    24069055.4144
  23793912.761    16266771.567 8  12630831.22945  23793912.167    23793921.8044
  24175857.558    -6667284.762 8  -4616568.48045  24175857.192    24175868.4464
  20913088.529    -5373522.939 9  -3916722.31147  20913087.960    20913094.6264
  21933962.531   -16996265.910 8 -13222209.43146  21933961.824    21933968.5444
  23775810.885     9472904.534 8   7390128.71245  23775810.588    23775819.6664
  22838519.302    -9924212.763 8  -7708376.30246  22838518.612    22838525.3224
 99  9 14 18 52  0.0000000  0  9 08 29 25 23 01 21 15 03 31
  22450993.692   -14325138.532 8 -10917999.09646  22450993.051    22451000.5794
  20342768.292   -18441761.973 9 -14350703.09448  20342768.125    20342773.5904
  24049794.766    -6346643.305 8  -4905282.30345  24049794.524    24049805.5934
  23807789.997    16339695.109 8  12687654.63945  23807789.290    23807798.9214
  24156570.887    -6768637.769 8  -4695544.65445  24156570.355    24156581.4234
  20918375.821    -5345738.195 9  -3895071.88647  20918375.220    20918381.8794
  21917261.805   -17084029.142 8 -13290596.34846  21917261.066    21917267.7544
  23793977.827     9568371.944 8   7464518.73645  23793977.482    23793986.6604
  22849443.764    -9866803.631 8  -7663641.98246  22849443.220    22849449.9854
 99  9 14 18 52 30.0000000  0  9 08 29 25 23 01 21 15 03 31
  22451986.747   -14319919.272 8 -10913932.13746  22451986.163    22451993.8584
  20346949.376   -18419790.299 9 -14333582.32348  20346949.220    20346954.6974
  24030552.345    -6447761.014 8  -4984075.11045  24030552.185    24030563.3964
  23821682.703    16412701.976 8  12744542.96745  23821682.013    23821691.7164
  24137312.257    -6869840.775 7  -4774403.90645  24137311.867    24137323.0664
  20923709.062    -5317712.095 9  -3873233.39847  20923708.438    20923715.0624
  21900614.876   -17171509.997 8 -13358763.23046  21900614.040    21900620.7374
  23812162.605     9663933.766 8   7538982.28845  23812162.233    23812171.6584
  22860444.690    -9808993.974 8  -7618595.55546  22860444.024    22860450.7774
 99  9 14 18 53  0.0000000  0  9 08 29 25 23 01 21 15 03 31
  22453097.103   -14314084.023 8 -10909385.20046  22453096.545    22453104.1924
  20351211.655   -18397391.975 9 -14316129.09248  20351211.479    20351216.9424
  24011318.335    -6548836.438 8  -5062834.95345  24011318.090    24011329.2774
  23835591.474    16485792.759 8  12801496.70445  23835590.814    23835600.5314
  24118083.758    -6970886.606 8  -4853140.72745  24118083.409    24118094.2924
  20929090.551    -5289432.263 9  -3851197.19547  20929089.923    20929096.5514
  21884022.679   -17258702.403 8 -13426705.34446  21884021.887    21884028.5914
  23830361.846     9759570.640 7   7613504.35445  23830361.463    23830370.8254
  22871524.128    -9750771.001 8  -7573227.06046  22871523.484    22871530.2944
 99  9 14 18 53 30.0000000  0  9 08 29 25 23 01 21 15 03 31
  22454325.826   -14307627.365 8 -10904354.03946  22454325.245    22454332.8444
  20355559.218   -18374544.869 9 -14298326.16848  20355559.110    20355564.5854
  23992090.580    -6649878.651 8  -5141568.96345  23992090.362    23992101.3624
  23849518.095    16558977.520 7  12858523.68845  23849517.492    23849527.1154
  24098885.971    -7071771.460 8  -4931752.10045  24098885.548    24098896.3704
  20934520.303    -5260898.578 9  -3828963.18647  20934519.724    20934526.4104
  21867486.037   -17345602.926 8 -13494420.02346  21867485.265    21867492.0264
  23848574.693     9855279.399 7   7688082.42045  23848574.345    23848583.7324
  22882684.573    -9692122.238 8  -7527526.79446  22882684.027    22882690.8024
 99  9 14 18 54  0.0000000  0  9 08 29 25 23 01 21 15 03 31
  22455675.535   -14300533.594 8 -10898826.42746  22455675.029    22455682.7954
  20359996.312   -18351227.880 9 -14280157.09548  20359996.198    20360001.7034
  23972871.440    -6750875.493 8  -5220267.57645  23972871.137    23972882.0974
  23863461.336    16632251.045 7  12915619.80045  23863460.820    23863470.7664
  24079722.585    -7172475.306 8  -5010222.40645  24079722.126    24079732.9984
  20939999.394    -5232105.865 9  -3806527.33647  20939998.820    20940005.5074
  21851007.875   -17432197.019 8 -13561895.91446  21851006.923    21851013.7674
  23866804.889     9951079.600 7   7762731.73045  23866804.474    23866814.0474
  22893928.701    -9633034.911 8  -7481484.77646  22893928.004    22893934.8424
 99  9 14 18 54 30.0000000  0  9 08 29 25 23 01 21 15 03 31
  22457149.188   -14292790.528 8 -10892792.87746  22457148.550    22457156.3194
  20364521.474   -18327448.214 9 -14261627.49348  20364521.325    20364526.8644
  23953663.435    -6851814.014 8  -5298920.78145  23953663.105    23953673.7424
  23877424.162    16705625.792 7  12972794.82045  23877423.623    23877433.5024
  24060594.145    -7272994.666 8  -5088548.96145  24060593.688    24060604.4834
  20945529.190    -5203046.879 9  -3783884.00547  20945528.612    20945535.2824
  21834589.750   -17518474.330 8 -13629124.96446  21834588.859    21834595.7984
  23885054.782    10046982.330 7   7837460.97045  23885054.351    23885063.9234
  22905257.299    -9573502.586 8  -7435096.00046  22905256.681    22905263.5694
 99  9 14 18 55  0.0000000  0  9 08 29 25 23 01 21 15 03 31
  22458745.394   -14284402.386 8 -10886256.65946  22458744.715    22458752.4814
  20369131.802   -18303220.907 9 -14242749.08947  20369131.634    20369137.1444
  23934466.344    -6952695.147 8  -5377529.25545  23934465.915    23934476.3704
  23891405.997    16779100.782 7  13030047.92445  23891405.473    23891415.4104
  24041499.145    -7373340.407 8  -5166740.25845  24041498.597    24041509.0314
  20951108.363    -5173728.137 9  -3761038.26847  20951107.760    20951114.4674
  21818232.117   -17604434.073 8 -13696106.57246  21818231.243    21818238.1954
  23903324.102    10142986.362 8   7912269.11545  23903323.613    23903333.2334
  22916671.433    -9513520.687 8  -7388356.93446  22916670.899    22916677.8444
 99  9 14 18 55 30.0000000  0  9 08 29 25 23 01 21 15 03 31
  22460459.695   -14275394.057 8 -10879237.18046  22460459.058    22460466.8014
  20373826.843   -18278548.348 9 -14223523.72747  20373826.703    20373832.2034
  23915280.308    -7053517.378 8  -5456091.81045  23915279.997    23915290.2634
  23905407.241    16852678.475 7  13087381.05845  23905406.691    23905416.8184
  24022435.921    -7473517.734 8  -5244800.31045  24022435.355    24022445.5844
  20956736.109    -5144153.845 9  -3737993.39647  20956735.554    20956742.2954
  21801935.649   -17690071.988 8 -13762837.39946  21801934.865    21801941.8094
  23921614.992    10239105.024 8   7987166.56345  23921614.471    23921624.2724
  22928169.031    -9453101.667 8  -7341277.23646  22928168.369    22928175.3254
 99  9 14 18 56  0.0000000  0  9 08 29 25 23 01 21 15 03 31
  22462291.678   -14265767.183 8 -10871735.72746  22462290.990    22462298.7434
  20378603.400   -18253447.334 9 -14203964.51347  20378603.246    20378608.7394
  23896109.636    -7154259.507 8  -5534591.96345  23896109.268    23896119.3964
  23919427.403    16926354.580 7  13144790.90545  23919426.894    23919436.8634
  24003403.981    -7573530.172 8  -5322731.87945  24003403.370    24003413.6704
  20962414.939    -5114311.712 9  -3714739.82347  20962414.382    20962421.1574
  21785701.654   -17775381.826 8 -13829312.59146  21785700.883    21785707.8724
  23939928.072    10335339.577 8   8062154.31945  23939927.482    23939937.3234
  22939745.013    -9392269.620 8  -7293875.72046  22939744.336    22939751.3704
 99  9 14 18 56 30.0000000  0  9 08 29 25 23 01 21 15 03 31
  22464237.664   -14255541.009 8 -10863767.28646  22464237.012    22464244.7054
  20383457.475   -18227938.885 9 -14184087.81247  20383457.336    20383462.8614
  23876957.067    -7254906.362 8  -5613017.87245  23876956.637    23876966.8124
  23933468.137    17000137.681 7  13202284.11245  23933467.626    23933477.4044
  23984401.677    -7673385.520 7  -5400541.01245  23984401.136    23984411.6534
  20968143.603    -5084208.079 9  -3691282.48047  20968142.997    20968149.7464
  21769529.420   -17860367.335 8 -13895535.05846  21769528.689    21769535.6524
  23958262.509    10431686.793 8   8137229.90045  23958261.910    23958271.7204
  22951399.341    -9331025.548 8  -7246153.14446  22951398.717    22951405.8094
 99  9 14 18 57  0.0000000  0  9 08 29 25 23 01 21 15 03 31
  22466295.816   -14244725.655 8 -10855339.74146  22466295.148    22466302.7974
  20388389.047   -18202023.319 9 -14163893.88447  20388388.922    20388394.5064
  23857821.931    -7355462.490 8  -5691373.09645  23857821.384    23857831.4034
  23947526.652    17074016.462 7  13259851.84545  23947526.093    23947536.1634
  23965429.926    -7773080.951 7  -5478225.54345  23965429.369    23965439.9944
  20973919.922    -5053853.382 9  -3667629.50547  20973919.318    20973926.0624
  21753417.759   -17945034.821 8 -13961509.71346  21753416.983    21753423.9204
  23976615.426    10528131.344 8   8212381.30245  23976614.975    23976624.6684
  22963132.516    -9269368.194 8  -7198108.51446  22963131.864    22963138.8854
 99  9 14 18 57 30.0000000  0  9 08 29 25 23 01 21 15 03 31
  22468467.954   -14233310.552 8 -10846444.84946  22468467.344    22468475.0044
  20393397.467   -18175703.976 9 -14143385.31547  20393397.325    20393402.9324
  23838704.121    -7455925.979 8  -5769656.12745  23838703.569    23838713.5754
  23961604.706    17147994.924 7  13317497.25845  23961603.936    23961613.8524
  23946490.857    -7872605.629 7  -5555777.01145  23946490.260    23946500.9324
  20979746.336    -5023235.280 9  -3643771.27847  20979745.724    20979752.5094
  21737366.427   -18029385.306 8 -14027237.35446  21737365.645    21737372.5284
  23994982.847    10624652.819 8   8287592.63145  23994982.379    23994992.3544
  22974941.328    -9207312.994 8  -7149753.87946  22974940.739    22974947.7184
 99  9 14 18 58  0.0000000  0  9 08 29 25 23 01 21 15 03 31
  22470756.867   -14221282.373 8 -10837072.24046  22470756.199    22470763.9614
  20398481.112   -18148989.238 9 -14122568.65447  20398480.965    20398486.5884
  23819602.681    -7556302.791 8  -5847871.61045  23819602.233    23819612.2074
  23975699.577    17222062.970 7  13375212.49645  23975698.898    23975708.7144
  23927584.034    -7971961.929 7  -5633197.30945  23927583.339    23927593.6734
  20985621.981    -4992358.686 9  -3619711.62447  20985621.376    20985628.1324
  21721374.400   -18113424.190 8 -14092722.18346  21721373.566    21721380.3984
  24013361.786    10721234.420 8   8362850.81545  24013361.475    24013371.4704
  22986825.453    -9144861.606 8  -7101090.53446  22986824.852    22986831.8274
 99  9 14 18 58 30.0000000  0  9 08 29 25 23 01 21 15 03 31
  22473163.519   -14208635.231 8 -10827217.32946  22473162.853    22473170.6564
  20403640.084   -18121879.185 9 -14101443.95547  20403639.894    20403645.4994
  23800515.896    -7656604.093 8  -5926028.26945  23800515.566    23800525.3584
  23989811.515    17296219.848 7  13432996.95145  23989810.849    23989820.6874
  23908709.221    -8071149.088 7  -5710485.80545  23908708.545    23908718.7044
  20991544.273    -4961237.451 9  -3595461.34047  20991543.597    20991550.3714
  21705441.227   -18197153.688 8 -14157965.93346  21705440.416    21705447.1814
  24031751.613    10817871.666 8   8438152.36045  24031751.085    24031761.1904
  22998785.798    -9082009.588 8  -7052115.00346  22998785.242    22998792.1614
 99  9 14 18 59  0.0000000  0  9 08 29 25 23 01 21 15 03 31
  22475691.185   -14195352.587 8 -10816867.22046  22475690.543    22475698.3064
  20408876.372   -18094362.199 9 -14080002.16347  20408876.199    20408881.8174
  23781440.695    -7756844.043 8  -6004137.14545  23781440.372    23781450.1794
  24003938.105    17370454.762 8  13490842.18545  24003937.359    24003947.1804
  23889865.366    -8170172.386 7  -5787646.60845  23889864.752    23889874.9334
  20997513.943    -4929866.469 9  -3571016.44847  20997513.314    20997520.0944
  21689567.321   -18280571.652 8 -14222966.93846  21689566.555    21689573.2984
  24050147.694    10914543.935 8   8513481.18245  24050147.249    24050157.5454
  23010817.678    -9018782.643 8  -7002847.31546  23010817.003    23010823.9264
 99  9 14 18 59 30.0000000  0  9 08 29 25 23 01 21 15 03 31
  22478341.168   -14181427.273 8 -10806016.33146  22478340.469    22478348.2324
  20414191.848   -18066429.141 9 -14058236.16047  20414191.689    20414197.3014
  23762378.217    -7857015.996 8  -6082192.99545  23762377.878    23762387.8644
  24018080.439    17444771.732 8  13548751.37945  24018079.659    24018089.2814
  23871055.202    -8269020.005 8  -5864670.51645  23871054.454    23871064.7454
  21003531.157    -4898245.753 9  -3546376.95947  21003530.608    21003537.3364
  21673754.468   -18363668.550 8 -14287717.75046  21673753.782    21673760.5204
  24068554.130    11011268.577 8   8588850.82545  24068553.667    24068563.8674
  23022917.647    -8955195.996 8  -6953299.36646  23022917.115    23022924.1024
 99  9 14 19  0  0.0000000  0  9 08 29 25 23 01 21 15 03 31
  22481112.611   -14166862.977 8 -10794667.53746  22481111.950    22481119.7184
  20419588.417   -18038069.790 9 -14036137.97847  20419588.303    20419593.9474
  23743329.637    -7957116.251 8  -6160193.00145  23743329.375    23743339.2364
  24032237.693    17519168.403 8  13606722.66945  24032236.958    24032246.7864
  23852277.217    -8367698.117 8  -5941562.35545  23852276.443    23852286.7724
  21009594.535    -4866382.759 9  -3521548.68147  21009593.991    21009600.7094
  21658004.965   -18446433.348 8 -14352209.78446  21658004.155    21658010.9034
  24086974.217    11108065.893 7   8664277.10245  24086973.685    24086983.9704
  23035088.785    -8891236.827 8  -6903461.12246  23035088.190    23035095.2534
 99  9 14 19  0 30.0000000  0  9 08 29 25 23 01 21 15 03 31
  22484004.156   -14151667.776 8 -10782827.13346  22484003.458    22484011.2844
  20425066.413   -18009283.033 9 -14013706.76147  20425066.301    20425071.9324
  23724297.637    -8057129.117 8  -6238124.93545  23724297.471    23724307.1914
  24046411.158    17593649.795 8  13664759.97545  24046410.406    24046420.2594
  23833532.347    -8466202.929 8  -6018319.15945  23833531.649    23833541.7384
  21015705.565    -4834269.226 9  -3496525.17747  21015705.020    21015711.7764
  21642320.594   -18528855.314 8 -14416434.68146  21642319.794    21642326.5344
  24105407.802    11204935.257 7   8739759.49845  24105407.313    24105417.8144
  23047331.800    -8826899.913 8  -6853328.53746  23047331.124    23047338.2834
 99  9 14 19  1  0.0000000  0  9 08 29 25 23 01 21 15 03 31
  22487013.215   -14135855.629 8 -10770505.98246  22487012.535    22487020.2394
  20430626.916   -17980062.700 9 -13990937.68347  20430626.731    20430632.3624
  23705281.833    -8157057.578 8  -6315991.10145  23705281.635    23705291.3954
  24060602.624    17668224.933 8  13722870.32845  24060601.811    24060611.6894
  23814823.090    -8564520.967 8  -6094930.43145  23814822.312    23814832.3584
  21021865.717    -4801897.602 9  -3471300.56347  21021865.165    21021871.9354
  21626702.391   -18610929.106 8 -14480388.28046  21626701.626    21626708.3594
  24123855.500    11301877.803 7   8815298.92045  24123855.032    24123865.5674
  23059649.483    -8762170.884 8  -6802890.39346  23059648.768    23059655.7904
 99  9 14 19  1 30.0000000  0  9 08 29 25 23 01 21 15 03 31
  22490137.308   -14119437.875 8 -10757712.93846  22490136.642    22490144.3554
  20436267.058   -17950423.676 9 -13967842.36047  20436266.867    20436272.4544
  23686283.309    -8256894.544 8  -6393785.95245  23686282.998    23686292.8884
  24074814.651    17742908.774 8  13781065.40445  24074813.883    24074823.7204
  23796149.357    -8662650.213 7  -6171394.58445  23796148.790    23796158.7904
  21028075.832    -4769263.492 9  -3445871.41347  21028075.236    21028081.9654
  21611151.138   -18692651.074 8 -14544067.72046  21611150.402    21611157.1854
  24142320.393    11398910.940 8   8890908.94245  24142319.989    24142330.5194
  23072045.568    -8697029.050 8  -6752130.59446  23072044.816    23072052.0074
 99  9 14 19  2  0.0000000  0  9 08 29 25 23 01 21 15 03 31
  22493375.138   -14102423.825 8 -10744455.24246  22493374.391    22493382.0424
  20441984.264   -17920379.479 9 -13944431.30847  20441984.069    20441989.6704
  23667303.348    -8356633.577 8  -6471504.50645  23667303.087    23667313.0174
  24089047.180    17817700.694 8  13839344.67245  24089046.440    24089056.3074
  23777508.296    -8760608.797 7  -6247725.75845  23777507.674    23777517.6374
  21034338.457    -4736353.724 9  -3420227.46447  21034337.801    21034344.5434
  21595665.934   -18774026.165 8 -14607476.86146  21595665.192    21595672.0604
  24160797.800    11496009.059 7   8966569.59345  24160797.348    24160807.8244
  23084522.613    -8631461.383 8  -6701038.99046  23084521.928    23084529.2314
 99  9 14 19  2 30.0000000  0  9 08 29 25 23 01 21 15 03 31
  22496726.186   -14084813.477 8 -10730732.90146  22496725.491    22496733.1854
  20447778.241   -17889931.927 9 -13920705.96947  20447778.058    20447783.6894
  23648343.891    -8456265.728 8  -6549139.79845  23648343.642    23648353.5214
  24103300.913    17892603.597 8  13897710.45045  24103300.123    24103310.1804
  23758901.616    -8858385.091 8  -6323914.87745  23758901.106    23758911.2684
  21040653.590    -4703167.550 9  -3394368.14347  21040652.939    21040659.7084
  21580246.125   -18855057.924 8 -14670618.48946  21580245.357    21580252.2334
  24179284.826    11593158.168 7   9042269.95745  24179284.409    24179294.9394
  23097078.741    -8565478.482 8  -6649623.81646  23097078.175    23097085.4544
 99  9 14 19  3  0.0000000  0  9 08 29 25 23 01 21 15 03 31
  22500193.269   -14066593.655 8 -10716535.63646  22500192.571    22500200.2554
  20453649.153   -17859080.231 9 -13896665.69547  20453648.964    20453654.5764
  23629404.786    -8555791.120 8  -6626691.90245  23629404.484    23629414.3014
  24117574.919    17967614.069 8  13956159.99845  24117574.230    24117584.2524
  23740331.862    -8955969.767 8  -6399954.73045  23740331.271    23740341.3094
  21047020.931    -4669706.554 9  -3368294.65847  21047020.321    21047027.1144
  21564891.638   -18935746.235 8 -14733492.47346  21564890.907    21564897.7804
  24197780.336    11690352.273 7   9118005.40645  24197780.036    24197790.5044
  23109711.441    -8499093.863 8  -6597895.61046  23109710.790    23109718.1114
 99  9 14 19  3 30.0000000  0  9 08 29 25 23 01 21 15 03 31
  22503778.848   -14047751.422 8 -10701853.38646  22503778.118    22503785.7694
  20459594.882   -17827834.975 9 -13872318.76847  20459594.737    20459600.3514
  23610490.952    -8655183.211 8  -6704140.15146  23610490.728    23610500.4374
  24131864.830    18042707.535 8  14014674.25845  24131864.158    24131874.2354
  23721796.932    -9053369.988 8  -6475850.81645  23721796.452    23721806.2974
  21053441.140    -4635968.510 9  -3342005.31147  21053440.546    21053447.2914
  21549602.870   -19016089.023 8 -14796097.24046  21549602.201    21549609.1124
  24216282.924    11787583.830 7   9193770.02545  24216282.716    24216293.2254
  23122415.813    -8432331.971 8  -6545873.43746  23122415.185    23122422.5574
 99  9 14 19  4  0.0000000  0  9 08 29 25 23 01 21 15 03 31
  22507484.413   -14028278.757 8 -10686679.86746  22507483.634    22507491.3314
  20465616.505   -17796191.254 9 -13847661.33447  20465616.349    20465621.9954
  23591604.017    -8754434.099 8  -6781478.34946  23591603.733    23591613.5174
  24146167.901    18117869.801 7  14073242.11945  24146167.216    24146177.3424
  23703300.453    -9150569.652 8  -6551590.64545  23703299.968    23703309.6894
  21059912.679    -4601960.255 9  -3315505.39647  21059912.106    21059918.8294
  21534381.004   -19096080.850 8 -14858428.51547  21534380.288    21534387.1264
  24234789.560    11884837.331 7   9269551.74445  24234789.464    24234800.1884
  23135189.505    -8365205.537 8  -6493567.22046  23135188.942    23135196.4374
 99  9 14 19  4 30.0000000  0  9 08 29 25 23 01 21 15 03 31
  22511311.098   -14008168.943 8 -10671009.89446  22511310.384    22511318.0464
  20471713.432   -17764151.872 9 -13822695.60247  20471713.268    20471718.8954
  23572743.299    -8853546.275 8  -6858708.46645  23572742.981    23572752.9354
  24160484.978    18193106.725 7  14131868.16445  24160484.325    24160494.6204
  23684845.397    -9247550.664 8  -6627160.09845  23684844.933    23684854.6194
  21066433.498    -4567693.350 9  -3288803.93947  21066432.932    21066439.6624
  21519227.209   -19175715.086 8 -14920481.15647  21519226.429    21519233.2404
  24253302.039    11982118.802 7   9345355.28945  24253301.707    24253312.3854
  23148029.887    -8297729.131 8  -6440988.27846  23148029.363    23148036.8214
 99  9 14 19  5  0.0000000  0  9 08 29 25 23 01 21 15 03 31
  22515257.451   -13987431.268 8 -10654850.68246  22515256.712    22515264.2614
  20477882.750   -17731732.131 9 -13797433.48047  20477882.597    20477888.2114
  23553908.481    -8952522.838 8  -6935832.93845  23553908.179    23553918.1174
  24174815.310    18268414.354 7  14190549.27945  24174814.664    24174825.2424
  23666431.278    -9344318.420 8  -6702563.38845  23666430.631    23666440.1554
  21073001.771    -4533176.736 9  -3261907.91047  21073001.205    21073008.0214
  21504141.540   -19254990.708 8 -14982254.35547  21504140.763    21504147.5944
  24271819.806    12079427.607 7   9421180.12145  24271819.358    24271829.7774
  23160936.053    -8229907.305 8  -6388140.18046  23160935.438    23160942.9264
 99  9 14 19  5 30.0000000  0  9 08 29 25 23 01 21 15 03 31
  22519319.312   -13966085.918 8 -10638217.95546  22519318.660    22519326.1684
  20484122.695   -17698941.102 9 -13771882.06147  20484122.557    20484128.1654
  23535098.101    -9051371.108 8  -7012857.42545  23535097.851    23535107.7854
  24189161.072    18343801.117 7  14249292.03445  24189160.413    24189171.3044
  23648056.651    -9440877.492 8  -6777804.06745  23648055.912    23648065.4724
  21079615.080    -4498423.890 9  -3234827.81147  21079614.496    21079621.2794
  21489124.016   -19333908.008 8 -15043748.36047  21489123.249    21489130.1074
  24290341.858    12176761.071 7   9497024.14845  24290341.466    24290351.8234
  23173907.782    -8161740.978 8  -6335023.64546  23173907.157    23173914.6814
 99  9 14 19  6  0.0000000  0  9 08 29 25 23 01 21 15 03 31
  22523493.485   -13944151.013 8 -10621125.80946  22523492.850    22523500.2874
  20490433.101   -17665779.760 9 -13746042.06347  20490432.938    20490438.5824
  23516307.841    -9150114.192 8  -7089799.95345  23516307.648    23516317.4484
  24203526.061    18419289.295 7  14308113.85445  24203525.268    24203536.4214
  23629719.846    -9537237.170 8  -6852889.36845  23629719.236    23629728.7344
  21086272.165    -4463440.886 9  -3207568.35147  21086271.578    21086278.3144
  21474174.526   -19412468.111 8 -15104964.00947  21474173.759    21474180.5934
  24308867.330    12274111.991 7   9572881.79545  24308866.742    24308877.5274
  23186944.779    -8093231.329 8  -6281639.58046  23186944.193    23186951.6944
 99  9 14 19  6 30.0000000  0  9 08 29 25 23 01 21 15 03 31
  22527777.829   -13921636.917 8 -10603582.35546  22527777.135    22527784.5204
  20496814.336   -17632246.352 9 -13719912.15047  20496814.151    20496819.7954
  23497537.124    -9248754.959 8  -7166662.73245  23497536.834    23497546.4954
  24217910.722    18494881.451 7  14367016.64745  24217910.039    24217921.0184
  23611417.136    -9633416.868 8  -6927834.41445  23611416.646    23611426.1474
  21092973.796    -4428223.454 9  -3180126.22547  21092973.209    21092980.0084
  21459293.153   -19490670.159 8 -15165900.65847  21459292.421    21459299.1834
  24327397.474    12371488.876 7   9648759.62745  24327396.884    24327407.9924
  23200045.501    -8024387.026 8  -6227994.75346  23200044.863    23200052.3034
 99  9 14 19  7  0.0000000  0  9 08 29 25 23 01 21 15 03 31
  22532172.395   -13898543.489 8 -10585587.49046  22532171.752    22532179.0754
  20503268.118   -17598331.543 9 -13693485.04747  20503267.933    20503273.5864
  23478786.655    -9347288.670 8  -7243442.09545  23478786.454    23478796.0454
  24232312.422    18570564.698 7  14425990.46745  24232312.209    24232323.1234
  23593151.254    -9729405.760 8  -7002630.80645  23593150.592    23593159.9414
  21099722.258    -4392760.083 9  -3152492.46247  21099721.686    21099728.4844
  21444482.069   -19568503.353 8 -15226549.88547  21444481.304    21444488.0204
  24345934.170    12468899.370 8   9724663.68345  24345933.650    24345944.7384
  23213210.041    -7955207.869 8  -6174088.98746  23213209.379    23213216.7524
 99  9 14 19  7 30.0000000  0  9 08 29 25 23 01 21 15 03 31
  22536679.062   -13874860.984 8 -10567133.59646  22536678.382    22536685.8324
  20509797.604   -17564019.355 9 -13666748.29347  20509797.383    20509803.0104
  23460057.520    -9445710.871 8  -7320134.56245  23460057.230    23460066.7124
  24246732.217    18646339.306 7  14485035.50245  24246731.876    24246742.9014
  23574923.630    -9825191.078 8  -7077268.58045  23574923.081    23574932.3834
  21106522.724    -4357023.612 9  -3124645.89347  21106522.149    21106528.9384
  21429742.863   -19645958.244 8 -15286904.33447  21429742.108    21429748.7974
  24364477.958    12566345.933 8   9800595.83945  24364477.383    24364488.4014
  23226437.672    -7885696.212 8  -6119924.13746  23226437.002    23226444.3804
 99  9 14 19  8  0.0000000  0  8 08 29 25 23 01 21 03 31
  22541301.926   -13850567.661 8 -10548203.73546  22541301.252    22541308.6744
  20516403.867   -17529302.863 9 -13639696.49547  20516403.689    20516409.3214
  23441353.867    -9543998.978 8  -7396722.52645  23441353.549    23441362.8954
  24261168.869    18722202.782 7  14544149.73945  24261168.422    24261179.3134
  23556736.309    -9920766.148 8  -7151742.51445  23556735.572    23556744.9174
  21113377.357    -4321002.692 9  -3096577.67247  21113376.763    21113383.5404
  24383030.742    12663839.681 8   9876564.79545  24383030.059    24383041.0864
  23239728.742    -7815851.479 8  -6065499.74546  23239728.111    23239735.4344
 99  9 14 19  8 30.0000000  0  9 08 29 25 23 01 21 15 03 31
  22546046.089   -13825636.419 8 -10528776.80546  22546045.428    22546053.0164
  20523091.407   -17494159.817 9 -13612312.31847  20523091.220    20523096.8134
  23422683.317    -9642112.690 8  -7473174.62245  23422683.084    23422692.2704
  24275625.827    18798172.376 7  14603346.70745  24275625.165    24275635.7224
  23538595.070   -10016098.292 8  -7226027.13345  23538594.351    23538603.7474
  21120288.311    -4284685.417 9  -3068278.52747  21120287.729    21120294.5194
  21400491.308     -203891.19646                  21400490.739    21400497.6184
  24401595.154    12761395.564 7   9952582.16245  24401594.458    24401605.3804
  23253087.684    -7745649.785 8  -6010797.22346  23253087.082    23253094.4164
 99  9 14 19  9  0.0000000  0  9 08 29 25 23 01 21 15 03 31
  22550909.691   -13800078.214 8 -10508861.34446  22550909.000    22550916.6304
  20529855.728   -17458613.111 9 -13584613.61047  20529855.557    20529861.1544
  23404043.840    -9740064.025 8  -7549500.18846  23404043.627    23404052.7854
  24290101.513    18874242.758 7  14662622.22445  24290100.853    24290111.5694
  23520498.805   -10111193.916 8  -7300127.49345  23520498.228    23520507.4294
  21127252.306    -4248089.470 9  -3039762.24347  21127251.728    21127258.5364
  21385980.709     -363091.38818   -263309.81847  21385979.934    21385986.8604
  24420165.617    12858984.137 8  10028624.97045  24420165.111    24420176.0704
  23266512.599    -7675101.752 8  -5955824.81146  23266512.038    23266519.2954
 99  9 14 19  9 30.0000000  0  9 08 29 25 23 01 21 15 03 31
  22555892.060   -13773895.250 8 -10488459.04546  22555891.371    22555899.1114
  20536694.955   -17422673.081 9 -13556608.39947  20536694.752    20536700.3474
  23385437.852    -9837839.101 8  -7625688.39446  23385437.579    23385446.8204
  24304600.094    18950432.439 7  14721990.66945  24304599.356    24304610.1074
  23502442.167   -10206081.252 8  -7374065.53845  23502441.598    23502450.7644
  21134266.533    -4211229.912 9  -3011040.54047  21134265.922    21134272.7304
  21371545.231     -438954.064 8   -322423.58447  21371543.878    21371550.5604
  24438740.779    12956595.012 7  10104685.18545  24438740.023    24438751.1304
  23280005.181    -7604198.359 8  -5900575.49546  23280004.648    23280011.9084
 99  9 14 19 10  0.0000000  0  9 08 29 25 23 01 21 15 03 31
  22560989.572   -13747107.473 8 -10467585.47446  22560988.843    22560996.7444
  20543604.814   -17386361.468 9 -13528313.65547  20543604.599    20543610.2364
  23366861.280    -9935458.441 8  -7701755.23446  23366861.109    23366870.3634
  24319119.314    19026731.328 7  14781444.21145  24319118.554    24319129.1924
  23484419.213   -10300792.346 8  -7447866.25545  23484418.665    23484427.6564
  21141323.576    -4174144.723 9  -2982143.02547  21141322.987    21141329.8524
  21357179.429     -514446.812 8   -381249.09047  21357178.163    21357184.8204
  24457314.738    13054201.080 7  10180741.61045  24457313.923    24457325.2164
  23293563.183    -7532951.640 8  -5845058.65346  23293562.552    23293569.7984
 99  9 14 19 10 30.0000000  0  9 08 29 25 23 01 21 15 03 31
  22566195.299   -13719751.060 8 -10446268.80246  22566194.579    22566202.4574
  20550580.522   -17349703.935 9 -13499749.36247  20550580.329    20550585.9764
  23348305.063   -10032971.669 8  -7777739.40446  23348304.776    23348313.9534
  24333651.078    19103096.848 8  14840949.64145  24333650.613    24333661.0354
  23466424.563   -10395354.728 8  -7521551.08445  23466424.003    23466432.9684
  21148419.871    -4136853.315 9  -2953084.82247  21148419.314    21148426.2504
  21342877.627     -589603.365 8   -439812.62747  21342876.364    21342882.9854
  24475878.829    13151755.662 7  10256757.94045  24475878.172    24475889.4374
  23307180.809    -7461390.609 8  -5789296.89946  23307180.265    23307187.5704
 99  9 14 19 11  0.0000000  0  9 08 29 25 23 01 21 15 03 31
  22571515.665   -13691792.454 8 -10424482.89846  22571514.915    22571522.8474
  20557627.241   -17312673.190 9 -13470894.24847  20557627.041    20557632.6574
  23329772.129   -10130362.050 8  -7853627.83546  23329771.845    23329780.9464
  24348197.698    19179537.731 7  14900513.86445  24348196.994    24348207.4134
  23448465.032   -10489731.618 8  -7595091.38245  23448464.566    23448473.4294
  21155562.766    -4099317.115 9  -2923835.87147  21155562.209    21155569.2054
  21328645.635     -664391.951 8   -498089.44447  21328644.537    21328651.2094
  24494437.741                                    24494437.424    24494449.0104
  23320861.859    -7389497.109 8  -5733276.06646  23320861.274    23320868.5254
 99  9 14 19 11 30.0000000  0  9 08 29 25 23 01 21 15 03 31
  22576953.926   -13663214.418 8 -10402214.30946  22576953.121    22576961.0604
  20564750.518   -17275240.071 9 -13441725.58647  20564750.330    20564755.9664
  23311263.726   -10227623.639 8  -7929415.91846  23311263.429    23311272.4444
  24362758.447    19256055.051 8  14960137.61745  24362757.983    24362768.4534
  23430543.065   -10583911.468 8  -7668478.15145  23430542.623    23430551.5314
  21162755.280    -4061520.381 9  -2894383.90847  21162754.680    21162761.7434
  21314487.488     -738792.476 8   -556063.86347  21314486.528    21314493.2284
  24512993.346    13346795.849 7  10408737.03245  24512993.098    24513005.2614
  23334607.247    -7317264.522 8  -5676991.03646  23334606.718    23334614.0044
 99  9 14 19 12  0.0000000  0  9 08 29 25 23 01 21 15 03 31
  22582515.543   -13633987.995 8 -10379440.48646  22582514.790    22582522.6914
  20571956.615   -17237371.890 9 -13412217.93447  20571956.431    20571962.0834
  23292781.862   -10324745.329 8  -8005094.96746  23292781.504    23292790.6694
  24377336.047    19332659.874 7  15019829.54545  24377335.542    24377345.9324
  23412665.328   -10677859.357 8  -7741684.16045  23412664.799    23412673.6664
  21170004.410    -4023425.859 9  -2864699.90447  21170003.841    21170010.9164
  21300409.337     -812773.520 8   -613711.42647  21300408.374    21300415.0864
  24531551.073    13444315.450 7  10484726.05945  24531550.750    24531562.6864
  23348420.016    -7244678.117 8  -5620430.30546  23348419.466    23348426.9684
 99  9 14 19 12 30.0000000  0  9 08 29 25 23 01 21 15 03 31
  22588199.079   -13604120.633 8 -10356167.21346  22588198.385    22588206.2544
  20579241.455   -17199089.791 9 -13382387.75447  20579241.258    20579246.9184
  23274328.049   -10421719.245 8  -8080658.90046  23274327.878    23274336.9374
  24391926.978    19409335.699 7  15079576.78945  24391926.460    24391937.0764
  23394832.217   -10771573.014 8  -7814707.67345  23394831.625    23394840.4294
  21177310.398    -3985032.730 9  -2834783.22547  21177309.843    21177316.9164
  21286411.188     -886334.188 8   -671031.42447  21286410.245    21286416.9534
  24550110.281    13541840.818 7  10560719.62245  24550109.642    24550121.2234
  23362298.265    -7171747.825 8  -5563601.60946  23362297.728    23362305.2314
 99  9 14 19 13  0.0000000  0  9 08 29 25 23 01 21 15 03 31
  22594003.043   -13573620.668 8 -10332401.01546  22594002.328    22594010.1194
  20586601.556   -17160411.990 9 -13352249.21347  20586601.392    20586607.0704
  23255906.701   -10518522.788 8  -8156090.04346  23255906.601    23255915.7094
  24406535.531    19486102.694 7  15139395.07545  24406535.037    24406545.6274
  23377041.464   -10865063.008 8  -7887556.90145  23377041.001    23377049.7664
  21184670.409    -3946355.904 9  -2804645.47347  21184669.878    21184676.9084
  21272494.188     -959468.162 8   -728018.91947  21272493.290    21272500.0914
  24568672.974    13639387.862 7  10636730.06445  24568672.502    24568683.9104
  23376241.560    -7098476.051 8  -5506506.80846  23376240.866    23376248.4964
 99  9 14 19 13 30.0000000  0  9 08 29 25 23 01 21 15 03 31
  22599923.989   -13542505.505 8 -10308155.43946  22599923.319    22599931.1164
  20594033.469   -17121357.144 9 -13321816.89447  20594033.307    20594038.9724
  23237519.080   -10615149.539 8  -8231383.45946  23237519.060    23237528.1434
  24421163.141    19562970.666 7  15199292.04145  24421162.441    24421173.3254
  23359289.464   -10958351.112 8  -7960248.81046  23359288.751    23359297.5004
  21192082.014    -3907407.964 9  -2774296.48247  21192081.427    21192088.5044
  21258657.453    -1032180.512 8   -784677.90447  21258656.568    21258663.4024
  24587240.856    13736963.460 7  10712762.68445  24587240.218    24587252.2934
  23390250.239    -7024860.028 8  -5449143.76246  23390249.577    23390257.1964
 99  9 14 19 14  0.0000000  0  9 08 29 25 23 01 21 15 03 31
  22605958.128   -13510796.264 8 -10283446.93546  22605957.511    22605965.1744
  20601529.379   -17081966.007 9 -13291122.51547  20601529.208    20601534.8834
  23219167.053   -10711590.272 8  -8306531.91046  23219167.015    23219175.9604
  24435807.305    19639925.427 7  15259256.60845  24435806.702    24435817.4024
  23341575.845   -11051435.432 8  -8032781.91346  23341575.274    23341584.1024
  21199542.825    -3868200.890 9  -2743745.55547  21199542.262    21199549.3914
  21244898.285    -1104484.985 8   -841019.04447  21244897.474    21244904.2644
  24605809.664    13834542.246 7  10788797.81845  24605809.232    24605821.0704
  23404320.740    -6950919.307 8  -5391527.71646  23404320.196    23404327.7814
 99  9 14 19 14 30.0000000  0  9 08 29 25 23 01 21 15 03 31
  22612101.613   -13478511.864 8 -10258290.25146  22612101.019    22612108.7214
  20609084.359   -17042264.685 9 -13260186.43747  20609084.178    20609089.8614
  23200850.273   -10807846.109 8  -8381536.30446  23200850.046    23200858.8644
  24450467.210    19716961.596 7  15319284.64545  24450466.524    24450477.1864
  23323903.004   -11144307.091 8  -8105149.32446  23323902.309    23323911.1994
  21207050.926    -3828745.667 9  -2713001.27147  21207050.354    21207057.4994
  21231215.538    -1176388.474 8   -897047.73747  21231214.696    21231221.4594
  24624374.445    13932098.541 7  10864815.49845  24624373.820    24624385.3954
  23418448.150    -6876679.894 8  -5333678.92346  23418447.596    23418455.1584
 99  9 14 19 15  0.0000000  0  9 08 29 25 23 01 21 15 03 31
  22618353.345   -13445659.247 8 -10232690.81846  22618352.740    22618360.3734
  20616697.919   -17002255.280 9 -13229010.28747  20616697.727    20616703.4044
  23182566.546   -10903926.787 8  -8456404.20346  23182566.363    23182575.1824
  24465142.569    19794080.308 7  15379377.02045  24465141.725    24465152.7794
  23306268.554   -11236975.660 8  -8177358.47646  23306267.957    23306276.8364
  21214605.192    -3789047.968 9  -2682068.03947  21214604.625    21214611.8014
  21217607.754    -1247897.804 8   -952769.28347  21217606.946    21217613.6894
  24642930.506    14029611.954 7  10940799.72345  24642929.885    24642941.6874
  23432629.815    -6802155.621 8  -5275608.16745  23432629.168    23432636.7264
 99  9 14 19 15 30.0000000  0  9 08 29 25 23 01 21 15 03 31
  22624713.876   -13412234.025 8 -10206645.18146  22624713.307    22624721.0544
  20624371.482   -16961930.112 9 -13197588.10047  20624371.315    20624377.0294
  23164316.690   -10999830.185 8  -8531133.98946  23164316.428    23164325.1934
  24479831.879    19871273.532 7  15439527.37045  24479831.225    24479842.2824
  23288675.913   -11329425.459 8  -8249397.16646  23288675.305    23288684.1194
  21222206.715    -3749101.928 9  -2650941.30347  21222206.132    21222213.3384
  21204074.842    -1319013.382 8  -1008184.01647  21204074.085    21204080.8694
  24661473.766    14127057.570 7  11016731.05945  24661473.437    24661485.4074
  23446863.793    -6727355.444 8  -5217322.42545  23446863.084    23446870.8154
 99  9 14 19 16  0.0000000  0  8 08 29 25 23 01 21 03 31
  22631187.036   -13378217.265 8 -10180138.62546  22631186.485    22631194.2404
  20632105.318   -16921288.545 9 -13165919.35747  20632105.171    20632110.8144
  23146100.200   -11095557.320 8  -8605726.39146  23146099.999    23146108.8424
  24494535.650    19948541.064 7  15499735.68345  24494534.916    24494545.7904
  23271128.067   -11421639.086 8  -8321251.81446  23271127.564    23271136.4124
  21229857.163    -3708898.894 9  -2619614.29147  21229856.576    21229863.8124
  24680002.193    14224422.174 7  11092599.30045  24680001.569    24680013.6844
  23461147.432    -6652294.582 8  -5158833.55245  23461146.786    23461154.5014
 99  9 14 19 16 30.0000000  0  8 08 29 25 23 01 21 15 31
  22637774.317   -13343600.831 8 -10153164.80246  22637773.765    22637781.5184
  20639903.857   -16880307.090 9 -13133985.78847  20639903.682    20639909.3444
  23127917.317   -11191108.675 8  -8680181.86246  23127917.136    23127925.8884
  24509255.450    20025893.555 7  15560010.17345  24509254.585    24509265.6174
  23253624.066   -11513621.969 8  -8392926.67346  23253623.552    23253632.4774
  21237558.008    -3668431.040 9  -2588080.94747  21237557.395    21237564.5784
  21177239.731     -104898.16946                  21177239.582    21177246.2664
  23475483.457    -6576958.717 8  -5100130.37845  23475482.861    23475490.6314
 99  9 14 19 17  0.0000000  0  8 08 29 25 23 01 21 15 31
  22644475.152   -13308388.125 8 -10125726.34246  22644474.517    22644482.4064
  20647770.921   -16838965.234 9 -13101771.37647  20647770.776    20647776.4574
  23109765.865   -11286495.128 8  -8754508.83746  23109765.633    23109774.2644
  24523989.805    20103322.095 7  15620343.95245  24523989.066    24524000.1284
  23236161.332   -11605388.481 8  -8464432.94046  23236160.821    23236169.6974
  21245306.235    -3627714.184 9  -2556353.57047  21245305.581    21245312.7654
  21163939.958     -227970.53318   -159359.98947  21163939.519    21163946.1904
  23489870.919    -6501352.922 8  -5041216.87345  23489870.281    23489878.1094
 99  9 14 19 17 30.0000000  0  8 08 29 25 23 01 21 15 31
  22651288.553   -13272582.584 8 -10097825.94346  22651288.010    22651295.9324
  20655708.801   -16797251.711 9 -13069267.35047  20655708.640    20655714.3254
  23091645.445   -11381717.887 8  -8828708.24646  23091645.147    23091653.7894
  24538737.239    20180821.599 7  15680732.96945  24538736.685    24538747.9894
  23218741.932   -11696927.988 8  -8535762.32146  23218741.350    23218750.0894
  21253101.769    -3586748.149 9  -2524432.02747  21253101.184    21253108.3994
  21150718.698     -297448.327 8   -213498.51647  21150718.342    21150725.0624
  23504308.130    -6425484.830 8  -4982098.99945  23504307.516    23504315.2844
 99  9 14 19 18  0.0000000  0  8 08 29 25 23 01 21 15 31
  22658214.572   -13236185.982 8 -10069464.98746  22658214.074    22658221.9854
  20663719.332   -16755156.062 9 -13036465.57547  20663719.155    20663724.8654
  23073555.518   -11476780.838 8  -8902783.16246  23073555.230    23073563.7134
  24553498.320    20258391.308 7  15741176.74145  24553497.707    24553509.0474
  23201364.359   -11788247.977 8  -8606920.64946  23201363.690    23201372.2424
  21260946.968    -3545521.266 9  -2492307.22547  21260946.413    21260953.5994
  21137579.802     -366500.151 9   -267305.12347  21137578.229    21137584.9524
  23518796.399    -6349349.310 8  -4922772.70945  23518795.737    23518803.5044
 99  9 14 19 18 30.0000000  0  8 08 29 25 23 01 21 15 31
  22665250.510   -13199212.069 8 -10040654.16346  22665249.954    22665257.9014
  20671807.900   -16712650.538 9 -13003344.41347  20671807.725    20671813.4294
  23055500.019   -11571663.068 8  -8976717.23846  23055499.690    23055508.0294
  24568276.154    20336047.788 7  15801688.11445  24568275.497    24568286.8154
  23184030.756   -11879335.042 8  -8677897.46446  23184030.191    23184038.8854
  21268844.288    -3504021.478 9  -2459969.76147  21268843.676    21268850.7994
  21124522.829     -435112.949 8   -320769.62947  21124521.608    21124528.3864
  23533337.100    -6272937.531 8  -4863231.18945  23533336.400    23533344.2394
 99  9 14 19 19  0.0000000  0  8 08 29 25 23 01 21 15 31
  22672402.390   -13161629.091 8 -10011368.75146  22672401.773    22672409.7034
  20679978.519   -16669714.104 9 -12969887.48247  20679978.329    20679983.9954
  23037486.673   -11666323.446 8  -9050478.45746  23037486.331    23037494.5654
  24583077.106    20413826.578 7  15862294.86445  24583076.410    24583087.3914
  23166749.304   -11970148.625 8  -8748661.18446  23166748.714    23166757.6154
  21276798.767    -3462220.880 9  -2427397.91047  21276798.119    21276805.2514
  21111555.050     -503257.151 9   -373868.99847  21111554.165    21111560.9214
  23547935.207    -6196223.989 8  -4803454.49745  23547934.584    23547942.4124
 99  9 14 19 19 30.0000000  0  8 08 29 25 23 01 21 15 31
  22679671.314   -13123431.382 8  -9981604.32446  22679670.561    22679678.5384
  20688226.631   -16626370.045 9 -12936112.90947  20688226.449    20688232.1064
  23019519.908   -11760738.391 8  -9124048.40446  23019519.608    23019527.9064
  24597903.039    20491735.089 7  15923002.67545  24597902.065    24597913.1694
  23149520.169   -12060688.462 8  -8819211.60946  23149519.591    23149528.2844
  21284813.337    -3420103.984 9  -2394579.58947  21284812.701    21284819.9424
  21098678.265     -570925.076 8   -426597.22747  21098677.360    21098684.1544
  23562593.987    -6119192.109 8  -4743429.78545  23562593.326    23562601.3904
 99  9 14 19 20  0.0000000  0  8 08 29 25 23 01 21 15 31
  22687056.603   -13084620.842 8  -9951362.37546  22687055.897    22687063.7984
  20696549.933   -16582631.191 9 -12902030.71647  20696549.737    20696555.3674
  23001601.363   -11854900.696 8  -9197421.52246  23001601.023    23001609.2664
  24612754.270    20569778.909 7  15983815.86645  24612753.336    24612764.5044
  23132342.436   -12150957.953 8  -8889551.37946  23132341.814    23132350.4554
  21292885.673    -3377683.522 9  -2361524.73247  21292885.052    21292892.3054
  21085891.193     -638121.096 8   -478957.76047  21085890.382    21085897.1714
  23577314.664    -6041835.280 8  -4683151.85345  23577313.905    23577321.9244
 99  9 14 19 20 30.0000000  0  8 08 29 25 23 01 21 15 31
  22694556.743   -13045208.625 8  -9920651.59546  22694555.976    22694563.8624
  20704943.847   -16538521.062 9 -12867659.21647  20704943.636    20704949.2284
  22983726.476   -11948832.397 8  -9270614.93046  22983726.198    22983734.5294
  24627629.017    20647946.315 7  16044725.40045  24627628.118    24627639.5184
  23115214.701   -12240963.070 8  -8959685.12546  23115214.261    23115222.9494
  21301009.590    -3334991.795 9  -2328258.49547  21301009.008    21301016.2674
  21073190.959     -704860.901 8   -530962.79447  21073190.154    21073197.0264
  23592093.144    -5964173.476 8  -4622636.27545  23592092.544    23592100.6204
 99  9 14 19 21  0.0000000  0  8 08 29 25 23 01 21 15 31
  22702171.855   -13005190.824 8  -9889468.90146  22702171.134    22702179.0544
  20713402.853   -16494068.699 9 -12833021.04047  20713402.650    20713408.2644
  22965892.975   -12042547.976 8  -9343639.94446  22965892.663    22965900.8914
  24642524.599    20726222.457 8  16105719.67045  24642523.665    24642535.0514
  23098133.490   -12330725.990 8  -9029630.16446  23098132.866    23098141.4024
  21309180.817    -3292051.929 9  -2294798.90247  21309180.222    21309187.4774
  21060575.742     -771154.132 8   -582619.84847  21060574.987    21060581.8204
  23606929.490    -5886208.998 8  -4561884.83345  23606928.843    23606936.7184
 99  9 14 19 21 30.0000000  0  8 08 29 25 23 01 21 15 31
  22709897.260   -12964593.371 8  -9857834.55246  22709896.586    22709904.4754
  20721923.601   -16449291.870 9 -12798130.02947  20721923.401    20721929.1054
  22948094.319   -12136080.237 8  -9416522.11546  22948094.006    22948102.1874
  24657435.935    20804580.510 8  16166777.81145  24657435.132    24657446.4554
  23081093.665   -12420269.892 8  -9099404.53946  23081093.142    23081101.6924
  21317394.999    -3248886.763 9  -2261163.74747  21317394.405    21317401.5904
  21048043.009     -837014.266 9   -633939.42047  21048042.264    21048049.0754
  23621818.704    -5807965.685 8  -4500916.13445  23621818.056    23621826.0774
 99  9 14 19 22  0.0000000  0  7 08 29 25 01 21 15 31
  22717732.137   -12923421.209 8  -9825752.37546  22717731.352    22717739.1764
  20730507.228   -16404184.503 9 -12762981.45947  20730507.038    20730512.7804
  22930330.236   -12229430.306 8  -9489262.31546  22930329.963    22930338.1624
  23064097.807   -12509584.119 8  -9168999.94546  23064097.229    23064105.7814
  21325653.947    -3205486.508 9  -2227345.41147  21325653.297    21325660.4134
  21035595.586     -902426.035 9   -684909.62347  21035594.791    21035601.5944
  23636759.555    -5729451.281 8  -4439736.18845  23636759.012    23636766.9854
 99  9 14 19 22 30.0000000  0  7 08 29 25 01 21 15 31
  22725679.246   -12881658.769 8  -9793210.24246  22725678.530    22725686.2964
  20739153.350   -16358748.880 9 -12727577.10147  20739153.163    20739158.9124
  22912603.495   -12322584.332 8  -9561849.74746  22912603.185    22912611.3914
  23047146.396   -12598663.523 8  -9238412.36346  23047145.813    23047154.4664
  21333963.323    -3161820.822 9  -2193320.24247  21333962.625    21333969.7404
  21023235.872     -967376.441 9   -735520.32447  21023235.137    21023241.9204
  23651751.312    -5650670.230 8  -4378348.47445  23651750.623    23651758.5664
 99  9 14 19 23  0.0000000  0  7 08 29 25 01 21 15 31
  22733732.838   -12839337.242 8  -9760232.46346  22733732.025    22733739.8654
  20747855.350   -16313019.556 9 -12691943.89247  20747855.168    20747860.9424
  22894913.640   -12415544.798 8  -9634286.38346  22894913.371    22894921.4534
  23030233.631   -12687540.370 8  -9307666.95846  23030233.052    23030241.6264
  21342321.258    -3117899.039 9  -2159095.52147  21342320.599    21342327.8254
  21010959.639    -1031888.936 9   -785789.79547  21010958.856    21010965.5594
  23666789.038    -5571647.595 8  -4316772.50145  23666788.293    23666796.1054
 99  9 14 19 23 30.0000000  0  7 08 29 25 01 21 15 31
  22741891.756   -12796460.821 8  -9726822.29646  22741891.106    22741898.8364
  20756613.351   -16266996.319 9 -12656081.65547  20756613.146    20756618.8874
  22877262.858   -12508300.376 8  -9706563.33646  22877262.581    22877270.5594
  23013361.728   -12776203.457 8  -9376754.99746  23013361.032    23013369.5374
  21350731.073    -3073704.633 9  -2124658.36247  21350730.507    21350737.7354
  20998767.610    -1095958.701 9   -835714.28447  20998766.806    20998773.4254
  23681870.469    -5492393.982 8  -4255016.57145  23681869.753    23681877.6604
 99  9 14 19 24  0.0000000  0  7 08 29 25 01 21 15 31
  22750158.384   -12753020.330 8  -9692972.59446  22750157.614    22750165.3154
  20765426.251   -16220684.534 9 -12619994.57747  20765426.015    20765431.7554
  22859653.702   -12600837.452 8  -9778670.04446  22859653.391    22859661.2294
  22996531.108   -12864648.386 8  -9445673.03546  22996530.474    22996538.8324
  21359192.897    -3029237.527 9  -2090008.71847  21359192.368    21359199.6244
  20986658.603    -1159591.900 8   -885298.59847  20986657.789    20986664.4124
  23696993.152    -5412924.155 8  -4193092.15045  23696992.454    23697000.4444
 99  9 14 19 24 30.0000000  0  7 08 29 25 01 21 15 31
  22758533.937   -12709005.821 8  -9658675.58246  22758533.305    22758541.0454
  20774294.332   -16174082.578 9 -12583681.38747  20774294.135    20774299.8454
  22842085.387   -12693159.171 8  -9850608.95046  22842085.114    22842092.9124
  22979742.814   -12952870.963 8  -9514417.82846  22979742.286    22979750.4504
  21367702.896    -2984517.758 9  -2055162.18847  21367702.317    21367709.6044
  20974631.193    -1222796.377 9   -934548.83747  20974630.386    20974637.0294
  23712155.409    -5333246.266 8  -4131005.61745  23712154.717    23712162.7424
 99  9 14 19 25  0.0000000  0  7 08 29 25 01 21 15 31
  22767017.067   -12664428.573 8  -9623940.11046  22767016.223    22767023.8684
  20783218.750   -16127184.723 9 -12547137.63347  20783218.537    20783224.2504
  22824557.051   -12785270.723 8  -9922384.07346  22824556.799    22824564.6844
  22962997.688   -13040865.921 8  -9582985.24746  22962997.308    22963005.4974
  21376257.261    -2939564.286 9  -2020133.55547  21376256.715    21376264.0034
  20962685.608    -1285570.745 9   -983463.92747  20962684.785    20962691.4494
  23727356.133    -5253365.796 8  -4068761.21045  23727355.543    23727363.5324
 99  9 14 19 25 30.0000000  0  7 08 29 25 01 21 15 31
  22775608.376   -12619281.340 8  -9588760.48546  22775607.485    22775615.1834
  20792199.531   -16079990.168 9 -12510362.68147  20792199.340    20792205.0504
  22807067.864   -12877176.709 8  -9993999.02146  22807067.566    22807075.4864
  22946296.945   -13128628.496 8  -9651371.57146  22946296.530    22946304.8154
  21384856.455    -2894375.669 8  -1984921.68847  21384855.892    21384863.1784
  20950822.801    -1347909.873 8  -1032039.86447  20950822.008    20950828.7524
  23742594.880    -5173286.251 7  -4006361.69045  23742594.204    23742602.3364
 99  9 14 19 26  0.0000000  0  7 08 29 25 01 21 15 31
  22784308.331   -12573563.205 8  -9553136.00246  22784307.432    22784315.0824
  20801238.473   -16032490.656 9 -12473350.08947  20801238.242    20801243.9234
  22789618.215   -12968874.831 8 -10065451.98446  22789617.766    22789625.8504
  22929637.212   -13216175.673 8  -9719590.07646  22929636.793    22929645.0704
  21393499.758    -2848954.647 8  -1949528.72747  21393499.199    21393506.5274
  20939043.897    -1409807.938 9  -1080272.11547  20939043.162    20939049.9334
  23757871.585    -5093007.050 8  -3943806.61345  23757870.927    23757879.1184
 99  9 14 19 26 30.0000000  0  7 08 29 25 01 21 15 31
  22793114.286   -12527287.608 8  -9517077.13046  22793113.426    22793121.0484
  20810337.713   -15984673.670 9 -12436090.12547  20810337.493    20810343.2384
  22772208.113   -13060364.062 8 -10136742.20646  22772207.849    22772215.9434
  22913018.885   -13303505.185 8  -9787638.96846  22913018.527    22913026.7974
  21402189.355    -2803290.666 9  -1913946.45447  21402188.823    21402196.1624
  20927352.461    -1471246.950 9  -1128146.65747  20927351.716    20927358.5454
  23773190.865    -5012504.303 7  -3881077.32545  23773190.183    23773198.4284
 99  9 14 19 27  0.0000000  0  7 08 29 25 01 21 15 31
  22802025.246   -12480460.102 8  -9480588.19046  22802024.447    22802032.1064
  20819500.918   -15936520.473 9 -12398568.17847  20819500.740    20819506.5174
  22754842.844   -13151618.845 8 -10207849.73046  22754842.491    22754850.5634
  22896442.157   -13390616.800 8  -9855518.08046  22896441.793    22896449.8624
  21410930.424    -2757356.841 9  -1878153.90647  21410929.812    21410937.1474
  20915751.908    -1532208.566 9  -1175649.20847  20915751.117    20915757.9314
  23788556.725    -4931756.117 8  -3818156.80545  23788556.175    23788564.4164
 99  9 14 19 27 30.0000000  0  7 08 29 25 01 21 15 31
  22811042.841   -12433072.794 8  -9443663.04546  22811042.034    22811049.7574
  20828731.420   -15888013.973 9 -12360770.92547  20828731.239    20828736.9734
  22737526.703   -13242614.729 8 -10278755.50946  22737526.388    22737534.5434
  22879909.225   -13477496.850 8  -9923216.73846  22879908.859    22879917.0114
  21419725.761    -2711137.467 9  -1842138.85147  21419725.163    21419732.4414
  20904245.627    -1592674.292 9  -1222765.35347  20904244.882    20904251.6764
  23803973.404    -4850741.682 7  -3755028.78745  23803972.773    23803981.0314
 99  9 14 19 28  0.0000000  0  7 08 29 25 01 21 15 31
  22820167.574   -12385121.733 8  -9406298.62246  22820166.847    22820174.5614
  20838034.190   -15839127.973 9 -12322677.96147  20838033.949    20838039.7104
  22720261.650   -13333342.994 8 -10349452.76446  22720261.290    22720269.3914
  22863426.546   -13564114.276 8  -9990710.78146  22863426.110    22863434.1854
  21428576.668    -2664625.524 9  -1805895.82347  21428576.096    21428583.4654
  20892836.741    -1652628.491 9  -1269482.90347  20892835.981    20892842.7444
  23819443.395    -4769446.248 7  -3691681.86545  23819442.843    23819451.2974
 99  9 14 19 28 30.0000000  0  7 08 29 25 01 21 15 31
  22829400.859   -12336600.753 8  -9368490.10346  22829400.115    22829407.8594
  20847407.442   -15789871.254 9 -12284296.12947  20847407.210    20847413.0354
  22703048.613   -13423797.373 8 -10419936.61346  22703048.367    22703056.4214
  22847000.460   -13650434.304 8 -10057973.07046  22846999.942    22847008.0264
  21437485.125    -2617811.314 8  -1769417.25847  21437484.568    21437491.9424
  20881526.045    -1712066.732 9  -1315798.41647  20881525.281    20881532.0314
  23834968.199    -4687863.942 7  -3628111.34945  23834967.635    23834976.0624
 99  9 14 19 29  0.0000000  0  7 08 29 25 01 21 15 31
  22838744.410   -12287500.518 8  -9330230.21346  22838743.657    22838751.4164
  20856845.896   -15740272.125 9 -12245647.47747  20856845.666    20856851.4664
  22685889.032   -13513971.150 8 -10490201.79946  22685888.727    22685896.8424
  22830629.417   -13736464.361 8 -10125009.41246  22830628.945    22830637.0194
  21446448.070    -2570710.553 8  -1732715.40347  21446447.543    21446454.9294
  20870311.092    -1771001.692 9  -1361721.75147  20870310.355    20870317.0314
  23850542.069    -4606022.746 7  -3564339.15545  23850541.533    23850549.9744
 99  9 14 19 29 30.0000000  0  7 08 29 25 01 21 15 31
  22848197.704   -12237822.696 8  -9291520.26946  22848196.923    22848204.8024
  20866344.941   -15690354.266 9 -12206750.46847  20866344.680    20866350.4794
  22668778.877   -13603885.617 8 -10560264.95046  22668778.521    22668786.6014
  22814313.204   -13822205.979 8 -10191820.98746  22814312.700    22814320.8724
  21455461.513    -2523344.416 8  -1695806.77247  21455460.993    21455468.4234
  20859189.649    -1829445.706 9  -1407262.53447  20859188.854    20859195.4794
  23866158.979    -4523956.572 7  -3500391.60145  23866158.412    23866166.7524
 99  9 14 19 30  0.0000000  0  7 08 29 25 01 21 15 31
  22857759.090   -12187577.154 8  -9252367.92246  22857758.384    22857766.3164
  20875900.793   -15640137.600 9 -12167620.62347  20875900.585    20875906.3884
  22651714.809   -13693557.018 8 -10630138.67946  22651714.495    22651722.6144
  22798049.115   -13907674.013 8 -10258419.38046  22798048.620    22798056.7054
  21464522.283    -2475730.211 8  -1658704.83347  21464521.691    21464529.1384
  20848158.535    -1887414.534 9  -1452433.03547  20848157.771    20848164.3314
  23881812.474    -4441696.534 7  -3436293.00945  23881812.015    23881820.5634
 99  9 14 19 30 30.0000000  0  7 08 29 25 01 21 15 31
  22867427.229   -12136770.363 8  -9212778.26146  22867426.510    22867434.4384
  20885511.259   -15589634.536 9 -12128267.60747  20885511.042    20885516.8604
  22634699.174   -13782973.800 8 -10699814.02346  22634698.945    22634707.0234
  22781833.688   -13992887.321 8 -10324819.30046  22781833.045    22781841.0934
  21473628.458    -2427876.945 8  -1621416.61447  21473627.916    21473635.3654
  20837217.735    -1944909.191 9  -1497234.06047  20837216.975    20837223.4474
  23897499.743    -4359260.269 8  -3372057.10045  23897499.135    23897507.7654
 99  9 14 19 31  0.0000000  0  7 08 29 25 01 21 15 31
  22877201.121   -12085408.262 8  -9172755.88846  22877200.394    22877208.3064
  20895179.050   -15538830.266 9 -12088679.88547  20895178.809    20895184.6184
  22617731.478   -13872139.658 8 -10769293.84546  22617731.221    22617739.1544
  22765664.084   -14077858.545 8 -10391030.57746  22765663.529    22765671.6344
  21482778.565    -2379793.512 8  -1583949.05547  21482777.982    21482785.3914
  20826368.151    -2001924.188 9  -1541661.31947  20826367.376    20826373.8454
  23913220.372    -4276649.112 8  -3307684.88245  23913219.672    23913228.3064
 99  9 14 19 31 30.0000000  0  7 08 29 25 01 21 15 31
  22887079.695   -12033495.034 8  -9132304.09346  22887079.094    22887087.1764
  20904909.081   -15487698.644 9 -12048837.08447  20904908.863    20904914.6584
  22600810.887   -13961057.598 8 -10838580.46746  22600810.615    22600818.5264
  22749543.841   -14162570.360 8 -10457039.71346  22749543.279    22749551.3874
  21491975.572    -2331462.874 8  -1546288.85747  21491975.035    21491982.4494
  20815612.571    -2058445.062 9  -1585703.54747  20815611.812    20815618.3184
  23928976.439    -4193850.812 8  -3243166.86045  23928975.774    23928984.4114
 99  9 14 19 32  0.0000000  0  8 14 08 29 25 01 21 15 31
  24677200.226    -5727019.451 7  -4214811.78744  24677200.419    24677208.9874
  22897063.795   -11981028.812 8  -9091421.36646  22897063.143    22897071.1254
  20914700.808   -15436242.912 9 -12008741.72947  20914700.604    20914706.3914
  22583939.169   -14049718.497 8 -10907666.80946  22583938.984    22583946.7814
  22733472.370   -14247026.904 8 -10522849.93846  22733471.695    22733479.7704
  21501221.597    -2282875.030 8  -1508428.24847  21501221.024    21501228.4114
  20804952.428    -2114464.425 9  -1629354.98947  20804951.652    20804958.1644
  23944770.753    -4110851.821 8  -3178492.44345  23944770.160    23944778.7624
 99  9 14 19 32 30.0000000  0  8 14 08 29 25 01 21 15 31
  24660297.948    -5815841.879 7  -4284024.01044  24660298.172    24660306.7024
  22907155.960   -11927994.539 8  -9050096.00146  22907155.286    22907163.2434
  20924555.056   -15384458.742 9 -11968390.45247  20924554.802    20924560.6104
  22567117.632   -14138116.593 8 -10976548.37646  22567117.340    22567125.0674
  22717449.303   -14331228.640 8 -10588461.62246  22717448.588    22717456.6674
  21510520.846    -2234007.300 8  -1470349.53847  21510520.277    21510527.6384
  20794390.032    -2169970.169 9  -1672606.20747  20794389.214    20794395.8004
  23960605.981    -4027637.883 8  -3113650.55845  23960605.348    23960614.0834
 99  9 14 19 33  0.0000000  0  8 14 08 29 25 01 21 15 31
  24643397.500    -5904656.923 7  -4353230.48044  24643397.310    24643405.6574
  22917355.690   -11874395.289 8  -9008330.39646  22917354.975    22917362.9804
  20934469.042   -15332360.157 9 -11927794.17347  20934468.859    20934474.6944
  22550343.759   -14226264.005 8 -11045234.60946  22550343.462    22550351.1544
  22701474.458   -14415176.612 8 -10653875.55446  22701473.797    22701481.8314
  21519873.961    -2184856.336 8  -1432050.12747  21519873.412    21519880.7834
  20783923.982    -2224969.375 9  -1715462.72547  20783923.229    20783929.7974
  23976480.357    -3944218.464 8  -3048648.53245  23976479.648    23976488.2884
 99  9 14 19 33 30.0000000  0  8 14 08 29 25 01 21 15 31
  24626497.930    -5993464.795 7  -4422431.30545  24626497.690    24626505.9264
  22927661.185   -11820239.250 8  -8966130.91946  22927660.491    22927668.5794
  20944438.815   -15279968.838 9 -11886969.79047  20944438.617    20944444.4294
  22533619.497   -14314150.941 8 -11113717.87346  22533619.140    22533626.7924
  22685547.025   -14498875.728 8 -10719095.57646  22685546.303    22685554.3524
  21529281.598    -2135419.152 8  -1393527.68347  21529281.039    21529288.4234
  20773553.338    -2279467.660 9  -1757928.90847  20773552.519    20773559.1114
  23992391.110    -3860607.369 8  -2983497.16945  23992390.473    23992399.1024
 99  9 14 19 34  0.0000000  0  8 14 08 29 25 01 21 15 31
  24609598.697    -6082271.649 7  -4491631.38245  24609598.270    24609606.4634
  22938071.115   -11765534.906 8  -8923504.20646  22938070.424    22938078.4484
  20954459.085   -15227312.432 9 -11845938.84547  20954458.850    20954464.6414
  22516946.585   -14401766.821 8 -11181989.92746  22516946.322    22516954.0194
  22669664.074   -14582340.894 8 -10784133.30746  22669663.329    22669671.4724
  21538744.163    -2085693.817 8  -1354780.72247  21538743.528    21538750.9564
  20763276.392    -2333473.394 9  -1800011.29647  20763275.574    20763282.1704
  24008335.201    -3776821.036 8  -2918209.25645  24008334.606    24008343.2934
 99  9 14 19 34 30.0000000  0  8 14 08 29 25 01 21 15 31
  24592697.031    -6171089.410 7  -4560839.94145  24592696.691    24592705.1194
  22948580.765   -11710306.526 8  -8880469.13946  22948580.048    22948588.0324
  20964529.082   -15174394.014 9 -11804703.74247  20964528.899    20964534.6934
  22500325.313   -14489112.349 8 -11250051.32246  22500325.059    22500332.6004
  22653828.657   -14665556.649 8 -10848976.69046  22653827.941    22653835.9154
  21548261.544    -2035679.607 8  -1315808.65647  21548260.929    21548268.4064
  20753091.927    -2386992.871 9  -1841714.77547  20753091.144    20753097.7124
  24024310.229    -3692872.567 8  -2852794.98245  24024309.646    24024318.2304
 99  9 14 19 35  0.0000000  0  8 14 08 29 25 01 21 15 31
  24575796.751    -6259899.190 7  -4630042.29345  24575796.660    24575805.1724
  22959186.493   -11654573.092 8  -8837040.53546  22959185.806    22959193.8414
  20974649.545   -15121210.675 9 -11763262.19847  20974649.362    20974655.1964
  22483759.370   -14576167.221 8 -11317886.23046  22483759.098    22483766.5884
  22638045.920   -14748494.605 8 -10913603.59946  22638045.267    22638053.2534
  21557832.326    -1985384.906 8  -1276618.02547  21557831.763    21557839.2324
  20743002.296    -2440014.007 9  -1883029.93847  20743001.539    20743008.1444
  24040317.536    -3608754.234 8  -2787248.36545  24040316.824    24040325.4924
 99  9 14 19 35 30.0000000  0  8 14 08 29 25 01 21 15 31
  24558900.715    -6348688.394 7  -4699228.62045  24558900.587    24558909.0584
  22969888.409   -11598334.625 8  -8793218.39446  22969887.668    22969895.7134
  20984822.467   -15067751.561 9 -11721605.77047  20984822.300    20984828.1584
  22467250.132   -14662923.406 8 -11385488.37646  22467249.847    22467257.3304
  22622315.926   -14831155.587 8 -10978014.68846  22622315.327    22622323.3584
  21567456.461    -1934810.256 8  -1237209.24647  21567455.861    21567463.3184
  20733009.189    -2492528.373 9  -1923950.21347  20733008.397    20733015.0024
  24056357.956    -3524461.669 7  -2721565.96745  24056357.250    24056365.9324
 99  9 14 19 36  0.0000000  0  8 14 08 29 25 01 21 15 31
  24542008.211    -6437458.088 7  -4768399.77245  24542008.192    24542016.7594
  22980687.287   -11541586.470 8  -8748999.08946  22980686.531    22980694.5554
  20995051.728   -15013996.470 9 -11679718.71147  20995051.588    20995057.4394
  22450797.616   -14749381.709 8 -11452858.43146  22450797.336    22450804.7844
  22606639.194   -14913536.796 8 -11042207.78746  22606638.680    22606646.6664
  21577133.025    -1883959.556 8  -1197585.37447  21577132.452    21577139.8854
  20723114.362    -2544525.510 9  -1964467.45847  20723113.617    20723120.2314
  24072432.976    -3439987.121 7  -2655741.77745  24072432.332    24072441.1574
 99  9 14 19 36 30.0000000  0  8 14 08 29 25 01 21 15 31
  24525121.260    -6526200.185 7  -4837549.40445  24525121.142    24525129.6244
  22991583.098   -11484328.316 8  -8704382.38246  22991582.449    22991590.4474
  21005341.735   -14959922.536 9 -11637583.20247  21005341.535    21005347.4114
  22434401.243   -14835545.490 8 -11519998.97446  22434400.868    22434408.2754
  22591017.591   -14995628.870 8 -11106175.57546  22591017.045    22591025.0434
  21586858.440    -1832852.122 8  -1157761.44447  21586857.889    21586865.3254
  20713320.869    -2595990.839 9  -2004570.30447  20713320.107    20713326.7584
  24088545.295    -3355316.608 7  -2589764.89145  24088544.698    24088553.6014
 99  9 14 19 37  0.0000000  0  8 14 08 29 25 01 21 15 31
  24508241.706    -6614902.637 7  -4906668.13945  24508241.418    24508250.1064
  23002582.307   -11426526.766 8  -8659342.27246  23002581.724    23002589.7184
  21015695.058   -14905515.229 9 -11595187.92247  21015694.867    21015700.8334
  22418062.563   -14921404.913 8 -11586902.36446  22418062.249    22418069.7384
  22575449.019   -15077441.389 8 -11169925.53546  22575448.542    22575456.5684
  21596632.904    -1781487.356 8  -1117737.00547  21596632.293    21596639.7384
  20703631.845    -2646906.936 9  -2044245.18047  20703631.055    20703637.7824
  24104695.679    -3270445.013 7  -2523631.32145  24104695.177    24104704.2014
